Date StartTime U_cm/s V_cm/s W_cm/s Ustd_cm/s Vstd_cm/s Wstd_cm/s Uvar_(cm/s)^2 Vvar_(cm/s)^2 Wvar_(cm/s)^2 KE_(m/s)^2 TurbulentKE_(m/s)^2 HorizWindSpeed_cm/s FrictionSpeec_cm/s DragCoef SpeedOfSound_m/s SonicTemperature_C Pressure_mb 
09/28/2013  00:00:00      -82.085      -47.816        5.465       49.469       27.572       24.571     2447.178      760.189      603.714        0.643        0.191       94.996       23.639        0.062      336.763        8.284      864.180
09/28/2013  00:01:00     -113.548      -56.530        0.378       53.024       40.321       29.668     2811.584     1625.771      880.165        1.070        0.266      126.841       23.340        0.034      336.729        8.228      864.182
09/28/2013  00:02:00     -138.898      -64.390       -5.123       70.551       45.033       37.285     4977.463     2027.930     1390.160        1.593        0.420      153.097       35.156        0.053      336.670        8.128      864.192
09/28/2013  00:03:00     -155.407     -108.387       -6.200       53.247       47.681       29.614     2835.219     2273.436      877.015        2.096        0.299      189.470       26.882        0.020      336.668        8.123      864.196
09/28/2013  00:04:00     -129.969     -104.761       -5.138       46.795       42.279       26.880     2189.766     1787.482      722.542        1.630        0.235      166.934       28.611        0.029      336.627        8.055      864.189
09/28/2013  00:05:00     -118.874      -75.243       -4.675       40.056       33.952       20.728     1604.486     1152.728      429.631        1.150        0.159      140.686       20.238        0.021      336.685        8.154      864.195
09/28/2013  00:06:00      -97.405      -72.924       -4.711       32.828       26.991       18.834     1077.666      728.528      354.712        0.849        0.108      121.679       12.689        0.011      336.692        8.166      864.220
09/28/2013  00:07:00      -91.418      -58.132       -3.570       44.610       22.047       17.941     1990.029      486.087      321.879        0.727        0.140      108.335       17.669        0.027      336.722        8.215      864.234
09/28/2013  00:08:00      -46.496      -43.656       11.282       65.809       31.494       21.917     4330.873      991.872      480.369        0.500        0.290       63.779       31.173        0.239      336.715        8.203      864.247
09/28/2013  00:09:00      -68.950      -50.224        6.535       48.557       25.167       26.048     2357.755      633.399      678.488        0.549        0.183       85.303       30.303        0.126      336.695        8.169      864.259
09/28/2013  00:10:00      -98.191      -32.518        0.375       47.569       25.184       22.313     2262.836      634.226      497.874        0.705        0.170      103.435       23.749        0.053      336.568        7.958      864.257
09/28/2013  00:11:00      -98.584      -22.283        3.106       34.802       23.834       20.521     1211.213      568.073      421.124        0.621        0.110      101.071       22.233        0.048      336.479        7.808      864.244
09/28/2013  00:12:00      -96.673      -23.960       -1.602       37.449       25.900       17.930     1402.427      670.795      321.472        0.616        0.120       99.598       19.696        0.039      336.451        7.762      864.240
09/28/2013  00:13:00      -79.953      -24.028        1.329       32.720       27.803       18.420     1070.628      773.004      339.312        0.458        0.109       83.486       17.324        0.043      336.418        7.708      864.239
09/28/2013  00:14:00      -66.906      -42.195        3.656       30.846       23.690       21.036      951.496      561.213      442.519        0.411        0.098       79.100       19.393        0.060      336.566        7.953      864.235
09/28/2013  00:15:00      -20.841      -31.012        5.732       34.594       24.992       20.691     1196.738      624.612      428.123        0.184        0.112       37.364       19.949        0.285      336.574        7.969      864.243
09/28/2013  00:16:00      -60.493      -72.420        9.426       32.252       35.999       22.393     1040.181     1295.910      501.458        0.591        0.142       94.361       19.148        0.041      336.534        7.901      864.269
09/28/2013  00:17:00     -108.684      -91.156       -9.968       59.049       46.454       28.203     3486.837     2157.978      795.413        1.333        0.322      141.850       25.305        0.032      336.451        7.761      864.274
09/28/2013  00:18:00     -143.284      -96.939       -2.310       64.274       54.358       34.537     4131.148     2954.820     1192.808        1.910        0.414      172.996       33.676        0.038      336.306        7.517      864.280
09/28/2013  00:19:00     -126.525     -105.998       -3.387       52.145       53.828       35.241     2719.058     2897.500     1241.897        1.706        0.343      165.058       25.637        0.024      336.289        7.490      864.299
09/28/2013  00:20:00      -93.105      -97.256        0.565       51.092       43.789       28.591     2610.405     1917.513      817.448        1.174        0.267      134.638       28.420        0.045      336.335        7.568      864.302
09/28/2013  00:21:00      -85.946      -67.750       -7.298       34.286       20.109       20.296     1175.531      404.389      411.947        0.701        0.100      109.438       18.225        0.028      336.333        7.562      864.304
09/28/2013  00:22:00     -105.418      -42.736      -17.818       17.033       17.854       11.623      290.130      318.761      135.099        0.700        0.037      113.751        8.607        0.006      336.406        7.686      864.310
09/28/2013  00:23:00     -130.784      -28.464      -12.734       33.642       29.639       17.614     1131.791      878.446      310.249        1.020        0.116      133.846       15.684        0.014      336.444        7.750      864.311
09/28/2013  00:24:00     -114.184      -43.315        1.935       33.791       25.347       17.169     1141.815      642.454      294.770        0.850        0.104      122.124       16.266        0.018      336.428        7.723      864.303
09/28/2013  00:25:00     -107.676      -36.669       -7.020       24.974       19.973       19.440      623.679      398.929      377.902        0.719        0.070      113.748       14.879        0.017      336.449        7.758      864.293
09/28/2013  00:26:00     -114.375       -3.973       -7.909       26.185       24.143       15.209      685.643      582.903      231.316        0.733        0.075      114.444       15.148        0.018      336.361        7.611      864.300
09/28/2013  00:27:00     -119.478      -15.623      -10.182       26.754       17.883       15.674      715.755      319.790      245.664        0.795        0.064      120.495       13.457        0.012      336.350        7.593      864.285
09/28/2013  00:28:00     -113.161      -11.136       -8.460       37.611       22.161       19.227     1414.592      491.114      369.665        0.764        0.114      113.707       17.005        0.022      336.316        7.535      864.275
09/28/2013  00:29:00      -96.791      -13.419       -2.145       37.199       27.146       19.431     1383.781      736.916      377.554        0.603        0.125       97.717       16.774        0.029      336.360        7.610      864.262
09/28/2013  00:30:00      -68.076       -9.662       -5.093       48.257       37.057       20.659     2328.690     1373.253      426.797        0.444        0.206       68.758       18.539        0.073      336.415        7.701      864.266
09/28/2013  00:31:00      -91.918       -9.027       -6.716       29.951       39.126       20.725      897.070     1530.814      429.506        0.572        0.143       92.360       15.424        0.028      336.560        7.943      864.260
09/28/2013  00:32:00      -82.363        4.200       -2.216       38.397       33.697       21.818     1474.356     1135.469      476.045        0.495        0.154       82.470       19.920        0.058      336.626        8.055      864.245
09/28/2013  00:33:00     -117.291        3.403      -12.570       32.405       32.941       18.544     1050.094     1085.137      343.863        0.820        0.124      117.341       16.503        0.020      336.628        8.057      864.236
09/28/2013  00:34:00     -108.440       30.042      -13.086       45.653       28.847       22.409     2084.231      832.135      502.179        0.813        0.171      112.525       17.791        0.025      336.686        8.156      864.236
09/28/2013  00:35:00     -139.402       26.999       -6.946       45.592       35.419       24.757     2078.600     1254.498      612.902        1.208        0.197      141.992       20.154        0.020      336.702        8.182      864.233
09/28/2013  00:36:00     -171.137       39.011      -10.629       40.189       34.668       21.761     1615.129     1201.875      473.542        1.711        0.165      175.527       12.410        0.005      336.696        8.172      864.222
09/28/2013  00:37:00     -135.531        5.161      -12.508       34.683       31.565       19.212     1202.883      996.353      369.087        1.056        0.128      135.630       11.920        0.008      336.624        8.052      864.215
09/28/2013  00:38:00     -137.922      -47.301       -0.680       66.464       48.267       28.508     4417.408     2329.697      812.732        1.441        0.378      145.807       28.903        0.039      336.443        7.747      864.213
09/28/2013  00:39:00     -146.573      -23.284       -5.634       42.723       31.361       24.701     1825.219      983.511      610.131        1.274        0.171      148.411       20.375        0.019      336.341        7.577      864.205
09/28/2013  00:40:00     -144.306      -66.267       -8.103       50.303       50.157       28.696     2530.365     2515.746      823.437        1.557        0.293      158.794       27.916        0.031      336.303        7.513      864.198
09/28/2013  00:41:00     -155.685      -97.292      -13.473       32.646       33.267       20.979     1065.754     1106.701      440.109        1.825        0.131      183.586       12.287        0.004      336.347        7.586      864.202
09/28/2013  00:42:00     -128.339      -64.855       -6.700       44.943       41.952       22.240     2019.870     1759.997      494.622        1.250        0.214      143.795       21.424        0.022      336.318        7.538      864.199
09/28/2013  00:43:00     -101.347      -37.753       -2.922       34.910       26.180       16.228     1218.704      685.391      263.350        0.694        0.108      108.151       12.512        0.013      336.399        7.675      864.192
09/28/2013  00:44:00     -122.057      -50.463       -7.006       22.078       23.234       13.950      487.428      539.802      194.590        0.936        0.061      132.077        8.427        0.004      336.362        7.613      864.183
09/28/2013  00:45:00     -135.386      -52.013       -3.530       34.293       31.503       16.164     1175.976      992.414      261.281        1.174        0.121      145.033       16.349        0.013      336.371        7.628      864.165
09/28/2013  00:46:00     -159.534      -46.169      -11.252       33.678       29.647       20.053     1134.183      878.919      402.135        1.506        0.121      166.080       15.033        0.008      336.363        7.614      864.130
09/28/2013  00:47:00     -176.361      -17.720      -18.175       41.401       39.752       22.384     1714.084     1580.239      501.035        1.777        0.190      177.249       20.850        0.014      336.261        7.442      864.096
09/28/2013  00:48:00     -201.098       19.030      -13.803       45.601       40.772       31.140     2079.459     1662.325      969.671        2.285        0.236      201.996       25.092        0.015      336.308        7.519      864.083
09/28/2013  00:49:00     -216.457       -0.110      -21.670       75.447       71.084       36.377     5692.287     5052.997     1323.293        2.969        0.603      216.457       36.563        0.029      336.313        7.526      864.070
09/28/2013  00:50:00     -124.302      -32.564      -14.645       58.329       50.946       32.548     3402.225     2595.546     1059.371        1.189        0.353      128.497       30.300        0.056      336.356        7.601      864.072
09/28/2013  00:51:00     -103.105      -20.160       -0.510       69.913       66.471       31.575     4887.828     4418.438      996.995        1.067        0.515      105.057       27.150        0.067      336.433        7.731      864.091
09/28/2013  00:52:00     -130.366      -13.046      -14.541       47.276       51.047       32.517     2235.058     2605.788     1057.378        1.164        0.295      131.018       28.921        0.049      336.499        7.841      864.092
09/28/2013  00:53:00     -110.143       -9.050      -11.498       35.716       37.569       22.548     1275.668     1411.412      508.398        0.777        0.160      110.515       15.933        0.021      336.548        7.925      864.100
09/28/2013  00:54:00     -121.753        1.674      -14.334       31.491       44.412       23.782      991.676     1972.427      565.578        0.928        0.176      121.765       19.923        0.027      336.583        7.982      864.115
09/28/2013  00:55:00      -94.673      -38.071       -5.486       25.993       22.126       15.188      675.619      489.545      230.663        0.592        0.070      102.041        9.578        0.009      336.554        7.935      864.124
09/28/2013  00:56:00      -15.116      -31.192        0.711       23.529       22.876       14.326      553.635      523.331      205.242        0.124        0.064       34.661       14.273        0.170      336.621        8.047      864.139
09/28/2013  00:57:00      -22.268        3.896        5.876       15.616       15.760       13.092      243.859      248.380      171.413        0.060        0.033       22.606        6.193        0.075      336.584        7.985      864.155
09/28/2013  00:58:00       -0.618        8.840        7.350       21.989        6.671       11.832      483.523       44.503      140.002        0.040        0.033        8.862       14.561        2.700      336.539        7.909      864.166
09/28/2013  00:59:00       -7.832       16.977       19.179        9.633       11.524       12.280       92.795      132.811      150.794        0.055        0.019       18.696       10.314        0.304      336.496        7.839      864.167
09/28/2013  01:00:00      -21.060      -10.427       -4.613       13.912       11.170        8.620      193.536      124.777       74.305        0.048        0.020       23.500        5.916        0.063      336.619        8.045      864.165
09/28/2013  01:01:00      -52.309      -16.494       -3.656       11.425       13.646        9.288      130.527      186.227       86.272        0.171        0.020       54.847        6.058        0.012      336.710        8.196      864.156
09/28/2013  01:02:00      -55.472      -15.871       -2.141       21.938       12.670       14.387      481.264      160.534      206.987        0.209        0.042       57.697       13.984        0.059      336.592        7.998      864.153
09/28/2013  01:03:00      -79.368      -30.453        3.009       23.310       17.473       13.267      543.362      305.292      176.006        0.413        0.051       85.010       12.436        0.021      336.465        7.786      864.142
09/28/2013  01:04:00      -31.268      -20.293        2.682       26.216       18.005       17.913      687.303      324.183      320.872        0.136        0.067       37.276       14.964        0.161      336.391        7.662      864.141
09/28/2013  01:05:00      -27.496      -30.073        2.680       28.012       20.420       18.019      784.667      416.970      324.698        0.160        0.076       40.748       17.636        0.187      336.475        7.802      864.138
09/28/2013  01:06:00      -37.421      -35.814        0.787       32.890       18.500       16.140     1081.761      342.245      260.500        0.218        0.084       51.797       15.533        0.090      336.538        7.906      864.141
09/28/2013  01:07:00      -21.817      -15.493        6.968       17.034       11.274        9.899      290.171      127.104       97.988        0.064        0.026       26.759        7.810        0.085      336.546        7.922      864.133
09/28/2013  01:08:00       -9.431      -13.554       -2.808       15.758       13.326        7.694      248.306      177.585       59.192        0.038        0.024       16.512        8.612        0.272      336.625        8.053      864.135
09/28/2013  01:09:00       16.490        8.258        7.721        9.403        9.340        5.121       88.410       87.238       26.222        0.030        0.010       18.442        6.200        0.113      336.527        7.889      864.146
09/28/2013  01:10:00       42.750       29.724        0.551       24.873       12.842       12.681      618.668      164.922      160.809        0.183        0.047       52.068       13.494        0.067      336.460        7.778      864.161
09/28/2013  01:11:00       53.245       41.238       -0.160       32.063       27.869       25.746     1028.025      776.669      662.841        0.350        0.123       67.347       16.169        0.058      336.071        7.127      864.176
09/28/2013  01:12:00       32.006       44.143       -4.396       28.969       24.430       21.821      839.195      596.827      476.166        0.245        0.096       54.525       16.664        0.093      336.069        7.122      864.194
09/28/2013  01:13:00       31.773       37.484       -2.703       20.866       19.254       13.123      435.400      370.722      172.210        0.170        0.049       49.138       11.512        0.055      336.149        7.256      864.207
09/28/2013  01:14:00        8.338       25.903       -4.430        7.277        8.157        8.499       52.956       66.532       72.227        0.048        0.010       27.212        7.257        0.071      336.239        7.407      864.218
09/28/2013  01:15:00        8.766       22.957       -0.605        6.941        7.788        5.988       48.174       60.650       35.860        0.037        0.007       24.573        5.152        0.044      336.224        7.382      864.219
09/28/2013  01:16:00        5.533       30.169       -3.863        4.476        5.025        3.059       20.035       25.249        9.361        0.051        0.003       30.673        2.357        0.006      336.344        7.582      864.218
09/28/2013  01:17:00       -5.088       13.201       -1.545        5.717        9.338        3.482       32.688       87.192       12.127        0.017        0.007       14.148        4.227        0.089      336.376        7.635      864.209
09/28/2013  01:18:00       -6.617        0.971       -1.013        3.384        2.898        2.173       11.455        8.401        4.722        0.004        0.001        6.688        1.619        0.059      336.369        7.624      864.200
09/28/2013  01:19:00        4.769        5.967        5.444        4.776        3.447        4.187       22.808       11.885       17.533        0.007        0.003        7.638        3.963        0.269      336.396        7.666      864.190
09/28/2013  01:20:00       15.815       14.763        4.981        9.494        9.326        6.898       90.128       86.974       47.579        0.036        0.011       21.635        7.262        0.113      336.359        7.608      864.185
09/28/2013  01:21:00        2.242        8.770       -3.966        4.668        9.251        2.700       21.794       85.587        7.290        0.011        0.006        9.052        2.735        0.091      336.347        7.586      864.190
09/28/2013  01:22:00      -11.224       -2.751        0.280        7.800        2.999        4.152       60.843        8.996       17.235        0.011        0.004       11.556        3.931        0.116      336.382        7.646      864.192
09/28/2013  01:23:00      -43.591      -15.346       -2.110       16.225       11.685        6.441      263.265      136.538       41.482        0.129        0.022       46.213        6.023        0.017      336.441        7.745      864.197
09/28/2013  01:24:00      -63.652      -26.679        1.086       23.993       11.531       11.774      575.646      132.975      138.635        0.281        0.042       69.017       11.333        0.027      336.321        7.545      864.203
09/28/2013  01:25:00      -12.969      -38.879        5.496       31.935       29.321       17.244     1019.827      859.733      297.366        0.194        0.109       40.985       16.638        0.165      336.330        7.558      864.209
09/28/2013  01:26:00      -54.585      -41.135        2.699       26.564       18.438       18.408      705.663      339.973      338.866        0.303        0.069       68.349       15.647        0.052      336.359        7.608      864.202
09/28/2013  01:27:00      -77.157      -53.405       -2.822       28.897       27.662       20.209      835.043      765.190      408.402        0.541        0.100       93.836       18.098        0.037      336.353        7.598      864.188
09/28/2013  01:28:00      -56.380      -61.447        5.235       28.491       24.080       19.037      811.760      579.844      362.416        0.437        0.088       83.393       20.299        0.059      336.362        7.613      864.176
09/28/2013  01:29:00      -59.680      -55.807       -2.584       20.762       19.134       13.633      431.075      366.097      185.869        0.383        0.049       81.708       11.314        0.019      336.425        7.717      864.169
09/28/2013  01:30:00      -48.636      -34.627       -1.590       27.753       16.381       14.509      770.230      268.329      210.503        0.241        0.062       59.703        9.868        0.027      336.362        7.613      864.174
09/28/2013  01:31:00      -28.066      -26.268        6.760       27.263       25.447       18.156      743.255      647.571      329.622        0.162        0.086       38.441       14.264        0.138      336.371        7.627      864.176
09/28/2013  01:32:00      -14.562      -29.199       18.256       34.201       22.455       17.279     1169.704      504.243      298.568        0.168        0.099       32.629       15.708        0.232      336.345        7.584      864.184
09/28/2013  01:33:00      -32.862      -36.232        8.078       35.106       28.210       21.372     1232.418      795.822      456.782        0.247        0.124       48.915       21.597        0.195      336.311        7.529      864.185
09/28/2013  01:34:00      -46.937      -38.434        3.539       37.139       26.385       23.046     1379.300      696.155      531.104        0.315        0.130       60.665       18.641        0.094      336.280        7.474      864.178
09/28/2013  01:35:00      -66.360      -45.463       -2.832       38.011       33.197       18.780     1444.858     1102.027      352.686        0.469        0.145       80.439       18.388        0.052      336.253        7.430      864.171
09/28/2013  01:36:00      -90.283      -33.454       -5.348       25.000       26.416       12.460      625.014      697.831      155.263        0.539        0.074       96.282        9.143        0.009      336.286        7.485      864.158
09/28/2013  01:37:00      -96.063       -5.898       -5.948       27.808       20.931       18.186      773.309      438.105      330.728        0.542        0.077       96.244       14.754        0.024      336.190        7.325      864.150
09/28/2013  01:38:00     -107.559      -30.076       -6.935       28.758       25.187       16.958      827.028      634.401      287.559        0.713        0.087      111.685       11.614        0.011      336.181        7.309      864.156
09/28/2013  01:39:00     -123.137      -59.999        4.739       33.640       27.314       19.160     1131.636      746.047      367.103        1.051        0.112      136.977       13.778        0.010      336.203        7.347      864.154
09/28/2013  01:40:00     -100.866      -58.323        1.914       46.548       33.545       20.175     2166.755     1125.235      407.012        0.864        0.185      116.514       18.659        0.026      336.220        7.376      864.172
09/28/2013  01:41:00     -106.535      -54.415       -0.468       31.537       29.154       18.430      994.589      849.958      339.662        0.825        0.109      119.627       14.396        0.014      336.173        7.297      864.193
09/28/2013  01:42:00      -82.956      -36.654        2.998       33.142       26.410       15.780     1098.374      697.476      249.007        0.514        0.102       90.693       11.801        0.017      336.180        7.308      864.206
09/28/2013  01:43:00     -102.822      -31.484       -4.664       19.289       16.547       12.491      372.076      273.816      156.025        0.619        0.040      107.535       10.153        0.009      336.199        7.341      864.209
09/28/2013  01:44:00      -95.271      -39.980        1.410       29.907       21.939       14.799      894.430      481.303      219.015        0.614        0.080      103.320       15.646        0.023      336.218        7.371      864.206
09/28/2013  01:45:00      -96.316      -47.495      -13.397       13.643       13.506       12.111      186.143      182.417      146.680        0.611        0.026      107.390        4.629        0.002      336.191        7.326      864.203
09/28/2013  01:46:00     -114.889      -24.651      -16.893       16.455       21.132       13.119      270.783      446.563      172.117        0.749        0.044      117.503       10.169        0.007      336.170        7.291      864.195
09/28/2013  01:47:00     -130.636      -23.949      -14.500       26.582       15.003       14.008      706.615      225.087      196.227        0.949        0.056      132.813       14.687        0.012      336.081        7.142      864.185
09/28/2013  01:48:00     -136.829      -50.103      -15.408       13.259       18.043       11.829      175.796      325.542      139.926        1.106        0.032      145.714        8.374        0.003      336.076        7.133      864.178
09/28/2013  01:49:00     -121.055      -49.953      -10.142       22.057       23.371       15.469      486.492      546.182      239.295        0.926        0.064      130.956       11.077        0.007      336.083        7.147      864.183
09/28/2013  01:50:00     -122.673      -33.421      -12.805       21.709       28.028       15.121      471.278      785.575      228.638        0.891        0.074      127.144       13.169        0.011      336.046        7.084      864.184
09/28/2013  01:51:00     -123.511       -3.958       -8.162       37.948       31.650       22.487     1440.018     1001.695      505.659        0.914        0.147      123.574       17.934        0.021      336.005        7.017      864.183
09/28/2013  01:52:00     -128.246        8.222      -11.446       34.257       31.933       22.348     1173.548     1019.744      499.413        0.967        0.135      128.509       18.333        0.020      336.167        7.287      864.178
09/28/2013  01:53:00     -105.120       20.890      -14.870       36.167       30.012       19.978     1308.082      900.702      399.107        0.716        0.130      107.175       15.580        0.021      336.203        7.345      864.167
09/28/2013  01:54:00      -92.959       23.776       -5.491       37.867       28.137       20.844     1433.912      791.683      434.470        0.595        0.133       95.951       14.095        0.022      336.219        7.373      864.167
09/28/2013  01:55:00     -152.964       23.054       -9.786       29.256       22.273       17.659      855.903      496.076      311.847        1.284        0.083      154.692       14.826        0.009      336.237        7.403      864.160
09/28/2013  01:56:00     -156.695        9.670       -8.500       33.023       24.423       16.947     1090.508      596.479      287.192        1.335        0.099      156.994       11.821        0.006      336.289        7.490      864.158
09/28/2013  01:57:00     -161.268       20.472      -15.022       31.892       29.870       18.684     1017.082      892.221      349.075        1.445        0.113      162.563       17.025        0.011      336.166        7.287      864.156
09/28/2013  01:58:00     -132.678      -20.009      -11.213       34.478       27.489       19.247     1188.750      755.666      370.436        1.022        0.116      134.179       16.269        0.015      336.125        7.215      864.151
09/28/2013  01:59:00     -114.420      -11.490       -4.400       53.771       36.016       27.558     2891.305     1297.120      759.435        0.909        0.247      114.995       23.496        0.042      336.101        7.178      864.144
09/28/2013  02:00:00     -126.929      -20.441      -10.045       42.502       30.432       22.175     1806.421      926.081      491.735        0.993        0.161      128.565       21.635        0.028      336.115        7.199      864.141
09/28/2013  02:01:00      -54.444      -28.643        1.212       39.254       27.694       20.766     1540.914      766.950      431.245        0.326        0.137       61.519       20.895        0.115      336.097        7.169      864.140
09/28/2013  02:02:00     -108.779      -34.290       -8.265       21.006       22.345       14.836      441.268      499.314      220.105        0.712        0.058      114.055        8.617        0.006      336.267        7.454      864.130
09/28/2013  02:03:00      -90.505      -52.570       -7.995       23.833       19.031       15.106      568.010      362.162      228.180        0.609        0.058      104.664       13.477        0.017      336.251        7.427      864.123
09/28/2013  02:04:00      -79.185      -50.006       -3.016       30.951       24.099       22.395      957.976      580.783      501.543        0.541        0.102       93.653       18.061        0.037      336.222        7.379      864.113
09/28/2013  02:05:00     -101.220      -51.327       -5.986       24.980       33.113       14.827      623.997     1096.446      219.849        0.743        0.097      113.490       10.954        0.009      336.235        7.400      864.113
09/28/2013  02:06:00     -109.220      -33.312       -0.990       25.433       24.821       15.988      646.861      616.105      255.623        0.728        0.076      114.187       13.502        0.014      336.284        7.482      864.108
09/28/2013  02:07:00     -107.905      -12.783       -7.685       41.658       24.438       20.190     1735.403      597.211      407.624        0.730        0.137      108.659       23.792        0.048      336.253        7.430      864.110
09/28/2013  02:08:00     -105.375       -3.698       -6.647       38.989       28.992       17.618     1520.137      840.516      310.385        0.692        0.134      105.440       19.213        0.033      336.265        7.450      864.104
09/28/2013  02:09:00     -123.512       16.989       -6.499       49.944       34.540       21.905     2494.448     1192.994      479.823        0.988        0.208      124.675       18.609        0.022      336.326        7.552      864.100
09/28/2013  02:10:00     -118.965        5.113      -11.435       38.110       35.167       22.381     1452.395     1236.719      500.930        0.875        0.160      119.075       19.440        0.027      336.352        7.596      864.091
09/28/2013  02:11:00     -131.756       19.741      -12.851       49.021       35.294       21.316     2403.104     1245.669      454.393        1.101        0.205      133.227       20.755        0.024      336.374        7.631      864.099
09/28/2013  02:12:00      -94.250      -16.326       -4.607       37.253       35.385       21.650     1387.782     1252.132      468.701        0.614        0.155       95.654       19.343        0.041      336.338        7.573      864.101
09/28/2013  02:13:00      -79.675      -24.098       -2.256       33.074       37.223       20.597     1093.916     1385.518      424.231        0.492        0.145       83.240        7.755        0.009      336.334        7.567      864.102
09/28/2013  02:14:00      -74.528      -46.903       -0.385       48.531       32.567       19.936     2355.219     1060.630      397.442        0.578        0.191       88.058       20.640        0.055      336.321        7.543      864.102
09/28/2013  02:15:00      -87.619      -51.787       -4.738       19.385       16.620       10.540      375.782      276.227      111.088        0.557        0.038      101.779       10.409        0.010      336.327        7.554      864.104
09/28/2013  02:16:00      -75.276      -43.751        0.521       30.156       22.210       17.050      909.364      493.262      290.713        0.464        0.085       87.066       19.043        0.048      336.292        7.495      864.105
09/28/2013  02:17:00      -52.536      -31.014        5.138       45.563       21.984       19.762     2076.029      483.284      390.524        0.335        0.147       61.007       21.308        0.122      336.347        7.587      864.093
09/28/2013  02:18:00      -58.865      -50.110        7.280       36.159       18.063       16.351     1307.486      326.285      267.350        0.396        0.095       77.305       17.584        0.052      336.437        7.739      864.092
09/28/2013  02:19:00      -16.837      -27.624       16.481       37.713       28.749       25.004     1422.295      826.516      625.222        0.210        0.144       32.351       26.783        0.685      336.439        7.741      864.081
09/28/2013  02:20:00      -21.611      -33.901       11.914       32.492       34.244       22.544     1055.720     1172.638      508.239        0.225        0.137       40.203       16.989        0.179      336.376        7.635      864.073
09/28/2013  02:21:00      -65.022      -64.698        1.295       40.901       30.222       26.240     1672.923      913.387      688.518        0.584        0.164       91.726       23.608        0.066      336.338        7.572      864.066
09/28/2013  02:22:00      -64.351      -34.353        0.836       44.226       23.968       22.086     1955.983      574.457      487.796        0.417        0.151       72.947       26.550        0.132      336.315        7.534      864.055
09/28/2013  02:23:00      -61.361      -48.324       -6.791       20.644       24.857       15.118      426.157      617.859      228.557        0.371        0.064       78.105       10.259        0.017      336.321        7.544      864.055
09/28/2013  02:24:00      -37.405      -51.566        9.789       38.685       34.296       21.797     1496.557     1176.194      475.122        0.365        0.157       63.704       22.397        0.124      336.291        7.494      864.055
09/28/2013  02:25:00     -101.752     -103.306       -7.848       45.154       46.291       25.330     2038.926     2142.846      641.623        1.295        0.241      145.002       21.490        0.022      336.163        7.280      864.037
09/28/2013  02:26:00     -138.065     -104.378       -2.838       39.216       39.998       26.223     1537.878     1599.845      687.665        1.689        0.191      173.080       22.076        0.016      336.128        7.221      864.023
09/28/2013  02:27:00      -91.984      -62.255        8.030       60.949       36.480       23.060     3714.823     1330.822      531.767        0.899        0.279      111.071       26.494        0.057      336.117        7.203      864.012
09/28/2013  02:28:00      -83.926      -59.019        8.064       35.758       31.153       17.518     1278.614      970.509      306.878        0.657        0.128      102.600       15.592        0.023      336.173        7.296      864.001
09/28/2013  02:29:00      -77.565      -81.499        2.989       44.442       35.679       18.665     1975.052     1272.972      348.390        0.813        0.180      112.510       23.168        0.042      336.203        7.346      863.993
09/28/2013  02:30:00     -102.708      -76.215        4.560       45.241       30.930       22.091     2046.704      956.662      487.998        0.993        0.175      127.897       24.778        0.038      336.200        7.342      863.985
09/28/2013  02:31:00      -89.862      -64.425        2.691       41.229       37.410       25.322     1699.853     1399.498      641.196        0.799        0.187      110.570       25.448        0.053      336.183        7.314      863.967
09/28/2013  02:32:00      -62.009      -51.413        1.336       36.425       29.349       21.128     1326.767      861.350      446.395        0.456        0.132       80.550       18.625        0.053      336.205        7.351      863.934
09/28/2013  02:33:00      -44.182      -50.459       12.877       46.011       30.735       23.349     2116.978      944.613      545.186        0.413        0.180       67.068       24.161        0.130      336.174        7.300      863.902
09/28/2013  02:34:00      -51.770      -48.646       10.423       50.649       29.564       27.413     2565.308      874.049      751.486        0.467        0.210       71.039       33.935        0.228      336.209        7.356      863.871
09/28/2013  02:35:00      -89.640      -71.131       -4.669       36.809       29.727       23.191     1354.935      883.716      537.831        0.795        0.139      114.433       21.573        0.036      336.192        7.328      863.858
09/28/2013  02:36:00     -110.145      -80.814        1.345       37.183       35.646       22.144     1382.563     1270.650      490.341        1.090        0.157      136.612       19.123        0.020      336.223        7.381      863.864
09/28/2013  02:37:00      -80.664      -55.721       -2.186       38.951       22.629       17.281     1517.196      512.082      298.629        0.597        0.116       98.039       15.835        0.026      336.186        7.318      863.881
09/28/2013  02:38:00      -68.199      -56.775        4.109       32.747       31.098       23.307     1072.393      967.057      543.195        0.524        0.129       88.738       21.411        0.058      336.215        7.367      863.903
09/28/2013  02:39:00      -90.786      -18.772       -8.549       35.444       31.718       15.472     1256.301     1006.063      239.378        0.558        0.125       92.707       15.547        0.028      336.178        7.304      863.913
09/28/2013  02:40:00     -105.538      -23.759       -7.721       29.716       25.870       17.113      883.065      669.237      292.851        0.680        0.092      108.179       12.037        0.012      336.077        7.136      863.921
09/28/2013  02:41:00     -109.620      -43.679       -4.191       24.423       28.108       19.520      596.473      790.079      381.035        0.785        0.088      118.002       18.062        0.023      336.085        7.149      863.918
09/28/2013  02:42:00     -103.002      -55.374      -13.169       15.035       13.047       12.335      226.062      170.212      152.153        0.720        0.027      116.943        8.744        0.006      336.063        7.114      863.906
09/28/2013  02:43:00      -23.136      -16.698        9.215       38.159       21.403       17.393     1456.134      458.072      302.524        0.156        0.111       28.532       19.098        0.448      336.031        7.059      863.886
09/28/2013  02:44:00       -5.581      -16.852        9.347       24.251       18.801       14.193      588.131      353.465      201.444        0.077        0.057       17.752       12.452        0.492      336.093        7.164      863.863
09/28/2013  02:45:00      -27.808      -31.108        2.557       32.958       22.546       18.777     1086.211      508.333      352.588        0.185        0.097       41.725       14.937        0.128      336.150        7.259      863.841
09/28/2013  02:46:00      -34.599      -28.049        3.391       30.517       16.675       12.651      931.290      278.062      160.039        0.168        0.068       44.540       11.747        0.070      336.164        7.281      863.823
09/28/2013  02:47:00      -76.784      -32.187       -4.037       13.739       10.337        6.773      188.748      106.853       45.867        0.364        0.017       83.257        5.428        0.004      336.177        7.302      863.822
09/28/2013  02:48:00      -96.384      -23.127       -5.372        7.365        9.691        5.184       54.246       93.925       26.878        0.501        0.009       99.120        3.750        0.001      336.143        7.245      863.829
09/28/2013  02:49:00      -88.110      -21.871       -3.461       13.612       11.364        8.427      185.279      129.144       71.022        0.432        0.019       90.784        7.540        0.007      336.123        7.211      863.833
09/28/2013  02:50:00      -74.714      -14.897       -2.487       12.712       10.278        8.436      161.586      105.643       71.160        0.307        0.017       76.184        6.383        0.007      336.115        7.200      863.823
09/28/2013  02:51:00      -57.135      -19.044       -0.513       21.990       11.717       11.032      483.578      137.283      121.697        0.218        0.037       60.225       10.989        0.033      336.144        7.249      863.807
09/28/2013  02:52:00      -59.655       -6.875      -11.316       13.245        7.390        8.689      175.436       54.613       75.504        0.202        0.015       60.050        8.228        0.019      336.181        7.308      863.782
09/28/2013  02:53:00      -60.621      -16.397      -10.513       10.273       11.276        6.612      105.527      127.159       43.723        0.217        0.014       62.799        5.417        0.007      336.146        7.252      863.775
09/28/2013  02:54:00      -87.259      -34.623      -12.758       11.667        9.072        7.449      136.127       82.297       55.487        0.462        0.014       93.877        3.325        0.001      336.087        7.151      863.770
09/28/2013  02:55:00      -98.585      -38.988       -9.159       10.307       14.580        8.460      106.241      212.581       71.576        0.586        0.020      106.015        7.989        0.006      336.059        7.107      863.780
09/28/2013  02:56:00      -86.792      -38.183      -13.880       10.835       10.052        7.474      117.393      101.034       55.866        0.473        0.014       94.820        2.839        0.001      336.051        7.092      863.787
09/28/2013  02:57:00      -72.790      -38.557       -7.004       14.646       13.875        9.589      214.514      192.510       91.952        0.367        0.025       82.372        8.653        0.011      336.049        7.090      863.776
09/28/2013  02:58:00      -80.137      -39.189       -8.214       11.327       15.869        7.962      128.294      251.821       63.393        0.423        0.022       89.206        3.019        0.001      336.050        7.091      863.770
09/28/2013  02:59:00      -80.793      -35.931       -4.098       16.927       11.342       10.727      286.537      128.648      115.066        0.418        0.027       88.423        8.552        0.009      336.127        7.220      863.764
09/28/2013  03:00:00      -66.011      -43.532        2.199       36.934       24.350       15.672     1364.134      592.932      245.626        0.423        0.110       79.072       12.502        0.025      336.146        7.251      863.766
09/28/2013  03:01:00      -74.558      -37.537        0.024       23.020       14.896       13.382      529.911      221.903      179.078        0.395        0.047       83.474       12.145        0.021      336.100        7.175      863.776
09/28/2013  03:02:00      -80.291      -29.833        0.253       23.213       17.034       13.719      538.839      290.161      188.221        0.418        0.051       85.654       11.204        0.017      336.083        7.145      863.790
09/28/2013  03:03:00      -60.424      -24.449        2.762       32.736       17.601       14.266     1071.640      309.790      203.521        0.292        0.079       65.183       12.812        0.039      336.059        7.106      863.803
09/28/2013  03:04:00      -71.978      -16.958        0.358       16.602       19.298       12.831      275.616      372.405      164.638        0.314        0.041       73.949        9.851        0.018      336.113        7.197      863.808
09/28/2013  03:05:00      -83.255      -12.646       -6.940       16.178       17.259       13.579      261.723      297.861      184.394        0.394        0.037       84.210       10.157        0.015      336.099        7.172      863.804
09/28/2013  03:06:00      -66.656      -12.573       -3.177       19.794       15.864       12.594      391.783      251.672      158.610        0.271        0.040       67.832       10.310        0.023      336.076        7.134      863.801
09/28/2013  03:07:00      -73.449       -6.199       -3.061       26.436       19.420       13.866      698.885      377.149      192.268        0.336        0.063       73.710       13.208        0.032      335.980        6.974      863.797
09/28/2013  03:08:00      -89.771      -25.041       -1.713       31.977       16.260       14.192     1022.497      264.381      201.424        0.509        0.074       93.198       16.337        0.031      335.954        6.932      863.798
09/28/2013  03:09:00      -77.580       -5.723       -1.824       21.009       14.373       10.406      441.392      206.591      108.294        0.341        0.038       77.790        7.970        0.010      335.903        6.846      863.795
09/28/2013  03:10:00      -67.257      -16.174       -2.539       17.581       15.945       10.760      309.085      254.234      115.771        0.274        0.034       69.174        8.609        0.015      335.955        6.933      863.792
09/28/2013  03:11:00      -68.661      -25.253       -9.047       13.372       15.517       11.123      178.808      240.783      123.717        0.299        0.027       73.158        6.647        0.008      335.958        6.939      863.789
09/28/2013  03:12:00      -57.039      -14.862       -1.351        9.728        8.534        8.317       94.629       72.827       69.172        0.186        0.012       58.943        1.763        0.001      335.959        6.939      863.785
09/28/2013  03:13:00      -29.674       -9.822       -5.420        6.212        5.283        5.121       38.588       27.913       26.222        0.055        0.005       31.257        3.539        0.013      336.032        7.059      863.772
09/28/2013  03:14:00      -33.949       -9.985       -3.405        7.166       10.059        6.153       51.350      101.186       37.859        0.073        0.010       35.387        3.622        0.010      336.052        7.094      863.756
09/28/2013  03:15:00      -31.906      -16.784       -4.803       10.460        7.622        6.159      109.416       58.102       37.938        0.076        0.010       36.052        2.752        0.006      336.036        7.068      863.743
09/28/2013  03:16:00      -40.624      -15.902       -8.096       11.018        7.527        8.177      121.405       56.657       66.866        0.111        0.012       43.625        4.642        0.011      335.991        6.992      863.743
09/28/2013  03:17:00      -37.291      -12.327       -5.578       12.482       10.729        6.778      155.799      115.105       45.946        0.095        0.016       39.276        2.522        0.004      336.064        7.115      863.744
09/28/2013  03:18:00      -51.573      -11.630       -8.116       14.225       13.760        9.616      202.339      189.337       92.467        0.167        0.024       52.868        6.685        0.016      336.138        7.237      863.750
09/28/2013  03:19:00      -66.975      -16.574       -2.950       14.282       14.865       10.355      203.974      220.958      107.229        0.265        0.027       68.996        3.037        0.002      336.088        7.155      863.759
09/28/2013  03:20:00      -82.550      -20.578       -9.154       10.686        9.534        6.747      114.181       90.899       45.527        0.379        0.013       85.076        5.103        0.004      335.986        6.983      863.766
09/28/2013  03:21:00      -62.551      -17.369       -4.971       16.668       12.462        9.075      277.829      155.293       82.359        0.238        0.026       64.918        8.683        0.018      335.978        6.971      863.764
09/28/2013  03:22:00      -31.170      -11.941        3.623       19.954       11.051        9.464      398.169      122.123       89.576        0.087        0.030       33.379       11.295        0.115      335.927        6.887      863.755
09/28/2013  03:23:00      -58.519       -5.687       -7.312        6.451        8.151        5.990       41.620       66.444       35.876        0.183        0.007       58.794        3.752        0.004      336.010        7.025      863.746
09/28/2013  03:24:00      -59.849       -4.265       -2.483       10.072        7.571        7.453      101.440       57.316       55.542        0.191        0.011       60.001        3.170        0.003      336.040        7.074      863.741
09/28/2013  03:25:00      -45.253       -8.381       -5.933        8.422        7.634        8.349       70.931       58.281       69.712        0.118        0.010       46.023        4.455        0.009      336.088        7.153      863.745
09/28/2013  03:26:00      -40.380      -11.924       -6.444        7.674        8.460        7.572       58.893       71.568       57.340        0.100        0.009       42.104        5.668        0.018      336.107        7.185      863.758
09/28/2013  03:27:00      -63.612        0.982       -8.788       18.538       13.516        9.552      343.657      182.677       91.239        0.237        0.031       63.620        6.702        0.011      336.106        7.185      863.781
09/28/2013  03:28:00      -96.626        4.860      -12.020       14.200       13.247       11.212      201.633      175.492      125.703        0.500        0.025       96.748        8.911        0.008      336.076        7.136      863.812
09/28/2013  03:29:00      -90.310       -1.096      -11.283       17.603       11.850       10.691      309.868      140.426      114.288        0.442        0.028       90.317        8.645        0.009      336.012        7.027      863.836
09/28/2013  03:30:00      -77.436      -16.561      -16.601       16.525       11.624        9.480      273.084      135.128       89.861        0.352        0.025       79.187        9.054        0.013      335.994        6.998      863.847
09/28/2013  03:31:00      -48.096      -21.409       -5.154       12.982       17.065       14.288      168.529      291.229      204.138        0.173        0.033       52.646       10.558        0.040      335.935        6.900      863.852
09/28/2013  03:32:00      -82.283      -26.329      -13.697       10.665       10.399        7.250      113.742      108.131       52.563        0.396        0.014       86.392        5.891        0.005      335.852        6.762      863.845
09/28/2013  03:33:00      -72.299      -16.263       -9.975        9.931       10.158       10.110       98.631      103.179      102.221        0.295        0.015       74.106        7.568        0.010      335.846        6.752      863.829
09/28/2013  03:34:00      -66.275      -19.923       -7.312       10.838        6.221        7.336      117.461       38.707       53.823        0.253        0.010       69.204        6.672        0.009      335.829        6.722      863.816
09/28/2013  03:35:00      -48.325      -17.769       -9.047       11.472       14.198       10.450      131.603      201.578      109.197        0.159        0.022       51.489        6.719        0.017      335.859        6.775      863.792
09/28/2013  03:36:00      -37.799       -4.838       -3.472       10.395        7.166        5.716      108.056       51.347       32.675        0.083        0.010       38.107        3.354        0.008      335.856        6.769      863.768
09/28/2013  03:37:00      -21.531      -13.330       -2.415        8.849        8.390        4.608       78.304       70.394       21.235        0.041        0.008       25.323        3.060        0.015      335.982        6.978      863.745
09/28/2013  03:38:00        2.811      -26.706       -4.893       13.877       15.163        8.948      192.566      229.926       80.071        0.062        0.025       26.853        8.016        0.089      336.065        7.115      863.725
09/28/2013  03:39:00       -0.100       -5.080        5.873        6.590       11.875        5.511       43.423      141.018       30.377        0.014        0.011        5.081        3.042        0.358      336.036        7.068      863.719
09/28/2013  03:40:00       -0.879        1.179       -0.747        2.608        3.056        4.807        6.800        9.340       23.106        0.002        0.002        1.471        2.667        3.289      336.011        7.024      863.718
09/28/2013  03:41:00       -2.012       -4.104        0.739        3.357        3.707        3.604       11.271       13.742       12.989        0.003        0.002        4.571        1.874        0.168      336.087        7.152      863.726
09/28/2013  03:42:00      -11.155       -8.326        0.904        8.762        3.585        2.778       76.767       12.851        7.716        0.015        0.005       13.920        2.493        0.032      336.174        7.295      863.733
09/28/2013  03:43:00      -34.165       -6.170       -5.316       10.336        7.520        6.105      106.831       56.546       37.266        0.072        0.010       34.717        5.843        0.028      336.027        7.054      863.744
09/28/2013  03:44:00      -49.073      -14.416       -8.798        7.442        9.576        6.061       55.388       91.709       36.735        0.144        0.009       51.147        3.864        0.006      335.903        6.849      863.743
09/28/2013  03:45:00      -52.174      -13.459       -6.029       11.516        9.238        6.851      132.617       85.341       46.933        0.160        0.013       53.882        5.864        0.012      335.960        6.940      863.726
09/28/2013  03:46:00      -35.422      -13.354       -7.313        8.800       10.266        6.865       77.440      105.397       47.121        0.086        0.011       37.856        6.577        0.030      335.966        6.950      863.707
09/28/2013  03:47:00      -30.711      -14.198       -4.034        7.319        6.056        5.056       53.566       36.675       25.560        0.064        0.006       33.834        3.683        0.012      336.023        7.046      863.689
09/28/2013  03:48:00      -24.367      -11.847       -2.303        8.725        6.039        5.470       76.119       36.467       29.916        0.044        0.007       27.094        5.052        0.035      335.990        6.989      863.689
09/28/2013  03:49:00      -41.727       -7.253       -4.481        9.338        6.635        6.900       87.197       44.024       47.611        0.100        0.009       42.352        2.716        0.004      335.899        6.841      863.692
09/28/2013  03:50:00      -58.407      -13.248      -12.438       13.173       10.835        8.143      173.536      117.401       66.316        0.205        0.018       59.891        7.941        0.018      335.759        6.606      863.702
09/28/2013  03:51:00      -72.852       -5.596       -7.095       11.831        8.992        8.926      139.967       80.857       79.674        0.284        0.015       73.066        5.261        0.005      335.658        6.438      863.714
09/28/2013  03:52:00      -48.491      -12.296      -10.198       14.372       15.337       11.195      206.564      235.211      125.334        0.159        0.028       50.026        7.815        0.024      335.638        6.407      863.723
09/28/2013  03:53:00      -48.209      -15.609       -6.936        8.390       14.340        7.373       70.392      205.640       54.363        0.147        0.017       50.673        7.403        0.021      335.704        6.515      863.727
09/28/2013  03:54:00      -27.761      -10.011       -4.694        6.794        8.429        6.113       46.155       71.043       37.374        0.052        0.008       29.511        4.777        0.026      335.818        6.706      863.727
09/28/2013  03:55:00      -50.342      -13.904      -11.393       17.751       12.389        8.134      315.104      153.497       66.161        0.170        0.027       52.226        7.137        0.019      335.752        6.597      863.731
09/28/2013  03:56:00      -71.207      -11.956       -8.126       13.147       18.064        9.780      172.855      326.325       95.656        0.294        0.030       72.203        7.805        0.012      335.672        6.462      863.744
09/28/2013  03:57:00      -67.810      -30.981       -7.818       15.604       14.896       16.576      243.477      221.893      274.770        0.318        0.037       74.552        4.383        0.003      335.573        6.297      863.765
09/28/2013  03:58:00      -47.631      -14.098       -6.615       14.188       16.198       11.906      201.300      262.374      141.744        0.156        0.030       49.673        6.570        0.017      335.557        6.270      863.787
09/28/2013  03:59:00      -51.262       -6.476       -8.964       13.849       13.470       12.568      191.801      181.430      157.955        0.164        0.027       51.670        9.728        0.035      335.511        6.194      863.789
09/28/2013  04:00:00      -47.128      -30.589       -4.377       18.064       13.337       14.095      326.299      177.872      198.662        0.194        0.035       56.185       12.662        0.051      335.580        6.309      863.766
09/28/2013  04:01:00      -22.301      -21.644       -7.849       16.975       14.029       10.371      288.162      196.811      107.567        0.081        0.030       31.077        4.974        0.026      335.553        6.265      863.732
09/28/2013  04:02:00      -31.642      -23.157       -5.340       11.465       13.432        9.350      131.452      180.417       87.415        0.098        0.020       39.210        3.943        0.010      335.597        6.337      863.679
09/28/2013  04:03:00      -23.076      -14.582       -2.712        9.157        8.158        7.403       83.848       66.553       54.809        0.048        0.010       27.297        6.816        0.062      335.696        6.502      863.612
09/28/2013  04:04:00      -25.852      -10.044       -9.482        4.634        6.386        4.670       21.476       40.780       21.805        0.047        0.004       27.734        1.387        0.003      335.865        6.784      863.566
09/28/2013  04:05:00      -52.655      -16.315       -7.788       22.063       10.012        7.455      486.795      100.234       55.583        0.187        0.032       55.124        6.301        0.013      335.809        6.692      863.557
09/28/2013  04:06:00      -74.018      -25.634      -11.945        9.751       10.719        9.327       95.073      114.892       87.002        0.329        0.015       78.331        6.119        0.006      335.620        6.375      863.564
09/28/2013  04:07:00      -92.858       -2.187      -15.299       12.446       10.935        8.385      154.911      119.575       70.316        0.460        0.017       92.884        7.019        0.006      335.591        6.327      863.584
09/28/2013  04:08:00      -77.269        6.945      -17.730       15.123        9.615        8.258      228.692       92.455       68.192        0.336        0.019       77.581        5.748        0.005      335.605        6.349      863.599
09/28/2013  04:09:00      -47.711       15.105       -6.939       12.431        9.526       12.470      154.536       90.749      155.494        0.148        0.020       50.045        9.729        0.038      335.704        6.516      863.620
09/28/2013  04:10:00      -52.451       28.422      -11.749       11.247       15.813        9.109      126.497      250.053       82.973        0.208        0.023       59.656        8.227        0.019      335.882        6.812      863.634
09/28/2013  04:11:00      -50.181       -5.134      -11.208        9.822       17.098        6.773       96.476      292.331       45.880        0.155        0.022       50.443        4.804        0.009      335.824        6.715      863.637
09/28/2013  04:12:00      -54.051      -25.201      -13.014       25.238       18.291       10.378      636.933      334.548      107.704        0.240        0.054       59.637        6.941        0.014      335.692        6.496      863.624
09/28/2013  04:13:00      -82.586       -9.074      -11.834       21.637       19.699       15.291      468.145      388.058      233.801        0.407        0.055       83.083       13.537        0.027      335.680        6.476      863.606
09/28/2013  04:14:00      -72.414      -25.636       -4.802       10.756       13.865        7.884      115.690      192.232       62.158        0.315        0.019       76.818        5.206        0.005      335.622        6.379      863.601
09/28/2013  04:15:00      -88.720      -37.162      -15.867       15.562       12.522       10.365      242.182      156.806      107.428        0.501        0.025       96.189        7.955        0.007      335.503        6.179      863.596
09/28/2013  04:16:00     -107.546      -47.258      -15.730       11.852       17.527       10.018      140.467      307.194      100.357        0.730        0.027      117.471        6.544        0.003      335.437        6.070      863.613
09/28/2013  04:17:00     -111.747      -46.604      -14.173       31.064       31.982       13.623      964.941     1022.830      185.583        0.852        0.109      121.075        6.233        0.003      335.400        6.007      863.621
09/28/2013  04:18:00     -109.989       -9.728       -7.449       34.953       29.820       19.794     1221.724      889.242      391.788        0.737        0.125      110.418       14.551        0.017      335.302        5.846      863.619
09/28/2013  04:19:00        9.360      -12.389       13.948       28.270       20.771       16.361      799.194      431.449      267.686        0.097        0.075       15.527       15.858        1.043      335.369        5.956      863.593
09/28/2013  04:20:00       -0.237      -20.188        5.121       14.167       14.798        9.799      200.718      218.977       96.027        0.047        0.026       20.189        8.027        0.158      335.455        6.100      863.563
09/28/2013  04:21:00      -14.920      -13.068       -4.121       13.180        9.945        5.117      173.719       98.894       26.188        0.035        0.015       19.834        5.161        0.068      335.528        6.220      863.541
09/28/2013  04:22:00      -33.855      -16.831       -5.103       18.676       13.748        9.627      348.799      188.997       92.670        0.104        0.032       37.808        6.433        0.029      335.542        6.244      863.523
09/28/2013  04:23:00      -50.798      -27.136       -6.684       19.258       18.001       12.705      370.856      324.021      161.416        0.211        0.043       57.592        6.618        0.013      335.529        6.223      863.514
09/28/2013  04:24:00      -42.822      -31.234       -3.933       20.127       17.800       13.351      405.104      316.835      178.244        0.186        0.045       53.003        3.560        0.005      335.498        6.172      863.512
09/28/2013  04:25:00      -54.877      -20.487       -8.042       18.256       16.528       11.876      333.272      273.176      141.046        0.212        0.037       58.576       10.508        0.032      335.533        6.229      863.538
09/28/2013  04:26:00      -67.263      -15.411       -8.388        8.283       12.059        6.410       68.600      145.430       41.094        0.254        0.013       69.006        2.827        0.002      335.478        6.138      863.569
09/28/2013  04:27:00      -84.013      -27.942      -13.869       13.817       13.900       10.047      190.920      193.199      100.942        0.426        0.024       88.538        8.336        0.009      335.469        6.123      863.601
09/28/2013  04:28:00     -111.790      -30.358      -12.812       16.817       19.552       11.397      282.808      382.288      129.885        0.719        0.040      115.839        7.696        0.004      335.435        6.066      863.626
09/28/2013  04:29:00     -127.685      -58.026      -10.665       23.679       27.561       15.101      560.678      759.591      228.027        1.067        0.077      140.251       10.603        0.006      335.357        5.937      863.648
09/28/2013  04:30:00      -95.451      -46.888       -1.066       56.886       25.585       22.372     3235.972      654.581      500.489        0.785        0.220      106.345       29.123        0.075      335.368        5.954      863.666
09/28/2013  04:31:00     -107.222      -25.908       -5.098       51.288       30.901       24.934     2630.414      954.853      621.721        0.820        0.210      110.308       23.578        0.046      335.414        6.031      863.674
09/28/2013  04:32:00     -113.443      -13.130       -9.255       45.582       25.974       19.815     2077.711      674.644      392.628        0.814        0.157      114.200       22.190        0.038      335.346        5.917      863.670
09/28/2013  04:33:00      -98.125      -23.157       -1.935       41.478       39.108       21.798     1720.389     1529.425      475.154        0.695        0.186      100.820       23.738        0.055      335.333        5.896      863.673
09/28/2013  04:34:00      -90.259      -28.262       -8.545       50.932       30.127       16.921     2594.092      907.616      286.325        0.640        0.189       94.581       15.013        0.025      335.428        6.054      863.689
09/28/2013  04:35:00      -51.826      -22.883        0.083       32.022       28.867       19.936     1025.384      833.297      397.427        0.273        0.113       56.653       18.296        0.104      335.378        5.970      863.702
09/28/2013  04:36:00      -88.193      -28.849       -7.302       26.073       30.233       15.209      679.806      914.039      231.303        0.524        0.091       92.791       11.339        0.015      335.394        5.998      863.710
09/28/2013  04:37:00      -77.619      -38.429       -3.489       33.379       31.162       19.177     1114.143      971.039      367.756        0.498        0.123       86.611       14.260        0.027      335.412        6.028      863.696
09/28/2013  04:38:00     -114.895      -39.686      -13.389       26.360       28.882       13.504      694.852      834.190      182.348        0.833        0.086      121.556        9.964        0.007      335.477        6.137      863.681
09/28/2013  04:39:00     -102.425      -32.444       -7.200       38.201       24.755       16.089     1459.286      612.800      258.856        0.696        0.117      107.440       15.371        0.020      335.357        5.937      863.670
09/28/2013  04:40:00      -79.497      -20.130      -10.083       41.658       33.360       19.569     1735.406     1112.883      382.926        0.503        0.162       82.006       18.824        0.053      335.311        5.859      863.670
09/28/2013  04:41:00     -100.817      -23.366      -10.862       31.826       40.895       18.871     1012.907     1672.361      356.109        0.693        0.152      103.490        6.953        0.005      335.322        5.878      863.664
09/28/2013  04:42:00      -89.619      -27.924       -8.774       28.414       25.969       17.310      807.371      674.378      299.624        0.533        0.089       93.868       13.459        0.021      335.370        5.959      863.660
09/28/2013  04:43:00      -60.821      -44.829        5.572       28.341       38.794       24.883      803.236     1504.957      619.143        0.433        0.146       75.557       17.484        0.054      335.412        6.027      863.653
09/28/2013  04:44:00      -89.833      -30.700       -0.266       46.960       28.428       23.084     2205.284      808.176      532.863        0.628        0.177       94.934       24.699        0.068      335.375        5.966      863.632
09/28/2013  04:45:00     -101.231      -35.362       -2.783       39.515       26.935       23.333     1561.462      725.476      544.449        0.717        0.142      107.229       23.833        0.049      335.371        5.959      863.606
09/28/2013  04:46:00      -36.361       -8.895        4.318       18.320       18.993       12.582      335.633      360.733      158.300        0.114        0.043       37.433       10.425        0.078      335.358        5.937      863.585
09/28/2013  04:47:00      -51.542      -17.705       -2.856       22.259       23.133       11.842      495.444      535.125      140.222        0.207        0.059       54.498       11.223        0.042      335.427        6.053      863.586
09/28/2013  04:48:00     -110.615      -20.773      -10.792       19.191       15.370       11.510      368.297      236.229      132.476        0.676        0.037      112.549        7.341        0.004      335.475        6.134      863.607
09/28/2013  04:49:00     -107.964      -23.385      -11.262       16.830       14.825       12.561      283.263      219.787      157.773        0.650        0.033      110.468       10.663        0.009      335.437        6.069      863.620
09/28/2013  04:50:00      -90.733      -38.444       -0.968       22.738       21.495       15.320      517.009      462.018      234.713        0.546        0.061       98.542       12.111        0.015      335.444        6.081      863.624
09/28/2013  04:51:00     -117.712      -32.906      -14.085       21.727       20.794       14.018      472.048      432.380      196.513        0.812        0.055      122.225       12.474        0.010      335.506        6.185      863.639
09/28/2013  04:52:00     -126.493      -53.008      -13.094       17.687       15.261       14.286      312.837      232.892      204.090        0.987        0.037      137.151        9.580        0.005      335.452        6.095      863.654
09/28/2013  04:53:00     -134.598      -60.636      -12.151       21.089       27.483       11.659      444.760      755.308      135.930        1.164        0.067      147.625        7.504        0.003      335.431        6.060      863.673
09/28/2013  04:54:00     -123.182      -34.074       -7.662       19.034       20.899       14.207      362.278      436.764      201.835        0.870        0.050      127.807       12.818        0.010      335.444        6.082      863.691
09/28/2013  04:55:00      -76.031      -49.614       -4.881       27.337       22.119       13.023      747.321      489.258      169.593        0.484        0.070       90.787       11.712        0.017      335.366        5.951      863.704
09/28/2013  04:56:00      -58.643      -30.166       -2.430       18.389       25.956       11.777      338.154      673.720      138.702        0.275        0.058       65.946       12.186        0.034      335.386        5.985      863.704
09/28/2013  04:57:00      -75.264      -30.304      -14.388       24.536       23.348       13.639      602.032      545.141      186.034        0.406        0.067       81.135       13.610        0.028      335.379        5.972      863.701
09/28/2013  04:58:00     -101.300      -26.404      -17.645       19.622       18.693       12.479      385.033      349.418      155.733        0.608        0.045      104.684       10.721        0.010      335.362        5.945      863.693
09/28/2013  04:59:00      -76.901      -21.430      -10.273       17.503       18.059       15.559      306.357      326.129      242.076        0.368        0.044       79.831       13.085        0.027      335.313        5.864      863.698
09/28/2013  05:00:00      -88.134      -49.200      -12.430       18.645       12.206        9.921      347.634      148.988       98.434        0.547        0.030      100.937        6.847        0.005      335.351        5.926      863.695
09/28/2013  05:01:00      -94.960      -43.352      -15.213        9.031        9.046        6.416       81.562       81.836       41.171        0.567        0.010      104.387        4.889        0.002      335.321        5.874      863.693
09/28/2013  05:02:00      -93.965      -23.342      -14.039       14.225        8.548        6.074      202.347       73.064       36.890        0.494        0.016       96.821        4.710        0.002      335.301        5.844      863.693
09/28/2013  05:03:00      -56.081      -31.941      -10.006       17.725       25.563       17.768      314.169      653.445      315.686        0.277        0.064       64.539        7.378        0.013      335.307        5.852      863.697
09/28/2013  05:04:00      -62.159       -3.114      -10.965       15.176       25.919       12.769      230.302      671.811      163.037        0.253        0.053       62.237       11.618        0.035      335.251        5.760      863.697
09/28/2013  05:05:00      -60.285      -16.244       -9.574       14.774       15.510       13.282      218.276      240.553      176.405        0.231        0.032       62.435        8.182        0.017      335.382        5.977      863.690
09/28/2013  05:06:00      -42.098      -26.386       -4.360       15.509       20.494       12.116      240.543      420.011      146.786        0.165        0.040       49.683        7.217        0.021      335.337        5.903      863.699
09/28/2013  05:07:00      -36.912      -34.057       -9.717       19.920       17.319       11.539      396.794      299.935      133.149        0.172        0.041       50.224        7.933        0.025      335.393        5.996      863.712
09/28/2013  05:08:00      -48.058      -29.125       -7.079        9.789       16.338       11.645       95.818      266.919      135.596        0.185        0.025       56.195        7.653        0.019      335.386        5.984      863.725
09/28/2013  05:09:00      -51.627      -26.426        0.553       20.300       13.417       14.486      412.074      180.012      209.851        0.208        0.040       57.997        8.624        0.022      335.324        5.881      863.714
09/28/2013  05:10:00      -75.254      -23.653      -11.159       17.468       15.846        8.407      305.132      251.090       70.683        0.349        0.031       78.883        6.083        0.006      335.283        5.812      863.694
09/28/2013  05:11:00      -76.787      -24.935       -9.120       11.522       14.813       10.925      132.763      219.430      119.354        0.354        0.024       80.734        9.377        0.013      335.282        5.811      863.664
09/28/2013  05:12:00      -79.567      -35.486       -5.754       12.831       14.474        9.500      164.636      209.488       90.241        0.404        0.023       87.122        6.540        0.006      335.341        5.910      863.662
09/28/2013  05:13:00      -86.624      -26.641      -21.338        8.786       10.077        9.212       77.188      101.543       84.860        0.447        0.013       90.628        3.625        0.002      335.272        5.793      863.678
09/28/2013  05:14:00      -88.106      -27.521      -15.755       11.085       10.882        9.541      122.888      118.419       91.040        0.455        0.017       92.304        5.989        0.004      335.242        5.744      863.715
09/28/2013  05:15:00      -99.496      -37.311      -10.694        9.904       12.743        6.138       98.093      162.383       37.674        0.585        0.015      106.262        4.991        0.002      335.271        5.792      863.730
09/28/2013  05:16:00      -93.538      -41.246       -8.971        9.463       10.067        7.100       89.549      101.337       50.416        0.539        0.012      102.228        4.279        0.002      335.331        5.893      863.732
09/28/2013  05:17:00      -84.862      -29.431       -8.700       15.918       17.473       12.304      253.368      305.298      151.385        0.443        0.036       89.820        9.142        0.010      335.315        5.866      863.723
09/28/2013  05:18:00      -96.680      -19.228      -16.858        6.823        9.420        9.021       46.553       88.727       81.377        0.511        0.011       98.574        2.013        0.000      335.300        5.842      863.705
09/28/2013  05:19:00      -82.941      -21.629      -10.840       14.289        9.999        8.487      204.188       99.985       72.026        0.392        0.019       85.714        3.305        0.001      335.321        5.878      863.686
09/28/2013  05:20:00      -84.344      -18.911       -9.390       14.755       10.359        8.840      217.698      107.306       78.142        0.398        0.020       86.438        6.805        0.006      335.317        5.869      863.664
09/28/2013  05:21:00     -100.018      -38.681       -9.637       12.134       15.626        8.794      147.232      244.164       77.328        0.603        0.023      107.237        4.897        0.002      335.315        5.867      863.647
09/28/2013  05:22:00      -71.187      -36.718        0.228       16.532       14.141       10.645      273.291      199.970      113.314        0.350        0.029       80.099        9.399        0.014      335.341        5.908      863.622
09/28/2013  05:23:00      -57.553      -33.696       -1.362       15.355       13.375        9.036      235.768      178.880       81.655        0.247        0.025       66.692        6.916        0.011      335.383        5.979      863.582
09/28/2013  05:24:00      -58.753      -24.946       -2.494       21.272       12.704       11.888      452.503      161.389      141.334        0.242        0.038       63.830       11.822        0.034      335.352        5.928      863.565
09/28/2013  05:25:00      -98.174      -28.826      -11.835       12.670       12.730        6.794      160.532      162.052       46.152        0.549        0.018      102.318        3.850        0.001      335.338        5.905      863.553
09/28/2013  05:26:00     -115.660      -31.420       -9.857       13.227       13.933        8.939      174.941      194.138       79.900        0.746        0.022      119.852        5.191        0.002      335.274        5.797      863.569
09/28/2013  05:27:00      -99.148      -28.098       -4.694       24.289       18.445       15.072      589.972      340.226      227.151        0.590        0.058      103.052       13.627        0.017      335.168        5.624      863.593
09/28/2013  05:28:00      -99.254      -42.808       -5.715       15.462       12.706        8.815      239.070      161.439       77.712        0.610        0.024      108.092        5.184        0.002      335.111        5.530      863.610
09/28/2013  05:29:00      -83.401      -30.130       -1.240       17.397       10.925       11.090      302.649      119.345      122.997        0.420        0.027       88.676        9.656        0.012      335.078        5.474      863.613
09/28/2013  05:30:00      -90.080      -39.970       -8.586        4.897        6.777        5.038       23.980       45.928       25.385        0.494        0.005       98.550        3.382        0.001      335.266        5.785      863.617
09/28/2013  05:31:00     -104.282      -22.339       -9.530       13.339       14.491        8.231      177.941      210.003       67.752        0.596        0.023      106.648        6.973        0.004      335.214        5.698      863.631
09/28/2013  05:32:00      -86.120      -28.004      -14.162       16.582       15.136       11.970      274.965      229.101      143.288        0.452        0.032       90.559        7.847        0.008      335.149        5.591      863.649
09/28/2013  05:33:00      -85.785      -37.038       -4.173       13.215       14.308        9.952      174.635      204.729       99.045        0.461        0.024       93.439        5.786        0.004      335.125        5.551      863.674
09/28/2013  05:34:00      -82.469      -29.190       -7.124       11.060        9.303        7.095      122.322       86.550       50.338        0.398        0.013       87.483        5.528        0.004      335.081        5.481      863.697
09/28/2013  05:35:00      -70.130      -25.600       -5.945       11.588        8.455        7.907      134.291       71.492       62.513        0.294        0.013       74.656        6.214        0.007      335.110        5.526      863.711
09/28/2013  05:36:00      -73.934      -28.373       -1.243       13.301       12.899        8.251      176.928      166.384       68.077        0.334        0.021       79.191        5.315        0.005      335.164        5.616      863.730
09/28/2013  05:37:00      -73.155      -22.833        2.004       15.364       21.244        8.643      236.056      451.313       74.702        0.332        0.038       76.635        4.242        0.003      335.203        5.679      863.742
09/28/2013  05:38:00      -27.435      -20.935        0.155       15.281        8.681       10.176      233.524       75.365      103.551        0.080        0.021       34.511        5.073        0.022      335.255        5.765      863.753
09/28/2013  05:39:00      -30.626        2.531       -4.908       13.441       11.732        9.025      180.649      137.647       81.458        0.068        0.020       30.730        6.366        0.043      335.161        5.611      863.760
09/28/2013  05:40:00      -51.710       -1.790       -2.910       15.787       16.954       10.830      249.238      287.429      117.282        0.167        0.033       51.741        9.566        0.034      335.155        5.602      863.754
09/28/2013  05:41:00      -77.061        1.004      -12.526       12.279        8.933        6.909      150.774       79.807       47.734        0.319        0.014       77.067        3.900        0.003      335.124        5.550      863.751
09/28/2013  05:42:00      -82.171       -7.525      -13.619        8.971        9.613        7.798       80.483       92.403       60.817        0.361        0.012       82.515        3.839        0.002      335.163        5.614      863.751
09/28/2013  05:43:00      -82.209      -11.066       -9.662       11.593       10.779        8.019      134.404      116.189       64.300        0.364        0.016       82.950        2.536        0.001      335.150        5.593      863.751
09/28/2013  05:44:00      -80.013       -6.412       -9.853       19.153       10.763        8.836      366.824      115.852       78.067        0.355        0.028       80.269        8.780        0.012      335.108        5.523      863.747
09/28/2013  05:45:00      -91.286      -27.926      -16.837       11.149       10.100        6.724      124.290      102.006       45.206        0.483        0.014       95.462        4.252        0.002      335.099        5.507      863.736
09/28/2013  05:46:00     -111.878      -24.090      -16.084       14.338       12.823        9.757      205.578      164.422       95.208        0.691        0.023      114.442        8.716        0.006      335.121        5.544      863.722
09/28/2013  05:47:00      -90.994      -20.045      -11.104       20.280       14.558       12.033      411.264      211.935      144.784        0.479        0.038       93.176       11.294        0.015      335.075        5.470      863.710
09/28/2013  05:48:00      -51.156       -6.239       -8.482       15.072       12.177        7.428      227.163      148.285       55.172        0.158        0.022       51.535        6.444        0.016      335.037        5.406      863.719
09/28/2013  05:49:00      -23.504      -14.703       -1.152       11.799        7.007        5.433      139.210       49.094       29.518        0.049        0.011       27.724        1.643        0.004      335.037        5.406      863.726
09/28/2013  05:50:00       -6.562      -29.986       -5.486       11.827       15.686       10.282      139.878      246.066      105.723        0.073        0.025       30.696        7.022        0.052      335.199        5.675      863.742
09/28/2013  05:51:00      -18.356      -25.380       -7.503       18.387       17.190        6.587      338.067      295.490       43.390        0.086        0.034       31.323        6.786        0.047      335.201        5.676      863.764
09/28/2013  05:52:00      -70.241       -7.393       -5.130       15.318       11.831       12.028      234.626      139.968      144.668        0.277        0.026       70.629        9.169        0.017      335.153        5.599      863.788
09/28/2013  05:53:00      -73.687       -9.128       -9.115        9.650        8.477       10.421       93.114       71.858      108.602        0.293        0.014       74.250        5.043        0.005      335.109        5.525      863.804
09/28/2013  05:54:00      -68.208      -17.599      -13.743        8.577        9.880        9.951       73.566       97.605       99.029        0.271        0.014       70.442        5.651        0.006      335.083        5.483      863.824
09/28/2013  05:55:00      -83.918      -24.172      -12.983       14.770       11.339        9.250      218.141      128.572       85.568        0.411        0.022       87.330        3.959        0.002      335.072        5.464      863.854
09/28/2013  05:56:00      -86.451      -31.994       -7.243       13.345       11.063        8.567      178.093      122.379       73.385        0.446        0.019       92.181        7.266        0.006      335.035        5.402      863.865
09/28/2013  05:57:00      -67.535      -21.154      -10.547       13.674       12.906       10.946      186.982      166.571      119.825        0.280        0.024       70.771        4.869        0.005      335.030        5.393      863.875
09/28/2013  05:58:00      -75.198        1.988       -9.723       21.066       13.628        7.322      443.793      185.729       53.607        0.322        0.034       75.224        4.002        0.003      335.017        5.373      863.876
09/28/2013  05:59:00      -76.401      -11.057      -12.292       20.008       13.847       14.025      400.334      191.733      196.689        0.345        0.039       77.197       12.725        0.027      335.043        5.415      863.881
09/28/2013  06:00:00      -85.716      -30.507      -14.125       22.267        9.987        9.572      495.836       99.736       91.629        0.458        0.034       90.983        8.511        0.009      334.988        5.325      863.900
09/28/2013  06:01:00      -75.811      -33.701      -14.709       28.431       15.896       11.835      808.304      252.681      140.077        0.415        0.060       82.964       10.224        0.015      334.940        5.244      863.934
09/28/2013  06:02:00      -20.040      -24.098       13.739       29.618       24.561       17.580      877.227      603.256      309.072        0.148        0.089       31.342       17.010        0.295      334.920        5.211      863.960
09/28/2013  06:03:00      -20.330      -27.203        0.145       15.352       21.414       12.922      235.676      458.568      166.966        0.101        0.043       33.961       12.414        0.134      334.941        5.245      863.965
09/28/2013  06:04:00      -30.819       -1.103       -4.986       17.966       12.489       10.202      322.761      155.965      104.075        0.078        0.029       30.839       11.374        0.136      334.960        5.277      863.965
09/28/2013  06:05:00      -38.722      -15.902       -7.963       10.908       16.067       10.272      118.995      258.151      105.523        0.115        0.024       41.860        8.047        0.037      335.030        5.393      863.970
09/28/2013  06:06:00      -95.850      -10.774      -15.121       23.596       11.574        9.526      556.784      133.960       90.753        0.516        0.039       96.454        9.456        0.010      334.975        5.301      863.975
09/28/2013  06:07:00     -102.631      -23.141      -16.775       10.323        9.987        7.027      106.561       99.744       49.373        0.580        0.013      105.208        4.101        0.002      334.944        5.250      863.979
09/28/2013  06:08:00      -88.818      -21.683      -13.295       13.379       12.041        7.367      178.990      144.994       54.266        0.446        0.019       91.426        5.806        0.004      334.897        5.174      863.976
09/28/2013  06:09:00      -81.448       -9.555      -16.305       15.457       13.478       11.871      238.926      181.649      140.929        0.378        0.028       82.007        5.997        0.005      334.970        5.294      863.979
09/28/2013  06:10:00      -44.180      -13.670       -4.175       10.856       18.566        9.358      117.843      344.688       87.567        0.135        0.028       46.246        8.260        0.032      334.933        5.233      863.993
09/28/2013  06:11:00      -36.803      -22.867       -1.439       16.775       14.578       13.322      281.411      212.530      177.485        0.128        0.034       43.329        7.760        0.032      334.969        5.294      864.022
09/28/2013  06:12:00      -84.266      -11.104      -13.592       18.892       15.476       12.034      356.900      239.501      144.817        0.407        0.037       84.995       11.404        0.018      334.970        5.294      864.053
09/28/2013  06:13:00      -72.691      -11.513       -9.690       15.158       13.442       11.632      229.756      180.680      135.296        0.303        0.027       73.597        9.127        0.015      334.912        5.198      864.073
09/28/2013  06:14:00      -49.836        1.199      -10.331       10.267        8.242        5.300      105.414       67.935       28.091        0.140        0.010       49.851        4.611        0.009      335.085        5.484      864.069
09/28/2013  06:15:00      -32.193        3.353       -4.745       12.800        8.163        6.983      163.839       66.630       48.761        0.067        0.014       32.367        7.090        0.048      335.215        5.700      864.050
09/28/2013  06:16:00       10.768       11.424        2.619       15.223       15.619        8.402      231.737      243.951       70.594        0.040        0.027       15.699        5.526        0.124      335.450        6.093      864.045
09/28/2013  06:17:00        0.728       14.922       -3.919       11.121       11.815        9.523      123.671      139.596       90.696        0.030        0.018       14.940        8.315        0.310      335.486        6.152      864.049
09/28/2013  06:18:00       -4.413        2.412        1.965        9.695       10.655        8.588       93.985      113.529       73.750        0.016        0.014        5.029        6.388        1.613      335.477        6.136      864.045
09/28/2013  06:19:00       -7.790        0.185        2.619       13.266       11.077        9.399      175.979      122.699       88.343        0.023        0.019        7.792        6.791        0.759      335.521        6.209      864.045
09/28/2013  06:20:00      -16.625       -5.813        0.959       11.991       10.931        9.531      143.776      119.485       90.844        0.033        0.018       17.612        8.974        0.260      335.481        6.142      864.041
09/28/2013  06:21:00       -8.275        4.471        5.273        8.662        9.535        6.228       75.038       90.908       38.788        0.016        0.010        9.405        4.010        0.182      335.419        6.039      864.045
09/28/2013  06:22:00      -17.396       13.809       -0.393       10.577       12.350        8.806      111.871      152.530       77.552        0.042        0.017       22.210        3.513        0.025      335.411        6.028      864.057
09/28/2013  06:23:00      -17.633       11.205        0.605       19.592       14.365        8.056      383.857      206.364       64.896        0.055        0.033       20.892        7.368        0.124      335.262        5.778      864.057
09/28/2013  06:24:00       16.201       29.803        0.538       13.250       22.405        7.711      175.567      501.974       59.462        0.094        0.037       33.922        6.862        0.041      335.446        6.087      864.041
09/28/2013  06:25:00       -6.091       82.287       -8.780       13.972       13.844        8.092      195.228      191.657       65.477        0.367        0.023       82.513        7.970        0.009      335.611        6.360      864.036
09/28/2013  06:26:00      -22.363       53.595       -8.228       18.937       40.244       11.165      358.601     1619.588      124.660        0.277        0.105       58.074        9.336        0.026      335.495        6.169      864.039
09/28/2013  06:27:00      -58.665      -13.394      -10.883       11.505        8.927        7.344      132.370       79.698       53.937        0.200        0.013       60.175        5.925        0.010      334.974        5.301      864.053
09/28/2013  06:28:00      -63.654      -19.184      -10.049        9.783       12.636        9.665       95.714      159.665       93.418        0.243        0.017       66.482        4.371        0.004      334.892        5.166      864.077
09/28/2013  06:29:00      -41.435      -24.811      -11.024       16.444       13.479        8.648      270.406      181.683       74.783        0.149        0.026       48.295        3.364        0.005      334.873        5.133      864.089
09/28/2013  06:30:00      -54.030      -25.406      -15.238       26.685       15.244       10.814      712.112      232.364      116.942        0.243        0.053       59.705       10.182        0.029      334.868        5.125      864.098
09/28/2013  06:31:00      -50.907      -20.286       -2.781       16.681       15.311       16.424      278.250      234.424      269.758        0.190        0.039       54.799       11.826        0.047      334.899        5.176      864.097
09/28/2013  06:32:00      -65.206       -1.820      -12.076        8.452        8.144        7.814       71.438       66.329       61.053        0.230        0.010       65.232        3.965        0.004      334.923        5.217      864.102
09/28/2013  06:33:00      -60.057        2.369       -6.351        8.799       10.554        9.866       77.426      111.381       97.328        0.197        0.014       60.103        5.623        0.009      334.959        5.274      864.095
09/28/2013  06:34:00      -52.639       -2.377       -4.760       10.686        9.024        5.461      114.189       81.433       29.827        0.151        0.011       52.693        2.439        0.002      335.004        5.351      864.097
09/28/2013  06:35:00      -56.241      -15.803      -13.285        8.861       11.536        9.489       78.526      133.074       90.049        0.195        0.015       58.419        6.036        0.011      334.964        5.286      864.104
09/28/2013  06:36:00      -59.151      -42.446       -9.567       11.835       11.103        9.253      140.061      123.266       85.615        0.287        0.017       72.805        4.375        0.004      334.925        5.221      864.123
09/28/2013  06:37:00      -66.500      -28.310      -13.864       10.718        9.336        7.160      114.880       87.170       51.267        0.283        0.013       72.275        5.499        0.006      334.898        5.174      864.133
09/28/2013  06:38:00      -64.099      -21.147       -7.422        7.945        9.021        5.272       63.130       81.371       27.792        0.239        0.009       67.497        3.873        0.003      334.958        5.274      864.123
09/28/2013  06:39:00      -50.244      -15.955       -7.635        6.204        7.388        6.350       38.489       54.579       40.319        0.149        0.007       52.716        3.572        0.005      335.066        5.457      864.113
09/28/2013  06:40:00      -50.566      -11.401       -9.124        6.973        6.641        6.209       48.628       44.109       38.552        0.145        0.007       51.836        3.598        0.005      335.061        5.445      864.113
09/28/2013  06:41:00      -62.970      -12.698       -2.539       12.205       12.796        7.905      148.958      163.747       62.488        0.225        0.019       64.238        3.934        0.004      335.029        5.392      864.134
09/28/2013  06:42:00      -67.209      -16.549       -3.170       12.860       10.040       11.462      165.382      100.800      131.381        0.260        0.020       69.217        7.334        0.011      334.993        5.331      864.159
09/28/2013  06:43:00      -80.189      -28.972       -9.745        7.776        7.667        8.114       60.464       58.779       65.844        0.377        0.009       85.262        2.492        0.001      334.978        5.309      864.182
09/28/2013  06:44:00      -50.299      -27.829       -3.487       27.557       14.487       13.721      759.394      209.863      188.268        0.224        0.058       57.484       15.410        0.072      334.935        5.237      864.204
09/28/2013  06:45:00      -57.361      -37.379       -9.704       20.235       11.650       10.287      409.443      135.712      105.819        0.272        0.033       68.465        4.243        0.004      334.950        5.262      864.210
09/28/2013  06:46:00      -80.763      -30.044       -9.781        7.626        8.742        7.347       58.152       76.415       53.972        0.385        0.009       86.170        5.005        0.003      334.887        5.158      864.198
09/28/2013  06:47:00      -92.085      -22.285       -8.567       12.580       13.848       10.847      158.266      191.761      117.648        0.476        0.023       94.743        8.682        0.008      334.909        5.193      864.190
09/28/2013  06:48:00     -101.773      -16.695      -14.813       17.059       14.406       12.167      291.026      207.536      148.033        0.575        0.032      103.133        9.168        0.008      334.883        5.150      864.189
09/28/2013  06:49:00     -105.985       -7.737      -13.087       15.273       15.195        9.554      233.270      230.893       91.271        0.601        0.028      106.267        6.617        0.004      334.847        5.090      864.198
09/28/2013  06:50:00      -72.930      -15.991       -6.763       24.692       12.129       10.464      609.713      147.123      109.501        0.324        0.043       74.663       10.331        0.019      334.832        5.066      864.211
09/28/2013  06:51:00      -59.348      -25.939       -5.150       15.030       15.411        7.935      225.903      237.484       62.970        0.237        0.026       64.769        4.926        0.006      334.970        5.295      864.211
09/28/2013  06:52:00      -45.942      -21.910       -5.466        8.672        9.180        6.417       75.208       84.266       41.184        0.141        0.010       50.899        3.461        0.005      334.991        5.328      864.215
09/28/2013  06:53:00      -43.498      -16.736       -3.617       14.300       11.708        7.957      204.504      137.069       63.318        0.129        0.020       46.606        8.139        0.030      334.977        5.305      864.216
09/28/2013  06:54:00      -47.256       -6.589       -7.356       11.047        8.683        6.902      122.039       75.390       47.644        0.129        0.012       47.714        5.086        0.011      334.935        5.235      864.218
09/28/2013  06:55:00      -58.279      -21.286       -9.282       10.351       10.057        7.271      107.150      101.144       52.867        0.210        0.013       62.044        4.486        0.005      334.920        5.212      864.222
09/28/2013  06:56:00      -81.584      -22.028       -9.097        7.731        9.659        6.451       59.771       93.298       41.614        0.371        0.010       84.506        3.927        0.002      334.945        5.252      864.237
09/28/2013  06:57:00      -71.407      -12.803       -8.126        8.204        9.832        8.461       67.313       96.665       71.586        0.278        0.012       72.546        3.681        0.003      334.948        5.257      864.262
09/28/2013  06:58:00      -42.815      -14.090       -6.673       12.621       13.005       11.139      159.294      169.121      124.088        0.126        0.023       45.074        7.754        0.030      334.915        5.203      864.277
09/28/2013  06:59:00      -52.779       -9.971       -7.592        7.059       11.163        6.906       49.835      124.613       47.699        0.158        0.011       53.713        4.262        0.006      334.926        5.222      864.290
09/28/2013  07:00:00      -73.187      -12.772      -12.245       18.678       17.273        8.854      348.860      298.349       78.390        0.320        0.036       74.293        5.709        0.006      334.900        5.179      864.299
09/28/2013  07:01:00      -87.897      -18.406       -9.517       14.865       12.445       12.097      220.982      154.867      146.338        0.434        0.026       89.804        8.512        0.009      334.854        5.100      864.311
09/28/2013  07:02:00      -89.161      -20.539      -12.391       22.345       13.683        9.615      499.311      187.229       92.447        0.465        0.039       91.496        8.412        0.008      334.857        5.107      864.328
09/28/2013  07:03:00      -72.302      -17.558       -2.761       19.004       10.072        9.964      361.138      101.453       99.289        0.305        0.028       74.403       11.059        0.022      334.815        5.037      864.330
09/28/2013  07:04:00      -70.926      -22.581      -13.072        6.721        7.707        6.810       45.178       59.402       46.376        0.293        0.008       74.434        4.561        0.004      334.858        5.108      864.337
09/28/2013  07:05:00      -63.612      -14.365      -12.093        9.832        7.737        5.745       96.663       59.856       33.001        0.229        0.009       65.213        3.083        0.002      334.902        5.181      864.339
09/28/2013  07:06:00      -45.070       -2.391       -8.792        5.608        5.918        4.356       31.447       35.017       18.976        0.110        0.004       45.134        1.754        0.002      334.910        5.195      864.334
09/28/2013  07:07:00      -44.951        4.395      -11.371        6.231        6.318        5.216       38.830       39.920       27.202        0.114        0.005       45.165        3.075        0.005      335.001        5.345      864.326
09/28/2013  07:08:00      -48.567       -8.330       -8.299       11.065       10.126        7.265      122.444      102.535       52.774        0.139        0.014       49.276        4.207        0.007      334.983        5.316      864.326
09/28/2013  07:09:00      -49.284      -10.940       -7.005        5.758        6.437        5.950       33.160       41.430       35.399        0.135        0.005       50.484        3.185        0.004      334.938        5.242      864.333
09/28/2013  07:10:00      -42.771       -8.014       -6.835        6.947        4.332        3.922       48.254       18.769       15.381        0.101        0.004       43.515        3.496        0.006      335.097        5.506      864.333
09/28/2013  07:11:00      -25.046       -9.652       -5.434        9.891        8.579        4.512       97.832       73.605       20.360        0.047        0.010       26.841        4.226        0.025      335.334        5.897      864.342
09/28/2013  07:12:00      -56.220      -17.560       -5.384       24.123       10.808        8.298      581.897      116.821       68.853        0.213        0.038       58.899       10.490        0.032      335.096        5.502      864.364
09/28/2013  07:13:00      -90.242      -26.314      -12.223        9.082        9.861        7.498       82.481       97.243       56.226        0.461        0.012       94.000        3.980        0.002      334.900        5.177      864.374
09/28/2013  07:14:00      -92.165      -19.996      -14.652       10.568       12.591        8.026      111.680      158.533       64.416        0.472        0.017       94.309        4.210        0.002      334.915        5.202      864.378
09/28/2013  07:15:00     -108.254      -16.929      -12.681       14.972        9.463        8.726      224.154       89.553       76.150        0.628        0.019      109.569        7.066        0.004      334.977        5.306      864.385
09/28/2013  07:16:00     -119.017      -24.134      -16.014        9.338       10.571        6.075       87.192      111.755       36.900        0.762        0.012      121.439        3.019        0.001      334.932        5.230      864.397
09/28/2013  07:17:00      -85.091      -48.638      -13.444       18.347       18.063        9.837      336.631      326.271       96.773        0.527        0.038       98.011        7.168        0.005      334.869        5.127      864.414
09/28/2013  07:18:00      -37.445      -31.846       -0.540       19.687       22.283       16.001      387.572      496.546      256.047        0.178        0.057       49.156       11.744        0.057      334.860        5.110      864.424
09/28/2013  07:19:00      -61.784      -14.248       -5.533       18.155       12.345       10.691      329.590      152.400      114.295        0.232        0.030       63.406        7.716        0.015      334.827        5.056      864.415
09/28/2013  07:20:00      -29.503       -7.321       -2.500        7.805        6.075        6.585       60.912       36.900       43.359        0.054        0.007       30.398        5.109        0.028      335.106        5.520      864.417
09/28/2013  07:21:00      -25.627       -3.822       -5.087        4.995        6.152        5.122       24.951       37.842       26.237        0.039        0.004       25.910        3.280        0.016      335.150        5.591      864.426
09/28/2013  07:22:00      -12.760       -4.818       -0.047        7.700        5.116        5.245       59.291       26.169       27.508        0.015        0.006       13.640        3.767        0.076      335.164        5.617      864.430
09/28/2013  07:23:00        0.027       -9.833        1.954        3.994        7.265        5.661       15.952       52.779       32.045        0.010        0.005        9.833        2.476        0.063      335.184        5.648      864.448
09/28/2013  07:24:00      -39.451      -14.463       -0.145       19.292        7.855        8.703      372.166       61.697       75.748        0.114        0.025       42.018       10.671        0.064      335.107        5.524      864.470
09/28/2013  07:25:00      -65.256      -17.702       -8.557       11.499       11.098        8.001      132.221      123.165       64.018        0.248        0.016       67.614        5.070        0.006      335.104        5.518      864.501
09/28/2013  07:26:00      -91.793      -18.196      -12.623       15.568       15.234       10.557      242.352      232.079      111.450        0.475        0.029       93.580        7.070        0.006      335.005        5.350      864.515
09/28/2013  07:27:00      -88.930      -14.890      -15.968       19.078       13.822       10.235      363.962      191.051      104.756        0.452        0.033       90.168        3.853        0.002      334.988        5.324      864.505
09/28/2013  07:28:00      -67.452      -10.431       -5.288       22.762       19.822       16.337      518.091      392.893      266.895        0.293        0.059       68.253        6.725        0.010      334.977        5.307      864.496
09/28/2013  07:29:00      -69.038       -1.150       -8.015       26.276       14.565       11.371      690.405      212.139      129.299        0.293        0.052       69.047       12.326        0.032      334.964        5.286      864.478
09/28/2013  07:30:00      -35.701      -10.226       -3.137       13.542        8.032        9.929      183.386       64.511       98.592        0.087        0.017       37.137       10.520        0.080      335.011        5.359      864.458
09/28/2013  07:31:00      -48.583      -11.701      -12.098        9.431       11.782        6.908       88.946      138.822       47.718        0.146        0.014       49.972        3.333        0.004      335.085        5.486      864.456
09/28/2013  07:32:00      -62.916      -14.549      -14.286        7.188       10.931        7.469       51.670      119.485       55.780        0.230        0.011       64.577        5.693        0.008      335.064        5.451      864.461
09/28/2013  07:33:00      -50.388      -14.760       -9.675       15.084        9.377        8.181      227.532       87.925       66.927        0.162        0.019       52.505        6.994        0.018      335.097        5.507      864.453
09/28/2013  07:34:00      -67.866      -15.184       -8.868       24.792       16.263        9.236      614.631      264.499       85.306        0.294        0.048       69.544        9.996        0.021      335.130        5.560      864.434
09/28/2013  07:35:00      -64.762      -21.702       -8.783       21.269       16.737        9.744      452.353      280.124       94.948        0.278        0.041       68.301        6.760        0.010      335.150        5.594      864.432
09/28/2013  07:36:00      -58.459      -28.273       -3.069       29.021       23.362       13.554      842.200      545.774      183.722        0.290        0.079       64.937        9.397        0.021      335.174        5.631      864.437
09/28/2013  07:37:00       -6.611      -13.578       -7.084       13.721       14.535       10.773      188.261      211.277      116.054        0.040        0.026       15.102        7.144        0.224      335.276        5.801      864.433
09/28/2013  07:38:00      -13.454      -15.244       -2.672       22.223       13.628       11.762      493.854      185.723      138.342        0.062        0.041       20.332       12.791        0.396      335.443        6.080      864.442
09/28/2013  07:39:00      -22.806      -15.230       -0.343       25.961       12.290        8.723      673.954      151.036       76.083        0.083        0.045       27.424        7.287        0.071      335.493        6.162      864.457
09/28/2013  07:40:00      -66.193      -29.158       -5.022       17.875       18.573       12.976      319.531      344.957      168.379        0.304        0.042       72.330        8.774        0.015      335.366        5.952      864.469
09/28/2013  07:41:00      -77.365      -27.943       -4.255       28.832       18.504       13.725      831.293      342.387      188.377        0.407        0.068       82.256       12.204        0.022      335.393        5.997      864.484
09/28/2013  07:42:00      -73.731      -23.855       -4.856       25.516       29.267       13.371      651.092      856.529      178.786        0.386        0.084       77.494        9.463        0.015      335.352        5.929      864.502
09/28/2013  07:43:00      -81.735      -25.536       -2.660       35.833       34.730       15.139     1284.033     1206.201      229.192        0.503        0.136       85.631       12.730        0.022      335.421        6.043      864.501
09/28/2013  07:44:00      -96.630        1.285       -5.118       39.913       20.006       21.738     1593.010      400.228      472.535        0.592        0.123       96.639       22.556        0.054      335.370        5.957      864.513
09/28/2013  07:45:00      -88.318       -3.256      -11.165       17.143       17.369       11.324      293.893      301.680      128.236        0.433        0.036       88.378        4.924        0.003      335.404        6.016      864.517
09/28/2013  07:46:00      -70.212       -4.477       -2.942       18.771       16.472       10.446      352.360      271.317      109.110        0.285        0.037       70.354        6.263        0.008      335.492        6.161      864.517
09/28/2013  07:47:00      -50.838       -7.751        0.466       24.358       12.515       11.153      593.329      156.633      124.397        0.176        0.044       51.425       12.401        0.058      335.610        6.358      864.506
09/28/2013  07:48:00      -77.891       -6.738       -8.648       21.069       17.509        9.804      443.910      306.568       96.118        0.352        0.042       78.182        5.644        0.005      335.642        6.412      864.516
09/28/2013  07:49:00      -60.863      -22.395       -2.953       27.273       20.985       12.336      743.826      440.357      152.185        0.278        0.067       64.853       12.613        0.038      335.655        6.433      864.516
09/28/2013  07:50:00      -85.706      -38.837       -1.545       20.854       24.916       18.933      434.880      620.801      358.467        0.513        0.071       94.094       13.679        0.021      335.678        6.472      864.524
09/28/2013  07:51:00      -82.598      -34.262       -2.007       21.439       17.084       12.124      459.640      291.866      147.001        0.445        0.045       89.422        4.944        0.003      335.757        6.605      864.519
09/28/2013  07:52:00      -69.457      -34.410        0.421       30.051       26.725       14.771      903.065      714.240      218.192        0.392        0.092       77.513       14.209        0.034      335.755        6.599      864.525
09/28/2013  07:53:00      -57.468      -32.567       -5.747       19.529       15.848       12.977      381.373      251.154      168.403        0.260        0.040       66.054       11.652        0.031      335.823        6.714      864.520
09/28/2013  07:54:00      -39.153      -31.010       -4.434       23.087       10.507        9.569      533.007      110.400       91.560        0.162        0.037       49.946        7.339        0.022      335.902        6.843      864.524
09/28/2013  07:55:00      -28.838      -18.165       -1.485       13.430       10.109        7.444      180.366      102.189       55.406        0.075        0.017       34.082        7.096        0.043      335.914        6.864      864.533
09/28/2013  07:56:00      -49.118      -18.969        0.623       14.089       18.979       11.535      198.491      360.192      133.052        0.173        0.035       52.654        6.646        0.016      335.966        6.951      864.554
09/28/2013  07:57:00      -69.255      -39.125        3.812       24.920       17.541       11.799      620.999      307.673      139.223        0.370        0.053       79.542       13.712        0.030      335.972        6.962      864.578
09/28/2013  07:58:00      -59.352      -50.432       -4.831       15.114       10.238       11.003      228.429      104.820      121.058        0.327        0.023       77.885        4.557        0.003      336.000        7.010      864.593
09/28/2013  07:59:00       -4.071      -19.963        5.628       15.732       14.764       15.756      247.486      217.964      248.255        0.058        0.036       20.374        8.079        0.157      336.187        7.319      864.606
09/28/2013  08:00:00      -13.479      -22.595        6.453       17.952       16.216       12.643      322.262      262.972      159.854        0.074        0.037       26.310       10.412        0.157      336.203        7.348      864.597
09/28/2013  08:01:00      -20.088      -29.652       -1.824       19.258       18.926       13.351      370.888      358.211      178.261        0.110        0.045       35.816       12.748        0.127      336.118        7.205      864.590
09/28/2013  08:02:00       -9.936       -9.815        1.615        7.531        7.740        5.573       56.711       59.901       31.057        0.017        0.007       13.966        5.766        0.170      336.225        7.384      864.574
09/28/2013  08:03:00       -1.432       10.063       17.192        7.078        8.423        8.123       50.104       70.942       65.985        0.029        0.009       10.165        4.942        0.236      336.477        7.804      864.575
09/28/2013  08:04:00      -12.597        8.470       14.753        7.847        9.667       11.085       61.572       93.451      122.872        0.036        0.014       15.180        6.748        0.198      336.448        7.756      864.568
09/28/2013  08:05:00      -18.453        3.560       13.218       17.998       11.302       13.780      323.937      127.724      189.879        0.058        0.032       18.793        8.348        0.197      336.439        7.741      864.562
09/28/2013  08:06:00      -16.800       -1.217        9.593       12.957       13.770       12.127      167.887      189.610      147.054        0.044        0.025       16.844       10.329        0.376      336.475        7.801      864.577
09/28/2013  08:07:00        1.600        2.534       -1.544       15.814       11.453       14.689      250.086      131.163      215.755        0.030        0.030        2.996        4.600        2.357      336.463        7.783      864.588
09/28/2013  08:08:00       -2.544       20.747       40.605        9.184       20.255       18.448       84.348      410.263      340.339        0.146        0.042       20.903       15.590        0.556      336.561        7.946      864.604
09/28/2013  08:09:00       -2.323       39.665       54.892       15.734       21.458       16.552      247.546      460.441      273.985        0.279        0.049       39.733       16.360        0.170      336.453        7.764      864.602
09/28/2013  08:10:00        8.269       20.628       28.677       18.182       29.749       16.305      330.573      885.021      265.837        0.140        0.074       22.224       19.103        0.739      336.449        7.758      864.607
09/28/2013  08:11:00       -2.198      -14.771       11.357        8.309       11.354        6.772       69.046      128.917       45.856        0.030        0.012       14.933        3.753        0.063      336.577        7.974      864.620
09/28/2013  08:12:00        0.718      -27.921       17.862       10.891       21.929       11.224      118.620      480.868      125.973        0.091        0.036       27.930        8.951        0.103      336.632        8.065      864.626
09/28/2013  08:13:00       -2.053      -12.162       28.312       15.328       20.535       17.070      234.933      421.694      291.389        0.095        0.047       12.334       15.098        1.499      336.630        8.062      864.625
09/28/2013  08:14:00        8.340       15.872       38.960       14.416       30.982       15.477      207.807      959.885      239.529        0.162        0.070       17.930       14.890        0.690      336.613        8.033      864.633
09/28/2013  08:15:00       10.004      -24.035       16.637       14.510       24.500       11.602      210.527      600.250      134.608        0.095        0.047       26.034       10.751        0.171      336.580        7.978      864.630
09/28/2013  08:16:00       -4.497        0.795       23.662        7.467       12.436       10.766       55.754      154.656      115.901        0.045        0.016        4.566        8.235        3.253      336.821        8.379      864.623
09/28/2013  08:17:00       -2.922       -2.304       12.428        5.235        6.310        6.306       27.406       39.816       39.771        0.014        0.005        3.721        2.759        0.550      336.828        8.392      864.620
09/28/2013  08:18:00      -20.351        6.675       -3.397       13.946       15.962        7.144      194.497      254.795       51.043        0.049        0.025       21.418        7.515        0.123      336.516        7.870      864.619
09/28/2013  08:19:00       12.935        8.582       -1.193       17.711       17.859       10.602      313.677      318.960      112.402        0.049        0.037       15.523        9.657        0.387      336.584        7.985      864.620
09/28/2013  08:20:00       59.710       52.413       13.908       24.509       23.609       22.544      600.683      557.395      508.229        0.409        0.083       79.451       12.529        0.025      336.535        7.901      864.606
09/28/2013  08:21:00       96.170       44.771       11.333       16.289       17.422       17.359      265.327      303.528      301.339        0.613        0.044      106.081        9.052        0.007      336.383        7.649      864.605
09/28/2013  08:22:00       84.405       58.281       -0.198       15.697       12.928       10.946      246.401      167.141      119.819        0.553        0.027      102.571        2.211        0.000      336.316        7.535      864.602
09/28/2013  08:23:00       78.297       43.708       -2.703       11.623       16.899        9.403      135.095      285.592       88.408        0.428        0.025       89.671        6.670        0.006      336.349        7.590      864.603
09/28/2013  08:24:00       41.164       31.730       -3.490       15.106       15.983       14.252      228.194      255.467      203.121        0.170        0.034       51.974       10.293        0.039      336.429        7.726      864.619
09/28/2013  08:25:00       67.998       43.778        4.746       19.889       22.216       16.600      395.580      493.558      275.546        0.386        0.058       80.872        7.764        0.009      336.440        7.744      864.639
09/28/2013  08:26:00       58.973       39.825       11.668       26.350       25.064       20.501      694.323      628.224      420.298        0.347        0.087       71.160       11.372        0.026      336.515        7.869      864.664
09/28/2013  08:27:00       79.472       55.154        9.390       26.945       19.308       24.621      726.027      372.784      606.199        0.558        0.085       96.735       15.811        0.027      336.465        7.784      864.684
09/28/2013  08:28:00       87.605       65.202        3.968       15.667       15.350       21.045      245.459      235.618      442.894        0.643        0.046      109.206        6.281        0.003      336.345        7.584      864.696
09/28/2013  08:29:00       77.416       50.397       -0.280       16.820       14.471       14.804      282.922      209.410      219.155        0.462        0.036       92.375        8.120        0.008      336.347        7.587      864.704
09/28/2013  08:30:00       85.771       51.307       -1.902       23.993       13.691       13.627      575.652      187.450      185.698        0.547        0.047       99.946        9.831        0.010      336.378        7.640      864.697
09/28/2013  08:31:00       93.174       58.498       -4.819       22.648       19.251       13.196      512.912      370.600      174.139        0.659        0.053      110.015        6.892        0.004      336.332        7.564      864.701
09/28/2013  08:32:00       53.877       45.859       24.906       29.827       17.915       25.203      889.678      320.951      635.177        0.374        0.092       70.751       12.245        0.030      336.452        7.763      864.694
09/28/2013  08:33:00       78.267       38.053        9.381       21.457       16.044       18.274      460.414      257.422      333.950        0.436        0.053       87.028       13.051        0.022      336.401        7.679      864.708
09/28/2013  08:34:00       53.441       23.106        1.415       20.790       20.126       17.064      432.215      405.074      291.182        0.226        0.056       58.222        8.790        0.023      336.478        7.807      864.716
09/28/2013  08:35:00       31.593       35.353        8.541       28.447       27.434       17.405      809.250      752.636      302.926        0.209        0.093       47.412       18.234        0.148      336.641        8.081      864.720
09/28/2013  08:36:00       18.036       29.337       50.583       23.031       37.307       21.368      530.413     1391.835      456.595        0.306        0.119       34.438       14.695        0.182      336.765        8.287      864.719
09/28/2013  08:37:00       28.373       42.509       49.732       25.195       28.591       22.868      634.793      817.467      522.937        0.353        0.099       51.108       22.049        0.186      336.672        8.132      864.736
09/28/2013  08:38:00       69.799       38.116       13.359       21.099       14.890       20.322      445.176      221.698      413.003        0.379        0.054       79.528       16.718        0.044      336.547        7.923      864.740
09/28/2013  08:39:00       47.414       42.572       26.441       27.917       19.991       18.189      779.359      399.629      330.822        0.313        0.075       63.722       15.102        0.056      336.652        8.098      864.740
09/28/2013  08:40:00       -5.648      -25.858       30.283       14.564       35.855       21.354      212.118     1285.587      456.005        0.179        0.098       26.467       15.088        0.325      337.047        8.758      864.717
09/28/2013  08:41:00        8.826       39.166       44.264       20.808       31.165       19.144      432.993      971.246      366.504        0.267        0.089       40.148        8.012        0.040      337.143        8.919      864.705
09/28/2013  08:42:00       38.249       52.084       19.790       36.950       30.309       31.903     1365.330      918.640     1017.793        0.393        0.165       64.620       25.153        0.152      336.922        8.549      864.705
09/28/2013  08:43:00       14.364       28.201       47.820       22.935       22.888       11.878      526.031      523.856      141.093        0.224        0.060       31.648       10.603        0.112      337.053        8.768      864.703
09/28/2013  08:44:00       -6.396       -9.040       30.849       14.226       34.674       13.783      202.366     1202.270      189.958        0.133        0.080       11.074        8.763        0.626      337.211        9.030      864.705
09/28/2013  08:45:00        5.362        6.199       23.010       12.197       10.394       10.869      148.778      108.038      118.142        0.049        0.019        8.196        4.232        0.267      337.482        9.485      864.702
09/28/2013  08:46:00       24.501       39.006       27.622       21.430       21.228       26.317      459.230      450.637      692.563        0.224        0.080       46.062       16.562        0.129      337.267        9.126      864.711
09/28/2013  08:47:00       52.861       -1.199       28.840       36.921       34.982       34.925     1363.155     1223.720     1219.768        0.372        0.190       52.874       30.631        0.336      337.064        8.785      864.723
09/28/2013  08:48:00       43.558       46.280       27.823       23.979       25.589       29.189      575.012      654.778      851.993        0.345        0.104       63.554        9.413        0.022      337.235        9.071      864.724
09/28/2013  08:49:00       41.091       47.044       23.217       29.612       22.572       26.058      876.881      509.513      679.039        0.325        0.103       62.462       18.097        0.084      337.134        8.903      864.726
09/28/2013  08:50:00       22.307       22.497       42.480       43.107       35.895       26.250     1858.184     1288.424      689.051        0.332        0.192       31.681       26.820        0.717      337.619        9.716      864.732
09/28/2013  08:51:00       44.275       62.139       44.792       34.592       16.674       21.777     1196.615      278.018      474.240        0.489        0.097       76.299       17.494        0.053      337.215        9.037      864.727
09/28/2013  08:52:00       54.445       49.216       12.463       21.653       17.604       19.125      468.840      309.905      365.751        0.334        0.057       73.392       12.957        0.031      337.122        8.884      864.716
09/28/2013  08:53:00      118.035       73.946        6.633       27.420       41.824       26.834      751.866     1749.230      720.079        1.133        0.161      139.285       15.071        0.012      337.214        9.036      864.697
09/28/2013  08:54:00       48.185       63.602       14.472       48.373       38.535       37.507     2339.905     1484.979     1406.812        0.590        0.262       79.794       24.829        0.097      337.394        9.337      864.696
09/28/2013  08:55:00       15.124       33.588       19.913       29.855       38.365       34.034      891.297     1471.837     1158.302        0.264        0.176       36.836       27.762        0.568      337.683        9.822      864.714
09/28/2013  08:56:00       83.719       88.415       -1.528       46.399       27.634       31.680     2152.900      763.645     1003.653        0.937        0.196      121.762       14.159        0.014      337.449        9.431      864.720
09/28/2013  08:57:00       11.551       50.199       37.142       26.168       29.035       38.604      684.763      843.043     1490.305        0.352        0.151       51.511       27.715        0.290      337.571        9.635      864.724
09/28/2013  08:58:00        2.861       14.219       27.724       24.882       25.096       23.146      619.121      629.823      535.758        0.138        0.089       14.504       16.618        1.313      338.006       10.365      864.740
09/28/2013  08:59:00       12.404      100.997        2.787       41.820       52.305       29.007     1748.918     2735.796      841.409        0.784        0.266      101.756       29.372        0.083      337.548        9.598      864.749
09/28/2013  09:00:00       42.214       86.989       -5.298       32.939       32.537       34.240     1084.971     1058.659     1172.409        0.635        0.166       96.690       26.434        0.075      337.486        9.494      864.743
09/28/2013  09:01:00       36.886       43.567       18.886       33.211       30.919       31.682     1102.965      955.957     1003.736        0.334        0.153       57.085       18.323        0.103      337.692        9.839      864.737
09/28/2013  09:02:00       47.580       28.726       15.836       27.391       20.178       21.265      750.271      407.144      452.206        0.247        0.080       55.579       15.903        0.082      337.531        9.567      864.756
09/28/2013  09:03:00       -3.629       18.522       12.447       13.455       23.231       17.478      181.050      539.677      305.492        0.077        0.051       18.874       11.909        0.398      338.029       10.402      864.769
09/28/2013  09:04:00       69.461       50.122       17.227       51.864       32.806       17.833     2689.925     1076.221      318.032        0.586        0.204       85.657       14.739        0.030      337.687        9.828      864.762
09/28/2013  09:05:00       77.426       55.894       -5.254       36.157       22.576       27.259     1307.343      509.670      743.071        0.585        0.128       95.493       19.059        0.040      337.437        9.411      864.761
09/28/2013  09:06:00       41.297       34.484       10.137       24.796       23.771       23.207      614.856      565.073      538.543        0.236        0.086       53.802       14.031        0.068      337.798       10.016      864.770
09/28/2013  09:07:00      -13.104      -15.706       15.615       27.977       43.667       28.856      782.689     1906.764      832.669        0.209        0.176       20.455       21.120        1.066      337.939       10.252      864.774
09/28/2013  09:08:00       55.102       35.402       23.138       45.283       42.596       40.821     2050.526     1814.457     1666.387        0.518        0.277       65.495       27.544        0.177      337.927       10.232      864.765
09/28/2013  09:09:00       62.758       80.288       48.419       38.946       32.029       49.585     1516.784     1025.826     2458.626        0.886        0.250      101.906       38.219        0.141      337.608        9.697      864.757
09/28/2013  09:10:00       66.255       35.675        9.953       29.323       28.863       23.102      859.836      833.054      533.708        0.399        0.111       75.249        9.147        0.015      337.491        9.501      864.754
09/28/2013  09:11:00       20.228        7.108        8.075       22.068       15.845       17.556      487.011      251.080      308.225        0.079        0.052       21.441       11.402        0.283      337.860       10.120      864.754
09/28/2013  09:12:00       48.706       42.436       10.277       26.261       27.032       23.408      689.622      730.722      547.922        0.312        0.098       64.599       16.543        0.066      337.840       10.086      864.768
09/28/2013  09:13:00       84.648       63.957       -3.520       29.090       23.404       22.903      846.207      547.760      524.526        0.659        0.096      106.094       19.123        0.032      337.672        9.804      864.792
09/28/2013  09:14:00       74.472       50.359        3.452       34.412       21.662       20.811     1184.162      469.246      433.113        0.509        0.104       89.900       18.323        0.042      337.619        9.715      864.806
09/28/2013  09:15:00      120.169       64.936       20.702       38.637       30.491       35.865     1492.797      929.725     1286.276        1.140        0.185      136.592       21.045        0.024      337.601        9.686      864.797
09/28/2013  09:16:00      115.080       90.900       13.020       18.175       22.654       20.837      330.340      513.223      434.182        1.148        0.064      146.650       10.620        0.005      337.454        9.438      864.777
09/28/2013  09:17:00       57.014       48.176       21.887       18.703       19.960       25.438      349.784      398.385      647.104        0.372        0.070       74.642       16.976        0.052      337.628        9.731      864.767
09/28/2013  09:18:00       -0.870       28.245        3.657       14.834       16.274       17.276      220.052      264.852      298.469        0.080        0.039       28.258        7.830        0.077      337.739        9.917      864.768
09/28/2013  09:19:00        4.091       12.104       17.794       14.274       19.021       21.039      203.752      361.796      442.633        0.074        0.050       12.777       15.902        1.549      338.115       10.548      864.774
09/28/2013  09:20:00       43.683       55.299       43.754       46.169       31.194       37.655     2131.577      973.096     1417.906        0.570        0.226       70.472       29.482        0.175      338.007       10.367      864.780
09/28/2013  09:21:00       51.456       39.111       26.195       20.369       16.819       25.614      414.883      282.894      656.082        0.311        0.068       64.633       14.857        0.053      337.659        9.782      864.782
09/28/2013  09:22:00       30.530       27.387       22.569       22.844       20.810       15.927      521.852      433.074      253.653        0.170        0.060       41.013       16.384        0.160      337.733        9.907      864.781
09/28/2013  09:23:00       43.847       25.051       14.629       18.284       23.040       21.386      334.292      530.830      457.372        0.204        0.066       50.498       13.079        0.067      337.751        9.936      864.788
09/28/2013  09:24:00       18.773        2.733       24.789       31.583       26.264       18.591      997.476      689.797      345.622        0.150        0.102       18.971       16.421        0.749      338.035       10.414      864.780
09/28/2013  09:25:00       28.136       47.068       53.121       40.155       46.282       26.624     1612.450     2142.008      708.839        0.515        0.223       54.836       19.413        0.125      337.972       10.308      864.766
09/28/2013  09:26:00        8.573        7.458       19.992       34.522       29.216       17.600     1191.755      853.591      309.769        0.144        0.118       11.363        9.619        0.717      338.004       10.362      864.750
09/28/2013  09:27:00        2.792       41.122       73.416       27.334       29.071       17.519      747.175      845.103      306.925        0.449        0.095       41.216       16.530        0.161      338.178       10.652      864.737
09/28/2013  09:28:00       16.001      -19.096       22.662       20.459       23.881       24.246      418.570      570.325      587.865        0.136        0.079       24.914       20.166        0.655      338.083       10.494      864.753
09/28/2013  09:29:00       -3.306       -1.432       32.163        7.997       15.936        9.037       63.945      253.963       81.663        0.072        0.020        3.603        8.292        5.295      338.371       10.978      864.763
09/28/2013  09:30:00       -1.675      -30.392        4.035       15.053       18.464       15.462      226.581      340.929      239.072        0.087        0.040       30.438       15.273        0.252      337.989       10.335      864.768
09/28/2013  09:31:00      -33.888      -14.859        3.028       20.676       19.002       19.588      427.511      361.085      383.677        0.128        0.059       37.003       11.175        0.091      337.973       10.309      864.786
09/28/2013  09:32:00       -1.715       18.361       18.546       10.542       21.618       13.559      111.131      467.342      183.860        0.072        0.038       18.441       10.126        0.302      338.518       11.224      864.779
09/28/2013  09:33:00      -39.915       23.148       -2.318       21.024       14.564       15.863      442.005      212.113      251.631        0.152        0.045       46.142       13.278        0.083      337.876       10.147      864.778
09/28/2013  09:34:00      -32.131      -20.484       -6.729       27.818       25.892        9.607      773.842      670.402       92.294        0.152        0.077       38.105        7.703        0.041      337.842       10.088      864.784
09/28/2013  09:35:00       10.344       22.269       38.962       24.667       40.254       34.372      608.455     1620.422     1181.404        0.276        0.171       24.554       32.503        1.752      338.278       10.821      864.725
09/28/2013  09:36:00        9.328       17.018       48.789       20.498       27.329       16.169      420.166      746.891      261.432        0.209        0.071       19.407       11.484        0.350      338.486       11.170      864.713
09/28/2013  09:37:00      -35.020       15.597       -2.399       28.781       21.414       14.822      828.340      458.553      219.700        0.149        0.075       38.336       16.892        0.194      338.166       10.632      864.754
09/28/2013  09:38:00      -52.000       35.904       -9.217       24.746       21.949       17.888      612.365      481.772      319.982        0.275        0.071       63.191       15.432        0.060      338.128       10.570      864.773
09/28/2013  09:39:00       38.095       37.968       18.504       24.380       21.432       18.514      594.386      459.337      342.764        0.232        0.070       53.785       12.340        0.053      338.437       11.088      864.738
09/28/2013  09:40:00       32.549       39.663       25.593       32.238       23.796       28.763     1039.288      566.230      827.322        0.286        0.122       51.309       17.020        0.110      338.486       11.170      864.713
09/28/2013  09:41:00        6.125       69.836       14.821       26.374       46.289       25.803      695.613     2142.691      665.789        0.432        0.175       70.104       26.528        0.143      338.460       11.128      864.744
09/28/2013  09:42:00       15.991       63.565        2.009       22.733       45.822       23.758      516.797     2099.700      564.454        0.374        0.159       65.545       26.589        0.165      338.403       11.030      864.759
09/28/2013  09:43:00       14.764       19.371        8.969       21.523       15.567       18.586      463.219      242.334      345.450        0.086        0.053       24.356       13.915        0.326      338.476       11.154      864.762
09/28/2013  09:44:00       -3.410       22.220       44.106       17.515       22.784       16.996      306.765      519.090      288.866        0.178        0.056       22.480       13.386        0.355      338.655       11.454      864.760
09/28/2013  09:45:00       38.842       42.620       35.689       22.135       17.467       16.880      489.952      305.111      284.947        0.284        0.054       57.664       11.616        0.041      338.240       10.757      864.764
09/28/2013  09:46:00       11.175       27.609        7.306       22.327       13.867        8.632      498.483      192.305       74.511        0.085        0.038       29.785        7.255        0.059      338.226       10.734      864.755
09/28/2013  09:47:00       -1.967       10.293       28.331        6.121       10.276       12.954       37.470      105.586      167.798        0.061        0.016       10.479        6.767        0.417      338.748       11.611      864.747
09/28/2013  09:48:00        2.641       19.184       43.682       13.050       20.376        9.173      170.307      415.164       84.145        0.148        0.033       19.365        6.111        0.100      338.733       11.585      864.716
09/28/2013  09:49:00       -3.074       33.834       59.838       12.546       24.504       12.156      157.396      600.449      147.774        0.282        0.045       33.973       12.260        0.130      338.785       11.672      864.711
09/28/2013  09:50:00       13.896       36.667       50.914       23.830       24.445       19.154      567.855      597.575      366.863        0.283        0.077       39.212       17.065        0.189      338.628       11.409      864.706
09/28/2013  09:51:00       43.568       42.052       36.053       47.520       24.846       29.209     2258.166      617.313      853.149        0.435        0.186       60.552       18.168        0.090      338.550       11.277      864.707
09/28/2013  09:52:00       59.663       42.703        7.604       31.645       20.102       25.370     1001.405      404.083      643.640        0.374        0.102       73.370       16.169        0.049      338.439       11.091      864.696
09/28/2013  09:53:00       53.398       57.184       35.721       29.494       18.973       21.763      869.879      359.976      473.646        0.455        0.085       78.239       19.022        0.059      338.411       11.044      864.689
09/28/2013  09:54:00       21.655       56.818       75.662       30.662       33.817       22.158      940.163     1143.576      490.987        0.600        0.129       60.804       23.638        0.151      338.592       11.348      864.682
09/28/2013  09:55:00       14.041       28.457       42.188       25.967       32.480       23.678      674.281     1054.944      560.664        0.254        0.114       31.733       21.332        0.452      338.700       11.530      864.698
09/28/2013  09:56:00       13.182        4.418       43.008       21.906       20.382       14.275      479.871      415.443      203.763        0.157        0.055       13.903       12.912        0.863      338.904       11.872      864.705
09/28/2013  09:57:00       42.739       51.557       46.128       31.139       27.556       20.803      969.654      759.307      432.774        0.439        0.108       66.969       18.280        0.075      338.557       11.290      864.712
09/28/2013  09:58:00       62.252       48.532       15.786       15.096       12.985       16.347      227.881      168.622      267.217        0.357        0.033       78.934        9.613        0.015      338.286       10.832      864.706
09/28/2013  09:59:00       67.170       30.194        5.042       18.080       18.344       15.852      326.887      336.504      251.297        0.318        0.046       73.645       11.119        0.023      338.342       10.928      864.709
09/28/2013  10:00:00        6.353       58.316       -8.105       20.798       21.925       18.713      432.556      480.690      350.184        0.238        0.063       58.661       13.893        0.056      338.555       11.286      864.694
09/28/2013  10:01:00       66.639       57.869       34.556       30.026       17.867       23.660      901.538      319.222      559.802        0.538        0.089       88.259       10.293        0.014      338.586       11.338      864.675
09/28/2013  10:02:00       82.833       51.817       22.779       22.855       17.642       26.100      522.363      311.231      681.228        0.579        0.076       97.705        9.691        0.010      338.677       11.491      864.667
09/28/2013  10:03:00       64.551       56.164       13.065       46.026       25.791       27.670     2118.377      665.191      765.649        0.552        0.177       85.564       16.015        0.035      338.817       11.726      864.660
09/28/2013  10:04:00      -18.562       25.780       11.338       15.415       41.523       24.680      237.616     1724.167      609.104        0.185        0.129       31.768       13.117        0.171      339.119       12.234      864.672
09/28/2013  10:05:00       23.213       27.122       11.848       42.587       34.021       24.146     1813.636     1157.411      583.013        0.248        0.178       35.699       23.631        0.438      339.090       12.185      864.685
09/28/2013  10:06:00       -0.499       68.390        6.875       35.213       33.794       21.682     1239.924     1142.045      470.127        0.379        0.143       68.391       17.139        0.063      338.946       11.943      864.696
09/28/2013  10:07:00       -7.551       69.335        8.518       21.101       30.134       16.776      445.259      908.037      281.441        0.329        0.082       69.745       13.911        0.040      339.233       12.426      864.699
09/28/2013  10:08:00       36.075       14.074       18.813       26.485       23.223       25.766      701.475      539.315      663.883        0.188        0.095       38.723        6.251        0.026      339.196       12.362      864.695
09/28/2013  10:09:00       30.238      -69.856       13.935       57.203       52.603       35.711     3272.128     2767.098     1275.274        0.665        0.366       76.120       29.482        0.150      338.965       11.976      864.702
09/28/2013  10:10:00       10.095       15.567       13.720       30.647       36.757       33.057      939.242     1351.090     1092.746        0.196        0.169       18.554       25.290        1.858      338.940       11.933      864.709
09/28/2013  10:11:00       -4.105       20.926       34.891       23.733       31.072       21.727      563.234      965.445      472.059        0.184        0.100       21.325       15.530        0.530      339.177       12.332      864.721
09/28/2013  10:12:00       47.953      -84.988       11.405       52.825       37.012       31.486     2790.437     1369.872      991.356        0.740        0.258       97.583       30.057        0.095      338.686       11.505      864.724
09/28/2013  10:13:00       45.355      -65.161        6.340       50.679       45.333       25.003     2568.324     2055.048      625.153        0.579        0.262       79.392       22.388        0.080      338.904       11.872      864.745
09/28/2013  10:14:00       39.387      -68.086        0.801       29.906       42.048       26.898      894.380     1768.069      723.497        0.479        0.169       78.658       29.160        0.137      339.024       12.075      864.760
09/28/2013  10:15:00       27.990       33.541       28.280       29.719       20.685       30.569      883.218      427.857      934.466        0.248        0.112       43.686       11.131        0.065      339.160       12.304      864.762
09/28/2013  10:16:00       38.416       25.542        4.615       25.702       14.986       20.312      660.571      224.572      412.571        0.172        0.065       46.132       14.128        0.094      339.027       12.079      864.763
09/28/2013  10:17:00       55.572       45.427       14.945       26.409       28.429       29.178      697.447      808.191      851.350        0.387        0.118       71.777       18.965        0.070      339.066       12.144      864.774
09/28/2013  10:18:00       52.327       23.626       10.494       28.517       25.384       26.870      813.215      644.368      721.985        0.279        0.109       57.413       15.716        0.075      339.050       12.118      864.777
09/28/2013  10:19:00       51.171       33.970       14.767       31.850       36.583       22.136     1014.419     1338.317      490.022        0.342        0.142       61.420       15.136        0.061      339.143       12.275      864.778
09/28/2013  10:20:00       59.956       32.104        8.595       35.777       26.679       27.386     1279.994      711.779      749.987        0.372        0.137       68.011       16.798        0.061      339.042       12.105      864.785
09/28/2013  10:21:00       78.949       51.305        6.152       21.515       23.640       18.661      462.887      558.844      348.215        0.514        0.068       94.155       10.122        0.012      338.999       12.032      864.788
09/28/2013  10:22:00       66.894       62.324       12.786       24.702       20.443       19.008      610.167      417.918      361.294        0.496        0.069       91.428        9.063        0.010      338.964       11.973      864.769
09/28/2013  10:23:00      101.846       71.416        9.481       28.791       23.897       24.125      828.922      571.073      582.035        0.877        0.099      124.390       16.005        0.017      338.927       11.911      864.754
09/28/2013  10:24:00       53.671       58.000        5.922       31.726       32.127       27.321     1006.564     1032.114      746.446        0.453        0.139       79.023       22.095        0.078      339.042       12.105      864.726
09/28/2013  10:25:00       17.200       30.993        6.107       29.845       17.396       17.028      890.742      302.612      289.969        0.139        0.074       35.445        4.995        0.020      339.307       12.552      864.714
09/28/2013  10:26:00       75.926       50.409        0.495       17.567       17.301       19.196      308.585      299.321      368.502        0.464        0.049       91.137       10.567        0.013      338.998       12.031      864.719
09/28/2013  10:27:00       19.379       27.656       12.924       27.632       29.378       16.238      763.520      863.055      263.661        0.160        0.095       33.769       18.829        0.311      339.291       12.525      864.719
09/28/2013  10:28:00       -4.548      -11.017        8.831       20.225       24.085       15.216      409.040      580.065      231.517        0.072        0.061       11.919        5.666        0.226      339.459       12.807      864.736
09/28/2013  10:29:00       48.533       39.654       37.369       33.604       33.482       24.735     1129.257     1121.016      611.796        0.409        0.143       62.673       10.265        0.027      339.567       12.992      864.743
09/28/2013  10:30:00       77.979       76.074       17.509       24.463       25.426       24.175      598.455      646.493      584.434        0.700        0.091      108.940        6.512        0.004      339.346       12.616      864.745
09/28/2013  10:31:00       45.905       57.161       51.968       43.580       49.616       32.924     1899.237     2461.730     1083.995        0.676        0.272       73.312       27.731        0.143      339.439       12.773      864.741
09/28/2013  10:32:00        4.238       -2.638       21.972       20.807       38.857       25.542      432.920     1509.839      652.374        0.155        0.130        4.992       25.533       26.162      339.381       12.674      864.760
09/28/2013  10:33:00       23.526      -49.975       19.883       35.236       58.042       37.587     1241.603     3368.882     1412.789        0.473        0.301       55.236       34.048        0.380      339.272       12.493      864.757
09/28/2013  10:34:00       17.296       17.000       38.673       31.538       60.081       34.881      994.615     3609.677     1216.718        0.395        0.291       24.252       38.386        2.505      339.442       12.778      864.760
09/28/2013  10:35:00       33.218        8.811       30.077       28.818       27.218       27.412      830.476      740.831      751.404        0.220        0.116       34.366       12.446        0.131      339.395       12.698      864.763
09/28/2013  10:36:00       21.952        6.932       28.300       31.403       20.463       20.984      986.142      418.752      440.339        0.159        0.092       23.020       13.409        0.339      339.415       12.734      864.750
09/28/2013  10:37:00       45.114      -33.068        7.840       22.523       29.791       19.929      507.281      887.508      397.168        0.249        0.090       55.936       20.442        0.134      339.276       12.498      864.734
09/28/2013  10:38:00       -1.272       21.980       30.103       13.353       26.099       23.714      178.291      681.166      562.376        0.141        0.071       22.017       21.391        0.944      339.557       12.971      864.713
09/28/2013  10:39:00        7.901       16.635       23.776       20.054       17.171       17.308      402.158      294.835      299.559        0.095        0.050       18.416       11.133        0.365      339.447       12.787      864.702
09/28/2013  10:40:00       10.082       12.486       14.237        9.835       17.313       14.190       96.733      299.734      201.369        0.053        0.030       16.048       14.057        0.767      339.810       13.401      864.684
09/28/2013  10:41:00       23.150        4.927       13.111       21.255        9.524       14.658      451.757       90.705      214.855        0.074        0.038       23.668       12.624        0.285      339.651       13.132      864.653
09/28/2013  10:42:00       11.565       -9.434       21.761       31.145       19.399       18.474      969.992      376.337      341.286        0.119        0.084       14.925       17.766        1.417      339.837       13.444      864.629
09/28/2013  10:43:00       -1.156      -47.343        1.704       23.127       19.937       18.662      534.868      397.470      348.285        0.176        0.064       47.357       15.435        0.106      339.499       12.874      864.623
09/28/2013  10:44:00       14.261        3.646       17.431       17.532       19.857       15.324      307.384      394.302      234.819        0.073        0.047       14.720        9.480        0.415      339.906       13.560      864.626
09/28/2013  10:45:00       -3.421       14.766       32.672       15.325       19.453        9.989      234.860      378.416       99.784        0.100        0.036       15.157        5.406        0.127      340.125       13.931      864.607
09/28/2013  10:46:00        5.532        6.820       41.726       16.800       36.805       19.904      282.240     1354.582      396.169        0.193        0.102        8.781       22.998        6.859      340.033       13.775      864.566
09/28/2013  10:47:00       11.999       35.097       52.859       29.470       23.851       25.016      868.490      568.867      625.784        0.312        0.103       37.091       19.649        0.281      339.930       13.600      864.548
09/28/2013  10:48:00       24.156       43.811       14.136       29.252       28.188       23.334      855.663      794.583      544.476        0.245        0.110       50.029       15.431        0.095      339.903       13.556      864.531
09/28/2013  10:49:00       20.216       22.354       18.280       46.039       46.105       32.385     2119.590     2125.678     1048.779        0.327        0.265       30.140       25.547        0.718      339.988       13.700      864.532
09/28/2013  10:50:00       34.976       62.895       55.140       43.603       32.899       28.690     1901.228     1082.330      823.131        0.601        0.190       71.966       19.007        0.070      339.822       13.419      864.538
09/28/2013  10:51:00       15.049       63.844       55.712       28.317       32.334       25.834      801.838     1045.467      667.372        0.496        0.126       65.594       24.982        0.145      339.818       13.413      864.535
09/28/2013  10:52:00       12.860       29.659       49.395       26.163       42.281       25.193      684.509     1787.693      634.710        0.330        0.155       32.327       24.384        0.569      340.030       13.769      864.541
09/28/2013  10:53:00       -2.449        8.605       32.409       15.725       23.596       16.820      247.286      556.788      282.917        0.111        0.054        8.947       11.924        1.776      340.290       14.209      864.548
09/28/2013  10:54:00       33.202       34.575       18.977       26.826       16.985       17.687      719.654      288.474      312.824        0.199        0.066       47.935       15.652        0.107      340.036       13.780      864.560
09/28/2013  10:55:00       37.642       52.560       -9.176       32.707       52.456       25.047     1069.739     2751.636      627.342        0.436        0.222       64.649       25.316        0.153      339.922       13.589      864.564
09/28/2013  10:56:00       -9.811       58.181        4.256       24.851       45.443       23.973      617.567     2065.090      574.721        0.338        0.163       59.002       27.504        0.217      340.081       13.856      864.584
09/28/2013  10:57:00       -1.668       43.518        8.562       23.470       35.017       23.165      550.849     1226.192      536.619        0.214        0.116       43.550       18.894        0.188      340.264       14.165      864.586
09/28/2013  10:58:00        8.232       39.086        9.856       36.415       44.436       24.595     1326.063     1974.538      604.909        0.280        0.195       39.943       21.523        0.290      340.425       14.437      864.579
09/28/2013  10:59:00       44.915       52.803       60.729       73.213       57.261       48.010     5360.129     3278.809     2304.990        0.972        0.547       69.322       33.960        0.240      340.070       13.838      864.562
09/28/2013  11:00:00       72.920       59.165       35.048       42.464       32.756       32.823     1803.183     1072.941     1077.375        0.700        0.198       93.903       28.584        0.093      339.754       13.305      864.565
09/28/2013  11:01:00        5.175       17.442       25.331       34.456       50.170       37.044     1187.197     2517.031     1372.224        0.302        0.254       18.193       36.582        4.043      339.859       13.481      864.575
09/28/2013  11:02:00       -6.448       -4.464       26.105       24.412       18.885       11.105      595.925      356.651      123.318        0.091        0.054        7.842       13.904        3.143      340.411       14.412      864.583
09/28/2013  11:03:00       79.488        8.798       31.202       33.268       19.350       24.856     1106.767      374.441      617.816        0.473        0.105       79.973       21.621        0.073      339.843       13.454      864.581
09/28/2013  11:04:00       96.418       68.649       62.392       55.688       48.206       45.460     3101.149     2323.843     2066.606        1.270        0.375      118.360       38.175        0.104      339.696       13.206      864.537
09/28/2013  11:05:00      127.323       91.731       65.559       69.239       39.879       38.901     4794.079     1590.361     1513.295        1.841        0.395      156.926       18.081        0.013      339.953       13.637      864.479
09/28/2013  11:06:00       43.841       88.684       79.478       70.157       56.301       54.598     4921.979     3169.852     2980.993        1.359        0.554       98.928       50.767        0.263      340.173       14.011      864.468
09/28/2013  11:07:00       75.507       48.242       71.799       51.009       48.002       40.681     2601.892     2304.179     1654.921        0.987        0.328       89.602       17.951        0.040      340.204       14.063      864.482
09/28/2013  11:08:00       64.658      -50.607        7.218       56.217       42.603       32.414     3160.396     1815.001     1050.667        0.641        0.301       82.107       32.966        0.161      340.180       14.023      864.475
09/28/2013  11:09:00      -12.286        5.568        2.528       29.173       44.626       24.721      851.062     1991.451      611.107        0.182        0.173       13.488       19.959        2.189      340.464       14.503      864.488
09/28/2013  11:10:00       32.910       56.182       46.975       30.127       29.687       23.807      907.653      881.293      566.774        0.440        0.118       65.111        7.467        0.013      340.502       14.567      864.486
09/28/2013  11:11:00       19.066       21.582       38.965       37.246       39.416       32.471     1387.238     1553.631     1054.392        0.317        0.200       28.798       27.035        0.881      340.699       14.901      864.469
09/28/2013  11:12:00       15.049        2.438       39.618       29.660       39.577       30.085      879.698     1566.374      905.085        0.258        0.168       15.245       23.966        2.471      340.936       15.300      864.426
09/28/2013  11:13:00       81.478     -101.821      -11.909       64.232       66.102       54.997     4125.709     4369.477     3024.647        1.433        0.576      130.408       49.475        0.144      340.731       14.953      864.395
09/28/2013  11:14:00       73.993      -62.739       10.243       65.525       87.419       54.939     4293.475     7642.081     3018.341        1.223        0.748       97.011       69.831        0.518      340.670       14.851      864.382
09/28/2013  11:15:00       14.973      -30.506       22.571       24.771       44.831       26.036      613.623     2009.802      677.864        0.248        0.165       33.982       26.139        0.592      340.833       15.127      864.369
09/28/2013  11:16:00        0.575       15.148       53.952       28.713       52.488       19.909      824.459     2755.032      396.387        0.356        0.199       15.159       21.217        1.959      341.077       15.540      864.366
09/28/2013  11:17:00       17.885       12.441       35.361       28.800       34.460       20.574      829.431     1187.468      423.301        0.208        0.122       21.787       17.152        0.620      340.904       15.248      864.368
09/28/2013  11:18:00       55.882      -72.830        5.235       44.126       64.443       37.894     1947.146     4152.889     1435.983        0.799        0.377       91.799       37.164        0.164      340.701       14.905      864.372
09/28/2013  11:19:00       50.132      -14.992        9.825       43.203       52.654       37.773     1866.484     2772.458     1426.778        0.445        0.303       52.326       29.868        0.326      340.931       15.293      864.352
09/28/2013  11:20:00      -24.804      -58.634        7.738       33.630       46.777       35.443     1130.992     2188.042     1256.185        0.434        0.229       63.665       33.877        0.283      341.040       15.477      864.360
09/28/2013  11:21:00       -3.366      -52.037       16.755       29.631       35.065       33.323      878.010     1229.588     1110.410        0.311        0.161       52.146       19.163        0.135      341.163       15.684      864.365
09/28/2013  11:22:00       21.957      -41.059       14.965       34.592       44.441       27.697     1196.633     1975.008      767.103        0.316        0.197       46.561       26.307        0.319      341.208       15.762      864.361
09/28/2013  11:23:00       22.873      -31.404       33.428       38.885       53.034       40.226     1512.024     2812.621     1618.127        0.428        0.297       38.851       41.385        1.135      341.180       15.715      864.352
09/28/2013  11:24:00       70.303      -19.659       24.907       47.643       63.131       50.625     2269.812     3985.585     2562.889        0.738        0.441       73.000       51.316        0.494      340.994       15.399      864.325
09/28/2013  11:25:00        9.862      -28.270        2.374       23.682       34.794       25.512      560.815     1210.652      650.842        0.166        0.121       29.941       16.821        0.316      340.774       15.027      864.323
09/28/2013  11:26:00       74.942     -118.372       -8.826       57.161       44.819       40.931     3267.404     2008.766     1675.361        1.333        0.348      140.101       37.623        0.072      340.961       15.344      864.314
09/28/2013  11:27:00       50.185      -56.012       27.110       46.721       58.542       48.198     2182.867     3427.187     2323.054        0.716        0.397       75.205       37.828        0.253      341.194       15.737      864.302
09/28/2013  11:28:00       46.968        5.282       46.700       46.860       45.940       46.705     2195.834     2110.454     2181.359        0.545        0.324       47.264       33.370        0.498      341.461       16.191      864.300
09/28/2013  11:29:00       16.313        7.301       52.168       38.423       62.220       42.175     1476.313     3871.335     1778.734        0.508        0.356       17.872       45.354        6.440      341.238       15.813      864.303
09/28/2013  11:30:00       19.118      -52.615       15.490       27.514       66.816       31.768      757.047     4464.444     1009.197        0.480        0.312       55.981       26.338        0.221      341.068       15.524      864.286
09/28/2013  11:31:00       52.740       14.525        8.408       50.320       35.426       23.007     2532.054     1255.004      529.305        0.369        0.216       54.704       13.119        0.058      341.033       15.465      864.270
09/28/2013  11:32:00       73.740       53.824       31.386       32.920       36.155       30.611     1083.729     1307.203      937.044        0.632        0.166       91.295       19.403        0.045      341.383       16.057      864.247
09/28/2013  11:33:00       25.897        1.053       26.580       48.389       44.208       28.573     2341.540     1954.316      816.388        0.324        0.256       25.918       17.539        0.458      341.552       16.343      864.231
09/28/2013  11:34:00       17.695      -22.668        6.521       22.706       48.949       28.285      515.578     2396.002      800.024        0.229        0.186       28.757       26.727        0.864      341.342       15.988      864.233
09/28/2013  11:35:00       89.826     -120.587       -9.422       58.248       74.072       54.867     3392.794     5486.639     3010.349        1.729        0.594      150.366       46.065        0.094      341.212       15.767      864.224
09/28/2013  11:36:00       44.124     -115.446        6.675       53.380       74.376       39.013     2849.414     5531.792     1522.044        1.261        0.495      123.590       38.680        0.098      341.149       15.659      864.212
09/28/2013  11:37:00       28.481      -59.792       11.608       46.786       59.731       36.382     2188.906     3567.844     1323.643        0.580        0.354       66.229       36.490        0.304      341.518       16.286      864.192
09/28/2013  11:38:00       20.166      -50.885       30.630       62.190      122.605       62.081     3867.641    15031.880     3854.049        1.334        1.138       54.735       71.249        1.694      341.796       16.757      864.191
09/28/2013  11:39:00       35.216       19.244       55.079       60.762       50.796       47.904     3692.018     2580.220     2294.763        0.660        0.428       40.131       41.848        1.087      341.571       16.376      864.208
09/28/2013  11:40:00       68.488      -44.714       21.780       42.266       59.304       43.163     1786.423     3516.967     1863.065        0.716        0.358       81.792       43.013        0.277      341.153       15.669      864.220
09/28/2013  11:41:00       68.350      -70.578       -5.772       38.377       34.874       30.480     1472.811     1216.226      929.003        0.665        0.181       98.250       20.358        0.043      341.004       15.417      864.224
09/28/2013  11:42:00       44.859      -63.423      -15.847       25.978       23.477       23.311      674.854      551.153      543.400        0.403        0.088       77.684       17.378        0.050      340.963       15.347      864.224
09/28/2013  11:43:00       23.234      -48.962       -8.769       21.402       16.704       12.784      458.038      279.023      163.436        0.196        0.045       54.195        7.498        0.019      341.154       15.669      864.227
09/28/2013  11:44:00       10.256      -50.545       -5.178       34.920       38.557       34.321     1219.439     1486.668     1177.957        0.328        0.194       51.575       21.077        0.167      341.284       15.890      864.204
09/28/2013  11:45:00       30.237       28.263       43.768       41.204       50.026       23.959     1697.791     2502.569      574.041        0.420        0.239       41.389       25.989        0.394      341.501       16.259      864.176
09/28/2013  11:46:00       40.381      -42.974       14.477       51.233       65.516       33.703     2624.773     4292.310     1135.882        0.587        0.403       58.969       26.113        0.196      341.346       15.994      864.167
09/28/2013  11:47:00       72.760     -169.335        3.841       40.581       60.300       32.290     1646.836     3636.059     1042.647        2.015        0.316      184.305       29.013        0.025      341.458       16.182      864.159
09/28/2013  11:48:00       31.307       -5.305       40.604       31.346       31.489       21.187      982.576      991.562      448.887        0.254        0.121       31.753       16.027        0.255      341.881       16.900      864.160
09/28/2013  11:49:00       10.116        4.083       40.544       15.919       22.514       11.843      253.400      506.862      140.264        0.133        0.045       10.909       12.124        1.235      342.027       17.150      864.147
09/28/2013  11:50:00        0.050        6.593       20.885       10.954       14.090       10.702      119.989      198.541      114.528        0.046        0.022        6.593        7.247        1.208      342.179       17.407      864.132
09/28/2013  11:51:00       -1.740       -0.297       15.810       13.840       11.810       11.454      191.538      139.469      131.197        0.036        0.023        1.765        8.925       25.573      342.319       17.645      864.124
09/28/2013  11:52:00       17.572        4.566       13.937       37.000       20.030       18.231     1369.009      401.203      332.373        0.131        0.105       18.155       16.275        0.804      342.028       17.153      864.103
09/28/2013  11:53:00       79.465       38.484       18.612       37.484       35.700       36.764     1405.078     1274.483     1351.574        0.609        0.202       88.293       26.713        0.092      341.507       16.268      864.076
09/28/2013  11:54:00      130.583       93.252       27.860       30.537       30.542       27.162      932.519      932.834      737.795        1.456        0.130      160.462       10.316        0.004      341.423       16.125      864.063
09/28/2013  11:55:00       50.713       40.417        1.018       33.133       34.426       24.651     1097.802     1185.121      607.690        0.355        0.145       64.849       23.932        0.136      341.429       16.135      864.048
09/28/2013  11:56:00       15.185      -19.446       32.121       28.937       45.232       30.625      837.326     2045.969      937.866        0.273        0.191       24.673       34.170        1.918      341.938       16.999      864.039
09/28/2013  11:57:00       13.000      -36.698       13.771       44.930       59.405       47.034     2018.715     3528.904     2212.180        0.473        0.388       38.932       26.866        0.476      341.871       16.885      864.016
09/28/2013  11:58:00       17.397      -28.227       21.337       35.522       53.726       36.582     1261.793     2886.509     1338.233        0.352        0.274       33.157       22.176        0.447      342.091       17.258      864.017
09/28/2013  11:59:00       31.503      -28.789       31.895       42.456       66.679       39.398     1802.549     4446.084     1552.237        0.532        0.390       42.676       43.622        1.045      341.966       17.046      864.019
09/28/2013  12:00:00        9.988       -2.052       68.778       33.908       55.529       26.178     1149.726     3083.465      685.283        0.488        0.246       10.197       24.602        5.822      342.192       17.430      864.024
09/28/2013  12:01:00       54.980      -30.276       39.588       39.812       60.028       40.050     1584.960     3603.331     1604.027        0.615        0.340       62.765       40.227        0.411      342.037       17.167      864.022
09/28/2013  12:02:00       71.202      -55.667        1.137       45.540       51.145       41.754     2073.900     2615.858     1743.406        0.730        0.322       90.379       36.972        0.167      341.592       16.413      864.028
09/28/2013  12:03:00       37.426      -18.501        1.567       30.271       19.670       21.791      916.323      386.905      474.865        0.176        0.089       41.749       15.098        0.131      341.633       16.482      864.035
09/28/2013  12:04:00        4.148      -22.099       -0.146       19.801       29.065       14.507      392.068      844.750      210.458        0.098        0.072       22.485       13.279        0.349      341.680       16.561      864.030
09/28/2013  12:05:00       16.639      -12.862       10.488       24.293       31.203       17.990      590.146      973.603      323.629        0.122        0.094       21.031       14.384        0.468      341.867       16.877      864.041
09/28/2013  12:06:00       11.568      -17.986       14.134       35.437       37.262       28.665     1255.809     1388.482      821.693        0.206        0.173       21.385       24.939        1.360      342.384       17.756      864.020
09/28/2013  12:07:00      -24.239        2.953       18.672       38.580       27.584       25.524     1488.390      760.889      651.475        0.192        0.145       24.419       16.889        0.478      342.375       17.741      864.020
09/28/2013  12:08:00       -0.599      -15.405       -4.029       29.216       42.091       21.481      853.547     1771.647      461.418        0.167        0.154       15.417       18.715        1.474      342.476       17.914      864.012
09/28/2013  12:09:00      -18.783       -1.844       20.650       24.633       28.538       22.773      606.794      814.390      518.626        0.136        0.097       18.873       20.752        1.209      342.889       18.614      863.986
09/28/2013  12:10:00      101.881     -112.105      -13.397       88.848      102.839       46.219     7893.990    10575.787     2136.196        2.186        1.030      151.484       67.116        0.196      342.346       17.691      863.960
09/28/2013  12:11:00       94.048      -97.909      -13.805       52.454       68.787       48.871     2751.446     4731.592     2388.343        1.424        0.494      135.761       49.249        0.132      342.235       17.502      863.931
09/28/2013  12:12:00       67.998      -75.039       -6.157       71.214       59.368       46.841     5071.396     3524.599     2194.080        1.054        0.540      101.265       49.487        0.239      342.198       17.439      863.898
09/28/2013  12:13:00       97.527     -159.153      -16.733       50.869       75.527       47.324     2587.635     5704.351     2239.593        2.282        0.527      186.658       47.592        0.065      342.309       17.626      863.874
09/28/2013  12:14:00       64.712      -23.631       48.830       64.588      109.288       64.119     4171.587    11943.890     4111.251        1.367        1.011       68.892       75.477        1.200      342.718       18.323      863.846
09/28/2013  12:15:00       63.112      -45.228       30.508       58.311       85.803       41.513     3400.201     7362.156     1723.341        0.972        0.624       77.645       51.251        0.436      342.520       17.987      863.844
09/28/2013  12:16:00      100.461       67.633       52.116       62.498       59.402       43.039     3905.954     3528.569     1852.333        1.333        0.464      121.106       34.951        0.083      342.322       17.649      863.829
09/28/2013  12:17:00       87.524       70.784       43.586       56.033       48.130       30.525     3139.674     2316.516      931.772        1.048        0.319      112.565       14.887        0.017      342.648       18.204      863.824
09/28/2013  12:18:00      104.000     -120.217       -4.544       84.913      122.882       46.246     7210.170    15099.911     2138.704        2.486        1.222      158.960       67.255        0.179      342.539       18.018      863.801
09/28/2013  12:19:00      148.171     -176.281      -38.292       52.136       71.025       35.865     2718.122     5044.608     1286.317        3.177        0.452      230.281       37.972        0.027      342.332       17.662      863.790
09/28/2013  12:20:00      136.730     -102.483       -6.311       70.689       91.182       53.412     4996.955     8314.105     2852.840        2.270        0.808      170.874       61.076        0.128      342.597       18.115      863.791
09/28/2013  12:21:00       38.327      -28.777       39.633       49.904       76.281       43.880     2490.374     5818.829     1925.450        0.705        0.512       47.928       49.724        1.076      342.805       18.472      863.793
09/28/2013  12:22:00       64.648     -121.346        8.595       64.498       83.720       53.591     4160.051     7009.055     2871.948        1.651        0.702      137.493       47.944        0.122      342.740       18.359      863.778
09/28/2013  12:23:00       62.127      -15.790       68.586       59.700       99.620       47.824     3564.098     9924.191     2287.111        1.229        0.789       64.102       44.915        0.491      342.633       18.178      863.754
09/28/2013  12:24:00       10.196       27.515       22.236       53.179       38.210       31.144     2828.047     1459.972      969.939        0.331        0.263       29.344       27.291        0.865      342.431       17.835      863.760
09/28/2013  12:25:00      112.845       92.550       31.740       38.712       35.278       28.590     1498.619     1244.529      817.401        1.293        0.178      145.943        6.513        0.002      342.504       17.960      863.726
09/28/2013  12:26:00       71.045       43.086       27.082       52.110       48.229       35.097     2715.466     2326.029     1231.776        0.695        0.314       83.088       24.607        0.088      342.683       18.266      863.712
09/28/2013  12:27:00       51.317       15.324       26.767       55.292       61.339       44.220     3057.189     3762.485     1955.375        0.618        0.439       53.556       38.587        0.519      342.974       18.761      863.685
09/28/2013  12:28:00       74.366       72.967       79.439       59.651       85.793       65.680     3558.215     7360.382     4313.830        1.620        0.762      104.185       61.078        0.344      342.608       18.137      863.669
09/28/2013  12:29:00       92.522      114.391       77.709       80.923       51.062       45.785     6548.520     2607.372     2096.251        1.947        0.563      147.124       43.062        0.086      342.527       17.998      863.669
09/28/2013  12:30:00       52.061       29.280       35.754       41.349       42.748       35.150     1709.761     1827.386     1235.527        0.481        0.239       59.730       18.571        0.097      342.792       18.451      863.630
09/28/2013  12:31:00       36.814       27.986       46.753       61.079       61.879       31.182     3730.676     3829.024      972.326        0.643        0.427       46.244       27.765        0.360      343.229       19.192      863.614
09/28/2013  12:32:00       42.153       68.226       71.407       56.756       64.536       44.321     3221.226     4164.922     1964.383        1.044        0.468       80.198       39.164        0.238      342.940       18.702      863.609
09/28/2013  12:33:00       37.791     -145.937       -9.503       85.033       92.224       44.056     7230.655     8505.228     1940.922        2.024        0.884      150.751       46.782        0.096      342.982       18.771      863.575
09/28/2013  12:34:00       16.234     -109.885        0.878       48.904       46.255       41.748     2391.570     2139.492     1742.856        0.931        0.314      111.078       26.470        0.057      343.223       19.183      863.550
09/28/2013  12:35:00       -9.334       -3.272       31.435       17.331       24.724       24.376      300.356      611.279      594.167        0.130        0.075        9.891       13.049        1.741      343.819       20.200      863.532
09/28/2013  12:36:00       14.089      -36.424       27.771       33.343       53.110       25.866     1111.754     2820.631      669.030        0.345        0.230       39.054       26.376        0.456      343.438       19.551      863.501
09/28/2013  12:37:00      101.887     -137.808        3.031       83.544       47.272       40.355     6979.630     2234.631     1628.488        2.011        0.542      171.383       34.219        0.040      343.260       19.244      863.452
09/28/2013  12:38:00       80.828      -76.243        9.507       62.307       73.515       51.400     3882.199     5404.462     2641.922        1.218        0.596      111.113       48.942        0.194      343.434       19.542      863.443
09/28/2013  12:39:00      108.997     -126.060      -18.333       66.882       77.589       39.572     4473.150     6020.068     1565.966        2.008        0.603      166.647       44.444        0.071      343.209       19.157      863.418
09/28/2013  12:40:00       50.392     -106.282       15.744       63.750      116.286       48.219     4064.012    13522.420     2325.095        1.699        0.996      117.623       59.053        0.252      343.311       19.332      863.404
09/28/2013  12:41:00       44.438     -117.028        8.243       53.527       91.675       50.945     2865.122     8404.274     2595.405        1.480        0.693      125.182       43.414        0.120      343.156       19.068      863.388
09/28/2013  12:42:00       41.683      -76.760        8.836       54.047       70.383       28.792     2921.107     4953.830      828.957        0.820        0.435       87.348       36.207        0.172      343.469       19.602      863.360
09/28/2013  12:43:00       26.316      -11.921       33.313       38.571       65.710       33.698     1487.698     4317.770     1135.560        0.444        0.347       28.890       32.241        1.245      343.507       19.666      863.335
09/28/2013  12:44:00       63.624      -99.785       12.860       86.597      118.264       60.609     7499.126    13986.343     3673.466        1.966        1.258      118.343       79.010        0.446      343.416       19.511      863.307
09/28/2013  12:45:00      146.003     -200.631      -45.002       62.796       76.111       44.042     3943.304     5792.853     1939.665        3.763        0.584      248.132       35.475        0.020      343.202       19.143      863.282
09/28/2013  12:46:00       38.979        4.220       53.339       56.410       53.667       40.358     3182.115     2880.099     1628.759        0.604        0.385       39.207       22.706        0.335      343.693       19.985      863.274
09/28/2013  12:47:00       32.086       27.999       35.481       36.727       34.055       25.260     1348.903     1159.762      638.067        0.311        0.157       42.585       15.542        0.133      343.362       19.421      863.260
09/28/2013  12:48:00       58.487      -23.018       22.591       33.632       55.779       35.132     1131.112     3111.333     1234.276        0.497        0.274       62.853       36.697        0.341      342.946       18.713      863.231
09/28/2013  12:49:00       29.059       22.175       16.404       63.889       64.985       36.632     4081.755     4223.043     1341.903        0.562        0.482       36.553       30.057        0.676      343.155       19.068      863.227
09/28/2013  12:50:00       39.410      -69.064       10.872       41.288       67.459       34.264     1704.681     4550.710     1173.998        0.693        0.371       79.517       31.036        0.152      343.748       20.078      863.224
09/28/2013  12:51:00       39.909      -45.653       26.804       67.222       72.853       51.498     4518.779     5307.629     2652.006        0.843        0.624       60.638       47.302        0.609      344.104       20.686      863.222
09/28/2013  12:52:00       43.083      -64.217       41.646       62.495      107.647       72.057     3905.593    11587.835     5192.145        1.420        1.034       77.330       49.318        0.407      343.839       20.234      863.201
09/28/2013  12:53:00       92.342     -149.267        7.474       58.923      103.551       49.315     3471.920    10722.896     2431.979        2.374        0.831      175.521       55.283        0.099      343.451       19.570      863.214
09/28/2013  12:54:00       96.790      -22.857       77.615      109.762      180.558       95.523    12047.730    32601.050     9124.723        3.483        2.689       99.452      131.379        1.745      343.403       19.489      863.198
09/28/2013  12:55:00       48.126       -0.751       82.595       68.786      139.998       67.979     4731.579    19599.491     4621.104        1.904        1.448       48.132       90.562        3.540      343.334       19.372      863.183
09/28/2013  12:56:00        5.887      -65.938       29.293       39.319       90.451       37.579     1545.988     8181.308     1412.197        0.819        0.557       66.201       40.210        0.369      343.727       20.042      863.180
09/28/2013  12:57:00       81.900      -97.446       32.452       74.614      107.983       63.286     5567.185    11660.315     4005.085        1.924        1.062      127.292       74.612        0.344      343.713       20.018      863.145
09/28/2013  12:58:00      114.226      -55.459       41.731       80.678      104.373       60.535     6508.861    10893.676     3664.439        1.946        1.053      126.978       65.512        0.266      343.639       19.891      863.121
09/28/2013  12:59:00      169.371     -132.868        0.390      124.174      105.841       76.784    15419.157    11202.288     5895.772        3.942        1.626      215.268       73.412        0.116      343.537       19.716      863.070
09/28/2013  13:00:00      219.027     -196.477      -25.583      140.261      147.369       87.865    19673.236    21717.578     7720.314        6.816        2.456      294.238      102.632        0.122      343.700       19.993      863.025
09/28/2013  13:01:00      249.973     -232.516      -60.466      114.154      137.133       68.066    13031.128    18805.459     4632.992        7.833        1.823      341.394       79.028        0.054      343.519       19.684      862.982
09/28/2013  13:02:00      253.112     -256.724      -74.900      123.357      142.794       72.657    15216.993    20390.147     5279.086        8.823        2.044      360.518       75.634        0.044      343.376       19.440      862.960
09/28/2013  13:03:00      180.646     -185.761      -46.387      132.787      172.598       80.772    17632.463    29790.069     6524.125        6.161        2.697      259.114      103.718        0.160      343.379       19.446      862.945
09/28/2013  13:04:00      110.177      -90.288       34.451       89.020      126.069      102.601     7924.552    15893.358    10526.938        2.790        1.717      142.446      106.131        0.555      343.627       19.869      862.925
09/28/2013  13:05:00       34.249       23.126       88.454       64.566       98.265       74.310     4168.783     9656.060     5521.958        1.444        0.967       41.326       67.691        2.683      343.798       20.162      862.914
09/28/2013  13:06:00       67.686     -134.248       23.193       77.220      139.175       60.058     5962.938    19369.619     3606.916        2.603        1.447      150.346       67.736        0.203      343.592       19.811      862.905
09/28/2013  13:07:00      138.021     -190.329       -9.563       56.308      114.635       40.324     3170.622    13141.143     1626.040        3.665        0.897      235.106       38.129        0.026      343.402       19.487      862.891
09/28/2013  13:08:00       65.891      -41.921       12.544       54.653       82.623       40.367     2986.954     6826.628     1629.481        0.885        0.572       78.096       41.192        0.278      343.618       19.856      862.861
09/28/2013  13:09:00       95.140      -43.637       30.314      101.562       99.061       53.598    10314.915     9813.087     2872.735        1.743        1.150      104.670       50.285        0.231      343.570       19.773      862.802
09/28/2013  13:10:00       71.248      -72.317       27.420       76.942      152.652       79.282     5920.047    23302.584     6285.643        2.328        1.775      101.519       92.542        0.831      343.531       19.705      862.783
09/28/2013  13:11:00      238.335     -317.661      -50.504       56.509       78.280       36.734     3193.245     6127.765     1349.388        8.546        0.534      397.130       20.446        0.003      343.501       19.654      862.739
09/28/2013  13:12:00      209.753     -301.118      -34.228       80.702       58.637       44.180     6512.857     3438.320     1951.830        7.387        0.595      366.972       40.914        0.012      343.507       19.663      862.723
09/28/2013  13:13:00       99.835     -147.490       24.866      100.260      159.188       92.429    10052.054    25340.743     8543.086        3.813        2.197      178.102      115.884        0.423      343.788       20.143      862.714
09/28/2013  13:14:00       69.363        0.554       49.315       82.267       99.442       75.447     6767.813     9888.735     5692.225        1.479        1.117       69.365       77.498        1.248      343.661       19.928      862.694
09/28/2013  13:15:00      100.111      -86.350       18.704       78.352      109.451       72.375     6138.960    11979.432     5238.177        2.059        1.168      132.206       71.229        0.290      344.040       20.574      862.696
09/28/2013  13:16:00       95.665     -133.766        1.647       54.148       74.189       44.164     2931.977     5503.981     1950.458        1.872        0.519      164.454       37.893        0.053      343.923       20.375      862.703
09/28/2013  13:17:00      128.598     -126.767      -15.966       91.025      108.638       54.848     8285.599    11802.284     3008.346        2.797        1.155      180.575       61.684        0.117      344.092       20.663      862.685
09/28/2013  13:18:00      100.170      -79.050       40.942       86.500      147.687       97.527     7482.197    21811.364     9511.502        2.837        1.940      127.605      109.947        0.742      344.013       20.529      862.664
09/28/2013  13:19:00       56.371       49.536      120.018       73.265      118.221       93.758     5367.732    13976.318     8790.540        2.408        1.407       75.044       79.883        1.133      343.952       20.425      862.635
09/28/2013  13:20:00      128.197     -164.252       -2.177       84.762      133.342       72.302     7184.651    17780.148     5227.644        3.680        1.510      208.358       70.080        0.113      343.928       20.382      862.597
09/28/2013  13:21:00      149.454     -121.932       42.225      157.298      190.621      122.031    24742.546    36336.464    14891.687        5.746        3.799      192.883      135.648        0.495      344.112       20.696      862.563
09/28/2013  13:22:00      105.900      -36.246       59.169       99.068      191.997       79.812     9814.481    36862.723     6369.981        3.453        2.652      111.931      107.528        0.923      343.811       20.184      862.554
09/28/2013  13:23:00       47.542       53.056       81.343       83.094      135.797      102.970     6904.657    18440.749    10602.916        2.381        1.797       71.241      111.013        2.428      343.876       20.294      862.559
09/28/2013  13:24:00       66.525     -120.794        0.874       72.964       98.655       59.821     5323.748     9732.903     3578.553        1.882        0.932      137.901       54.283        0.155      344.215       20.875      862.550
09/28/2013  13:25:00      121.677     -141.637      -36.831       84.395       95.543       63.330     7122.493     9128.456     4010.659        2.824        1.013      186.725       46.598        0.062      344.061       20.609      862.526
09/28/2013  13:26:00      136.613     -137.575       -4.710       61.980       73.014       46.074     3841.553     5331.011     2122.775        2.445        0.565      193.882       47.617        0.060      343.716       20.021      862.530
09/28/2013  13:27:00       40.854      -47.888       14.323       38.411       67.606       30.186     1475.403     4570.510      911.173        0.556        0.348       62.946       35.779        0.323      343.908       20.352      862.502
09/28/2013  13:28:00      102.297       33.631       51.019      122.050       84.266       58.332    14896.268     7100.772     3402.672        1.979        1.270      107.684       56.466        0.275      343.844       20.243      862.484
09/28/2013  13:29:00       71.984       61.475       61.538       94.614       77.591       63.449     8951.836     6020.378     4025.831        1.587        0.950       94.662       40.000        0.179      344.007       20.519      862.470
09/28/2013  13:30:00       87.307      -14.998       40.485       94.657       95.754       59.824     8960.037     9168.810     3578.920        1.559        1.085       88.586       66.739        0.568      343.991       20.492      862.492
09/28/2013  13:31:00       69.878      -80.995       48.505       99.647      139.732       93.767     9929.450    19524.928     8792.184        2.601        1.912      106.972      107.683        1.013      344.423       21.229      862.484
09/28/2013  13:32:00      110.114       -9.173       61.717      101.637      137.002       98.998    10330.164    18769.499     9800.563        2.745        1.945      110.496      107.768        0.951      343.822       20.203      862.476
09/28/2013  13:33:00      136.521      -36.216       44.503       95.661       85.629       66.874     9150.943     7332.289     4472.127        2.144        1.048      141.243       71.984        0.260      343.750       20.079      862.467
09/28/2013  13:34:00       44.584        1.928       47.808       80.343       90.161       59.735     6454.987     8129.064     3568.216        1.121        0.908       44.626       61.390        1.892      344.200       20.851      862.473
09/28/2013  13:35:00       76.798     -173.300       15.309       79.760      103.237       57.986     6361.581    10657.862     3362.413        2.827        1.019      189.555       60.995        0.104      344.162       20.782      862.474
09/28/2013  13:36:00       42.890      -94.874       30.632       66.606       85.235       60.183     4436.413     7265.047     3622.037        1.355        0.766      104.118       51.275        0.243      344.481       21.331      862.466
09/28/2013  13:37:00      -60.288      -75.460       -3.745      121.967       94.137       56.099    14876.008     8861.858     3147.122        1.811        1.344       96.586       39.871        0.170      344.480       21.327      862.469
09/28/2013  13:38:00      -73.042      -38.734       -0.616       68.654       57.317       49.862     4713.354     3285.257     2486.220        0.866        0.524       82.677       45.532        0.303      344.402       21.195      862.455
09/28/2013  13:39:00       13.298      -93.767       -7.037       62.384       72.552       40.970     3891.706     5263.765     1678.519        0.992        0.542       94.705       31.134        0.108      344.463       21.299      862.445
09/28/2013  13:40:00       87.737     -127.285       -8.717       56.087       52.244       39.829     3145.703     2729.455     1586.344        1.572        0.373      154.594       30.565        0.039      344.094       20.668      862.433
09/28/2013  13:41:00     -118.029      -82.002      -11.637       79.918       99.490       45.007     6386.843     9898.343     2025.661        1.955        0.916      143.719       40.695        0.080      344.235       20.909      862.422
09/28/2013  13:42:00      -69.262      -14.782        7.930       50.592       42.550       31.155     2559.532     1810.536      970.641        0.521        0.267       70.822       20.810        0.086      344.552       21.451      862.403
09/28/2013  13:43:00      -76.855      -23.303       -1.065       71.552       30.549       21.711     5119.688      933.233      471.352        0.649        0.326       80.310       15.430        0.037      344.463       21.298      862.382
09/28/2013  13:44:00        0.012       -4.686       19.678       49.644       30.206       30.824     2464.563      912.412      950.124        0.237        0.216        4.686       28.639       37.351      344.549       21.445      862.348
09/28/2013  13:45:00       26.832      -77.990        0.679       33.187       36.825       30.075     1101.378     1356.061      904.519        0.508        0.168       82.476       21.095        0.065      344.300       21.020      862.280
09/28/2013  13:46:00       16.906      -28.351       -2.110       18.580       38.750       25.420      345.222     1501.555      646.198        0.179        0.125       33.009       25.790        0.610      344.471       21.314      862.252
09/28/2013  13:47:00       -5.379      -14.143       26.589       21.256       57.370       33.979      451.837     3291.346     1154.599        0.292        0.245       15.131       39.249        6.728      344.408       21.206      862.279
09/28/2013  13:48:00        6.152      -67.958        4.758       65.629       63.320       38.742     4307.104     4009.445     1500.926        0.725        0.491       68.236       31.085        0.208      344.822       21.915      862.290
09/28/2013  13:49:00       79.977     -132.523       -4.441       88.770       80.190       52.369     7880.059     6430.377     2742.524        2.051        0.853      154.786       48.255        0.097      344.771       21.825      862.286
09/28/2013  13:50:00       29.016     -131.645       13.529       91.562       99.269       70.672     8383.689     9854.379     4994.517        2.079        1.162      134.805       38.555        0.082      344.746       21.783      862.276
09/28/2013  13:51:00      -15.384      -54.430       30.346       55.916       67.530       34.730     3126.577     4560.271     1206.205        0.650        0.445       56.563       29.406        0.270      344.878       22.009      862.259
09/28/2013  13:52:00       57.672        0.606       68.529       86.577       86.032       53.722     7495.621     7401.459     2886.105        1.290        0.889       57.675       52.811        0.838      344.725       21.746      862.246
09/28/2013  13:53:00       -3.993       30.212       46.475       31.976       34.683       27.544     1022.465     1202.936      758.676        0.304        0.149       30.475       20.554        0.455      344.866       21.989      862.219
09/28/2013  13:54:00       14.753      -35.332       22.259       38.843       50.928       39.831     1508.772     2593.709     1586.527        0.382        0.284       38.288       22.616        0.349      344.418       21.222      862.204
09/28/2013  13:55:00       25.196     -131.398      -18.112       49.806       50.559       28.387     2480.652     2556.163      805.796        1.203        0.292      133.792       22.155        0.027      344.428       21.241      862.193
09/28/2013  13:56:00       48.035     -100.610       14.998       99.879       68.086       53.578     9975.768     4635.686     2870.614        1.506        0.874      111.489       49.860        0.200      344.796       21.866      862.212
09/28/2013  13:57:00       34.182      -69.979       10.883       82.216       77.511       38.318     6759.492     6007.896     1468.239        1.021        0.712       77.881       46.168        0.351      344.618       21.566      862.224
09/28/2013  13:58:00       59.662     -174.954       13.194       91.604       71.307       53.105     8391.212     5084.649     2820.181        2.532        0.815      184.847       47.067        0.065      344.547       21.440      862.220
09/28/2013  13:59:00       64.049     -193.672       -9.422      140.161       95.000       57.754    19645.090     9025.024     3335.539        3.685        1.600      203.988       55.172        0.073      344.560       21.463      862.204
09/28/2013  14:00:00      130.715        3.089       46.411       99.714      113.791       70.870     9942.856    12948.465     5022.530        2.358        1.396      130.752       50.471        0.149      344.687       21.683      862.160
09/28/2013  14:01:00      257.855      188.405       92.308      103.782       83.540       84.622    10770.646     6978.954     7160.956        6.770        1.246      319.352       51.552        0.026      344.497       21.352      862.030
09/28/2013  14:02:00       74.803       29.350       98.484       89.757       98.497       66.774     8056.349     9701.585     4458.790        1.918        1.111       80.355       73.943        0.847      344.607       21.545      862.024
09/28/2013  14:03:00       39.216      -22.536       35.518       59.718       51.447       38.337     3566.275     2646.829     1469.699        0.549        0.384       45.230       37.407        0.684      344.647       21.615      862.031
09/28/2013  14:04:00       97.526      -95.524       14.784       68.417       84.949       42.402     4680.869     7216.255     1797.937        1.627        0.685      136.515       46.820        0.118      344.355       21.112      861.984
09/28/2013  14:05:00       64.024      -78.508       17.364       70.622       84.085       46.407     4987.457     7070.205     2153.601        1.238        0.711      101.304       53.026        0.274      344.819       21.906      861.972
09/28/2013  14:06:00      160.584     -141.627        7.142      112.065      169.883       88.947    12558.480    28860.209     7911.649        4.760        2.467      214.116      105.774        0.244      344.876       22.005      861.992
09/28/2013  14:07:00      157.676     -246.713      -35.605       90.461       97.327       58.091     8183.245     9472.616     3374.606        5.401        1.052      292.795       54.268        0.034      344.832       21.926      862.036
09/28/2013  14:08:00       31.106     -119.409       22.167       94.691       64.456       61.297     8966.314     4154.526     3757.292        1.629        0.844      123.394       48.667        0.156      345.042       22.289      862.017
09/28/2013  14:09:00       29.272     -101.759        4.953       69.725       89.804       53.911     4861.599     8064.830     2906.414        1.353        0.792      105.886       50.094        0.224      345.064       22.327      862.009
09/28/2013  14:10:00       -1.827       21.389       52.768       53.330       66.354       46.806     2844.064     4402.835     2190.816        0.634        0.472       21.466       40.345        3.532      345.178       22.523      861.980
09/28/2013  14:11:00      -66.518      -18.862        1.498       89.260       61.443       41.680     7967.437     3775.245     1737.188        0.913        0.674       69.140       50.918        0.542      345.290       22.715      861.974
09/28/2013  14:12:00     -319.496      -64.072      -23.907      165.498      109.124       45.831    27389.689    11908.127     2100.439        7.407        2.070      325.858       50.164        0.024      345.071       22.337      861.970
09/28/2013  14:13:00     -337.923     -113.760      -20.488      219.150      153.623       81.611    48026.748    23599.930     6660.365       10.290        3.914      356.558       89.460        0.063      344.966       22.156      861.968
09/28/2013  14:14:00     -294.980     -194.171        0.453      194.710      103.531       79.093    37911.903    10718.608     6255.744        8.979        2.744      353.151       80.579        0.052      345.231       22.609      862.020
09/28/2013  14:15:00     -246.854     -184.028       -8.293      108.975       91.012       58.702    11875.638     8283.169     3445.929        5.923        1.180      307.901       56.472        0.034      345.339       22.794      862.049
09/28/2013  14:16:00     -169.891     -239.042      -10.019      141.328       78.075       64.058    19973.530     6095.761     4103.386        5.813        1.509      293.265       61.762        0.044      345.096       22.378      862.032
09/28/2013  14:17:00      -93.423     -269.183       15.536       87.495      135.718       54.098     7655.363    18419.357     2926.630        5.521        1.450      284.934       70.944        0.062      345.127       22.432      862.065
09/28/2013  14:18:00     -108.481     -160.581        6.171       72.155       64.097       46.579     5206.384     4108.374     2169.617        2.454        0.574      193.790       34.172        0.031      345.046       22.293      862.032
09/28/2013  14:19:00     -149.918      -91.453      -14.427       86.535       46.195       27.440     7488.337     2134.015      752.977        2.071        0.519      175.611       20.259        0.013      345.113       22.410      862.016
09/28/2013  14:20:00     -256.100     -117.937        8.535      165.964      117.291       60.480    27544.038    13757.192     3657.855        6.226        2.248      281.951       55.465        0.039      345.283       22.698      862.057
09/28/2013  14:21:00     -335.943     -189.857       -1.126      210.240      120.422       81.830    44201.049    14501.396     6696.187       10.714        3.270      385.880       89.993        0.054      345.196       22.550      862.050
09/28/2013  14:22:00     -368.631     -271.073       -7.665      187.566      160.337       80.349    35181.135    25708.056     6456.021       13.837        3.367      457.569       69.119        0.023      345.100       22.385      862.016
09/28/2013  14:23:00     -373.882     -275.093       -8.199      221.274      174.185       99.783    48962.283    30340.277     9956.548       15.238        4.463      464.181      118.275        0.065      345.129       22.435      861.999
09/28/2013  14:24:00     -383.431     -218.054      -11.667      227.330      150.944       90.101    51678.959    22784.165     8118.108       13.863        4.129      441.098       93.290        0.045      345.027       22.260      862.022
09/28/2013  14:25:00     -259.651     -221.491        2.189      163.305      143.507       76.870    26668.422    20594.119     5908.980        8.482        2.659      341.286       81.056        0.056      345.198       22.554      862.042
09/28/2013  14:26:00     -313.819      -93.730       -9.107      123.703      113.998       66.786    15302.349    12995.539     4460.403        7.005        1.638      327.518       73.531        0.050      345.232       22.611      862.043
09/28/2013  14:27:00     -316.570     -253.854       13.574      256.277      189.742      111.355    65677.851    36002.142    12399.875       13.944        5.704      405.781      131.998        0.106      345.157       22.483      862.028
09/28/2013  14:28:00     -415.442     -299.274      -15.359      225.286      188.198      102.584    50753.770    35418.381    10523.496       17.952        4.835      512.013      108.843        0.045      345.052       22.302      861.987
09/28/2013  14:29:00     -473.060     -313.333      -17.932      216.640      143.282      107.339    46933.025    20529.656    11521.764       20.062        3.949      567.418      103.140        0.033      345.031       22.270      862.012
09/28/2013  14:30:00     -444.207     -271.140      -27.879      233.198      157.415       84.792    54381.458    24779.611     7189.628       17.896        4.318      520.420       90.525        0.030      345.129       22.435      861.999
09/28/2013  14:31:00     -483.091     -302.185      -31.668      256.714      143.328      109.543    65902.321    20542.916    11999.736       21.205        4.922      569.818       97.386        0.029      344.955       22.137      861.980
09/28/2013  14:32:00     -238.213     -256.147        6.269      192.983      170.169       99.732    37242.397    28957.480     9946.391        9.926        3.807      349.795      106.653        0.093      345.122       22.424      861.986
09/28/2013  14:33:00     -387.296     -168.448      -22.514      216.606      144.134       74.444    46918.005    20774.512     5541.916       12.604        3.662      422.342       89.659        0.045      345.071       22.338      861.963
09/28/2013  14:34:00     -229.394     -135.134       17.707      151.220      128.933       78.464    22867.415    16623.754     6156.524        5.841        2.282      266.239       85.902        0.104      345.264       22.667      861.976
09/28/2013  14:35:00     -343.943     -155.143      -13.162      220.500      178.751       87.009    48620.396    31951.982     7570.519       11.532        4.407      377.314      100.291        0.071      345.269       22.674      861.952
09/28/2013  14:36:00     -354.798     -205.763       -9.609      223.958      147.544       83.559    50157.173    21769.318     6982.107       12.359        3.945      410.146       91.386        0.050      345.302       22.732      861.945
09/28/2013  14:37:00     -472.557     -146.647      -27.102      193.003      160.127       86.307    37250.220    25640.686     7448.883       15.793        3.517      494.788      101.566        0.042      345.179       22.521      861.971
09/28/2013  14:38:00     -392.463     -249.900       -5.118      206.265      200.596       90.349    42545.186    40238.731     8162.968       15.371        4.547      465.272      105.163        0.051      345.130       22.436      861.975
09/28/2013  14:39:00     -363.400     -186.073       15.124      228.326      163.811      100.194    52132.723    26834.072    10038.758       12.794        4.450      408.269      116.650        0.082      345.203       22.562      861.947
09/28/2013  14:40:00     -346.921     -318.095       -0.994      211.930      151.562       89.368    44914.299    22970.936     7986.566       14.869        3.794      470.678       89.849        0.036      345.299       22.727      861.949
09/28/2013  14:41:00     -440.499     -303.371      -10.707      218.139      173.877       95.417    47584.836    30233.355     9104.472       18.654        4.346      534.858       99.572        0.035      345.164       22.496      861.923
09/28/2013  14:42:00     -301.056     -151.613       -0.969      171.404      164.986       70.127    29379.390    27220.392     4917.796        8.756        3.076      337.078       75.853        0.051      345.315       22.752      861.913
09/28/2013  14:43:00     -163.415     -235.331       13.172      152.403      164.658       80.707    23226.660    27112.242     6513.567        6.954        2.843      286.505       77.167        0.073      345.474       23.027      861.944
09/28/2013  14:44:00     -324.125     -230.737      -19.641      166.476      139.378       73.565    27714.198    19426.192     5411.772       10.561        2.628      397.865       70.319        0.031      345.307       22.740      861.932
09/28/2013  14:45:00     -180.495     -257.872        2.042      167.617      137.458       73.104    28095.525    18894.568     5344.137        7.570        2.617      314.764       78.032        0.061      345.305       22.738      861.911
09/28/2013  14:46:00     -165.666     -209.965       -9.414      169.982      179.072       74.802    28893.860    32066.629     5595.328        6.907        3.328      267.452       75.299        0.079      345.427       22.946      861.868
09/28/2013  14:47:00     -224.019     -341.273       13.503      200.099      205.382       95.745    40039.634    42181.748     9167.136       12.909        4.569      408.231      111.952        0.075      345.368       22.844      861.857
09/28/2013  14:48:00     -178.832     -251.513        2.347      167.224      162.078       87.617    27963.710    26269.416     7676.789        7.857        3.095      308.609       79.179        0.066      345.443       22.973      861.876
09/28/2013  14:49:00     -158.825     -138.734       21.971      162.880      120.056       75.491    26529.983    14413.541     5698.871        4.579        2.332      210.885       71.645        0.115      345.651       23.331      861.891
09/28/2013  14:50:00     -272.993     -195.166        3.403      109.797      108.551       64.933    12055.480    11783.283     4216.315        7.034        1.403      335.581       56.200        0.028      345.618       23.275      861.893
09/28/2013  14:51:00     -251.384     -205.338       23.752      207.226      167.888       79.730    42942.620    28186.531     6356.890        9.169        3.874      324.588       97.907        0.091      345.386       22.877      861.887
09/28/2013  14:52:00     -310.164     -351.214        2.850      164.938      194.839       88.169    27204.640    37962.073     7773.856       14.624        3.647      468.565       84.640        0.033      345.110       22.403      861.863
09/28/2013  14:53:00     -266.681     -235.574       -5.596      173.390      167.924       66.796    30063.982    28198.538     4461.756        9.467        3.136      355.828       69.995        0.039      345.360       22.831      861.864
09/28/2013  14:54:00     -296.877     -327.379       -3.212      230.424      188.997      113.203    53095.019    35719.953    12814.888       14.846        5.081      441.942      103.917        0.055      345.334       22.786      861.844
09/28/2013  14:55:00     -252.577     -326.320       16.997      208.457      172.332      106.219    43454.328    29698.176    11282.549       12.748        4.222      412.650      103.483        0.063      345.316       22.755      861.873
09/28/2013  14:56:00     -264.601     -386.426       -8.853      197.184      194.611      126.339    38881.560    37873.268    15961.482       15.605        4.636      468.336      117.533        0.063      345.197       22.553      861.870
09/28/2013  14:57:00     -223.736     -354.665       -3.491      145.260      149.874       83.514    21100.392    22462.160     6974.586       11.319        2.527      419.339       68.030        0.026      345.064       22.323      861.890
09/28/2013  14:58:00     -191.366     -249.901      -10.472      109.025      141.899       81.300    11886.532    20135.420     6609.701        6.890        1.932      314.756       67.067        0.045      345.360       22.830      861.899
09/28/2013  14:59:00     -249.785     -308.716       -7.392      195.269      132.910       81.073    38129.930    17665.076     6572.860       11.005        3.118      397.113       73.077        0.034      345.234       22.614      861.885
09/28/2013  15:00:00     -442.316     -321.970      -24.884      201.442      160.167       96.236    40578.929    25653.460     9261.387       18.770        3.775      547.091       96.120        0.031      345.239       22.623      861.867
09/28/2013  15:01:00     -359.961     -262.411       -8.513      211.118      128.029       90.640    44570.638    16391.484     8215.523       13.383        3.459      445.456       85.911        0.037      345.395       22.891      861.886
09/28/2013  15:02:00     -474.740     -323.555       -4.613      215.661      141.776       77.402    46509.600    20100.455     5991.091       20.133        3.630      574.513       83.069        0.021      345.171       22.508      861.912
09/28/2013  15:03:00     -307.115     -227.956      -17.836      172.864      142.481       75.978    29881.813    20300.815     5772.722       10.127        2.798      382.471       86.874        0.052      345.240       22.623      861.892
09/28/2013  15:04:00     -285.841     -227.165       -1.028      175.225      128.466       80.502    30703.878    16503.597     6480.636        9.349        2.684      365.115       98.898        0.073      345.162       22.493      861.842
09/28/2013  15:05:00     -248.821     -267.525       -2.732      119.201       83.238       65.109    14208.995     6928.590     4239.174        7.943        1.269      365.351       56.314        0.024      345.216       22.585      861.818
09/28/2013  15:06:00     -226.407     -137.529      -11.460      136.289       77.302       38.566    18574.789     5975.622     1487.346        4.817        1.302      264.905       42.320        0.026      345.311       22.746      861.803
09/28/2013  15:07:00     -163.633     -191.587       -7.992      109.446      103.513       53.833    11978.492    10715.003     2897.994        4.456        1.280      251.955       46.687        0.034      345.530       23.123      861.805
09/28/2013  15:08:00     -217.584     -247.254        7.790      143.579      221.277       79.450    20614.970    48963.609     6312.305        9.220        3.795      329.359       61.398        0.035      345.646       23.322      861.816
09/28/2013  15:09:00     -250.740     -320.330      -12.269      143.729      166.294       83.242    20657.952    27653.629     6929.153       11.043        2.762      406.795       82.207        0.041      345.457       22.998      861.822
09/28/2013  15:10:00     -219.474     -349.407        2.432      168.302      182.689       69.272    28325.698    33375.432     4798.639       11.837        3.325      412.619       59.915        0.021      345.325       22.769      861.854
09/28/2013  15:11:00     -283.235     -399.419      -18.926      157.795      187.048       79.650    24899.309    34986.882     6344.172       15.316        3.312      489.650       74.980        0.023      345.187       22.534      861.817
09/28/2013  15:12:00     -147.129     -316.029       -5.020      156.161      210.824       84.481    24386.390    44446.787     7137.063        9.874        3.799      348.599       92.646        0.071      345.238       22.622      861.827
09/28/2013  15:13:00      -80.408     -157.133       14.311      118.217      149.215       63.505    13975.241    22265.232     4032.832        3.581        2.014      176.511       57.066        0.105      345.534       23.131      861.777
09/28/2013  15:14:00     -358.192     -332.436      -12.012      186.840      180.946       84.810    34909.271    32741.542     7192.723       15.689        3.742      488.687       80.834        0.027      345.393       22.889      861.781
09/28/2013  15:15:00     -317.283     -339.616       -5.607      246.646      194.414      104.334    60834.163    37796.731    10885.561       16.276        5.476      464.766      118.136        0.065      345.378       22.862      861.795
09/28/2013  15:16:00     -483.304     -210.985       10.560      278.667      187.325      112.821    77655.282    35090.590    12728.675       20.182        6.274      527.349      134.782        0.065      345.185       22.531      861.762
09/28/2013  15:17:00     -411.499     -114.639       28.957      268.383      159.905       99.983    72029.656    25569.683     9996.603       14.543        5.380      427.169      131.337        0.095      345.194       22.546      861.760
09/28/2013  15:18:00     -132.742     -191.324       24.468      141.435      184.600       73.351    20003.839    34077.332     5380.400        5.713        2.973      232.864       88.894        0.146      345.339       22.796      861.771
09/28/2013  15:19:00     -215.114     -219.434       -5.150      131.544      141.548       67.741    17303.841    20035.860     4588.842        6.818        2.096      307.287       46.036        0.022      345.292       22.714      861.781
09/28/2013  15:20:00     -147.877      -71.783       36.523      215.088      132.047       90.568    46263.008    17436.479     8202.577        5.011        3.595      164.379      105.867        0.415      345.582       23.214      861.745
09/28/2013  15:21:00     -172.582     -214.049        5.030      138.483      177.591       62.458    19177.678    31538.421     3900.945        6.511        2.731      274.957       70.630        0.066      345.614       23.265      861.751
09/28/2013  15:22:00     -212.379     -283.592      -20.672      186.842      139.594       80.018    34910.072    19486.388     6402.802        9.337        3.040      354.301       78.841        0.050      345.511       23.090      861.741
09/28/2013  15:23:00      -49.433     -211.599        4.318      110.737      145.023       82.876    12262.577    21031.693     6868.435        4.369        2.008      217.296       73.403        0.114      345.452       22.988      861.758
09/28/2013  15:24:00     -251.519     -100.042       10.524      151.139       90.291       80.151    22843.009     8152.505     6424.179        5.539        1.871      270.684       79.446        0.086      345.596       23.236      861.740
09/28/2013  15:25:00     -230.065     -195.583        4.483      178.015      123.374       72.586    31689.377    15221.153     5268.796        7.168        2.609      301.965       76.471        0.064      345.498       23.068      861.705
09/28/2013  15:26:00     -242.348     -204.963        7.596      172.677      119.020       64.034    29817.506    14165.825     4100.415        7.443        2.404      317.399       53.609        0.029      345.576       23.201      861.707
09/28/2013  15:27:00     -200.784      -94.778       -1.756      105.021       81.208       46.325    11029.505     6594.774     2145.978        3.453        0.989      222.030       53.443        0.058      345.527       23.118      861.691
09/28/2013  15:28:00     -145.115     -131.652       -0.624      117.371      117.335       50.959    13775.852    13767.556     2596.784        3.426        1.507      195.935       57.795        0.087      345.519       23.104      861.685
09/28/2013  15:29:00     -126.324     -102.071        2.744      142.617      119.841       60.876    20339.746    14361.915     3705.866        3.239        1.920      162.408       67.879        0.175      345.648       23.327      861.675
09/28/2013  15:30:00     -110.956     -120.077       20.179       94.861      116.075       57.181     8998.619    13473.405     3269.637        2.643        1.287      163.493       62.203        0.145      345.605       23.253      861.665
09/28/2013  15:31:00      -89.375     -129.571       -3.781       93.720       98.273       52.993     8783.394     9657.575     2808.278        2.302        1.062      157.405       55.771        0.126      345.606       23.254      861.646
09/28/2013  15:32:00     -135.127      -55.487       21.426      131.870       91.789       61.908    17389.605     8425.228     3832.646        2.572        1.482      146.075       62.826        0.185      345.797       23.582      861.632
09/28/2013  15:33:00     -432.434     -325.269      -10.222      250.930      161.185       88.040    62965.831    25980.447     7751.059       19.478        4.835      541.109       99.235        0.034      345.276       22.687      861.635
09/28/2013  15:34:00     -375.491     -184.656      -13.423      154.275      175.293       95.278    23800.681    30727.795     9077.915       11.943        3.180      418.439       92.519        0.049      345.219       22.590      861.628
09/28/2013  15:35:00     -329.940      -52.411       -3.968      207.140      136.181       69.297    42906.818    18545.258     4802.114        8.893        3.313      334.077       64.671        0.037      345.267       22.671      861.606
09/28/2013  15:36:00     -325.821     -171.197       -8.969      215.410      192.044       89.003    46401.450    36880.839     7921.464       11.336        4.560      368.059       96.203        0.068      345.166       22.498      861.591
09/28/2013  15:37:00     -286.281     -217.876       10.390      180.482      166.308       92.723    32573.618    27658.218     8597.507        9.917        3.441      359.760       81.307        0.051      345.078       22.348      861.574
09/28/2013  15:38:00     -440.058     -334.163      -10.033      220.483      177.245      105.282    48612.944    31415.629    11084.305       19.825        4.556      552.554      105.412        0.036      345.000       22.215      861.572
09/28/2013  15:39:00     -356.416     -203.182      -10.245      204.067      128.472       84.187    41643.428    16504.978     7087.381       11.681        3.262      410.262      107.523        0.069      345.051       22.302      861.553
09/28/2013  15:40:00     -272.612     -106.074       -0.334      150.508      106.643       62.360    22652.681    11372.649     3888.708        6.173        1.896      292.522       70.535        0.058      345.197       22.552      861.573
09/28/2013  15:41:00     -365.068     -210.155      -26.913      201.604      152.755       82.863    40644.095    23334.023     6866.201       12.449        3.542      421.236      105.317        0.063      345.173       22.509      861.587
09/28/2013  15:42:00     -384.925       -8.676        0.960      213.985      145.157       92.002    45789.764    21070.630     8464.399       11.177        3.766      385.023       79.651        0.043      345.155       22.480      861.557
09/28/2013  15:43:00     -353.947     -156.817      -13.709      146.774      107.770       69.104    21542.694    11614.299     4775.398        9.399        1.897      387.131       63.864        0.027      345.212       22.576      861.583
09/28/2013  15:44:00     -217.648     -134.222        8.628      164.579      177.837       68.935    27086.284    31626.013     4752.078        6.445        3.173      255.707       83.502        0.107      345.228       22.606      861.611
09/28/2013  15:45:00     -342.277     -218.781      -13.730      180.304      160.339       80.341    32509.449    25708.514     6454.725       11.493        3.234      406.225       94.153        0.054      345.147       22.466      861.582
09/28/2013  15:46:00     -321.359     -211.267        4.210      215.670      164.529      100.199    46513.355    27069.767    10039.771       11.576        4.181      384.585      103.220        0.072      345.141       22.457      861.574
09/28/2013  15:47:00     -456.743     -332.587      -19.570      215.242      157.165      100.835    46329.102    24700.696    10167.725       20.039        4.060      565.003      102.358        0.033      345.055       22.310      861.590
09/28/2013  15:48:00     -486.861     -336.125       -4.231      248.946      207.886      101.944    61974.116    43216.457    10392.547       23.278        5.779      591.619      110.121        0.035      345.024       22.257      861.573
09/28/2013  15:49:00     -354.503     -203.177       -5.632      217.679      153.583       89.956    47384.166    23587.806     8092.057       12.301        3.953      408.599      103.332        0.064      345.128       22.434      861.575
09/28/2013  15:50:00     -530.977     -326.198      -31.522      209.842      164.444       85.796    44033.755    27041.696     7360.970       23.387        3.922      623.171       83.854        0.018      345.161       22.489      861.581
09/28/2013  15:51:00     -361.263     -191.582      -26.984      204.968      203.462       82.962    42011.983    41396.658     6882.700       12.910        4.515      408.919      101.113        0.061      345.144       22.462      861.606
09/28/2013  15:52:00     -389.948     -178.858      -25.989      209.997      180.663       80.326    44098.701    32639.139     6452.256       13.394        4.160      429.010       86.119        0.040      345.222       22.594      861.595
09/28/2013  15:53:00     -284.883     -138.224       -3.702      139.546      111.422       75.775    19472.985    12414.893     5741.785        6.895        1.881      316.645       82.032        0.067      345.298       22.724      861.612
09/28/2013  15:54:00     -256.928     -110.814       -1.792      162.999       83.973       59.975    26568.674     7051.519     3597.052        5.775        1.861      279.807       59.059        0.045      345.356       22.825      861.604
09/28/2013  15:55:00     -254.424     -216.388        6.753      225.422      189.862      100.010    50815.208    36047.643    10001.989       10.421        4.843      333.999      118.930        0.127      345.283       22.700      861.619
09/28/2013  15:56:00     -437.578     -332.111        0.653      222.069      164.668      104.967    49314.738    27115.544    11018.112       19.459        4.372      549.338      105.619        0.037      345.123       22.425      861.567
09/28/2013  15:57:00     -245.206     -186.706        8.192      150.884      147.451       74.632    22765.948    21741.700     5569.879        7.255        2.504      308.196       67.410        0.048      345.237       22.620      861.610
09/28/2013  15:58:00     -180.408     -100.628       16.581      191.117      117.849       68.920    36525.855    13888.297     4749.953        4.904        2.758      206.574       85.474        0.171      345.202       22.561      861.630
09/28/2013  15:59:00     -163.509      -88.822        6.309      132.632       98.954       57.205    17591.295     9791.882     3272.452        3.265        1.533      186.077       69.602        0.140      345.282       22.699      861.643
09/28/2013  16:00:00     -414.537     -144.394      -12.407      224.780      196.527       87.770    50526.269    38622.808     7703.580       14.483        4.843      438.966       99.456        0.051      345.149       22.471      861.649
09/28/2013  16:01:00     -245.905     -122.658       -7.331      154.551      130.904       76.142    23886.095    17135.979     5797.674        6.118        2.341      274.798       70.753        0.066      345.107       22.399      861.663
09/28/2013  16:02:00     -347.294     -258.204       -3.211      199.481      156.033       81.158    39792.806    24346.229     6586.564       12.899        3.536      432.762       67.468        0.024      345.023       22.255      861.673
09/28/2013  16:03:00     -463.632     -320.704      -17.547      249.537      183.925      106.193    62268.877    33828.277    11276.919       21.272        5.369      563.743      123.677        0.048      344.970       22.163      861.664
09/28/2013  16:04:00     -278.616     -199.724        9.197      179.203      133.051       98.869    32113.658    17702.633     9774.985        8.858        2.980      342.807       97.424        0.081      344.983       22.187      861.670
09/28/2013  16:05:00     -358.333      -88.183       -9.699      170.518      168.318       68.873    29076.296    28330.931     4743.457        9.920        3.108      369.024       80.633        0.048      345.015       22.242      861.679
09/28/2013  16:06:00     -308.897     -129.013      -13.840      184.871      114.365       61.072    34177.323    13079.430     3729.801        8.161        2.549      334.756       81.454        0.059      345.036       22.278      861.706
09/28/2013  16:07:00     -524.855     -103.093      -11.950      200.599      178.045       86.479    40240.051    31700.120     7478.567       18.282        3.971      534.885       97.225        0.033      344.918       22.076      861.680
09/28/2013  16:08:00     -363.471     -112.149       -6.349      191.490      144.284       80.304    36668.246    20817.961     6448.809       10.432        3.197      380.380       96.815        0.065      344.956       22.140      861.693
09/28/2013  16:09:00     -348.892     -228.256      -14.937      199.156      153.163      102.084    39663.211    23458.878    10421.087       12.378        3.677      416.925      115.218        0.076      344.875       22.001      861.681
09/28/2013  16:10:00     -332.183     -231.264       -5.155      138.455      113.457       84.304    19169.864    12872.521     7107.161       10.149        1.957      404.757       80.495        0.040      344.861       21.978      861.672
09/28/2013  16:11:00     -440.579     -117.495       -8.386      289.953      195.023       90.042    84072.799    38034.098     8107.565       16.907        6.511      455.977      130.028        0.081      344.859       21.973      861.676
09/28/2013  16:12:00     -420.294      -80.114      -25.669      170.226      173.705       88.827    28976.931    30173.473     7890.168       12.537        3.352      427.861       88.800        0.043      344.848       21.955      861.657
09/28/2013  16:13:00     -409.977      -70.555      -18.211      205.649      143.571       95.094    42291.640    20612.620     9042.790       12.265        3.597      416.004      101.132        0.059      344.879       22.009      861.639
09/28/2013  16:14:00     -344.973     -303.129      -12.131      180.236      207.488      103.938    32484.952    43051.324    10803.004       14.867        4.317      459.232      111.064        0.058      344.877       22.003      861.664
09/28/2013  16:15:00     -423.755     -164.865      -19.097      233.416      160.526       98.996    54482.918    25768.445     9800.189       14.856        4.503      454.697       98.187        0.047      344.976       22.173      861.695
09/28/2013  16:16:00     -272.950     -225.668      -10.441      167.896      164.345       82.733    28188.901    27009.423     6844.728        9.378        3.102      354.158       86.460        0.060      344.996       22.208      861.689
09/28/2013  16:17:00     -346.064     -261.789        0.623      204.041      166.334       98.799    41632.635    27666.939     9761.222       13.366        3.953      433.929      105.235        0.059      345.019       22.246      861.673
09/28/2013  16:18:00     -423.319     -223.752      -12.943      255.731      209.525      106.695    65398.534    43900.701    11383.808       17.503        6.034      478.815      125.173        0.068      345.116       22.413      861.671
09/28/2013  16:19:00     -572.817     -190.355       -9.276      289.432      185.287      108.164    83770.603    34331.310    11699.486       24.710        6.490      603.618      127.138        0.044      345.129       22.435      861.636
09/28/2013  16:20:00     -445.981     -212.303       -4.776      282.101      211.464      106.672    79580.770    44717.080    11378.884       18.981        6.784      493.935      125.637        0.065      345.109       22.402      861.674
09/28/2013  16:21:00     -602.284     -138.987      -25.815      268.034      178.370      117.545    71842.210    31815.970    13816.937       25.008        5.874      618.113      140.125        0.051      345.071       22.337      861.672
09/28/2013  16:22:00     -337.877     -160.112        5.507      251.298      179.830       92.723    63150.625    32338.951     8597.513       12.194        5.204      373.894      111.932        0.090      345.141       22.455      861.674
09/28/2013  16:23:00     -372.535     -236.102       12.493      232.823      231.629      112.374    54206.326    53652.209    12627.967       15.756        6.024      441.051      119.260        0.073      345.147       22.466      861.664
09/28/2013  16:24:00     -452.154     -179.282       -6.493      236.525      227.892      118.141    55943.920    51934.991    13957.236       17.921        6.092      486.401      134.558        0.077      345.101       22.387      861.624
09/28/2013  16:25:00     -389.526     -178.315      -11.737      214.510      229.841       99.699    46014.736    52826.921     9939.870       14.620        5.439      428.400       94.816        0.049      345.142       22.457      861.676
09/28/2013  16:26:00     -399.925     -206.125      -20.723      225.849      227.506      115.359    51007.568    51759.148    13307.596       15.944        5.804      449.920      124.678        0.077      345.113       22.407      861.663
09/28/2013  16:27:00     -432.615      -33.541      -11.822      218.137      190.946       96.529    47583.655    36460.508     9317.837       14.087        4.668      433.914      105.578        0.059      345.202       22.560      861.696
09/28/2013  16:28:00     -459.496      -72.551      -14.910      221.587      140.799       88.344    49100.774    19824.320     7804.623       14.666        3.836      465.188       93.921        0.041      345.288       22.707      861.731
09/28/2013  16:29:00     -493.465     -110.773      -22.492      253.429      163.122       90.112    64226.105    26608.824     8120.089       17.760        4.948      505.745      112.938        0.050      345.100       22.388      861.719
09/28/2013  16:30:00     -342.157      -44.784       -5.222      169.825      138.754       81.019    28840.663    19252.563     6564.074        8.687        2.733      345.076       86.610        0.063      345.171       22.508      861.737
09/28/2013  16:31:00     -336.214      -73.502        4.163      194.323      125.577       88.311    37761.280    15769.499     7798.870        8.988        3.066      344.155       97.941        0.081      345.205       22.565      861.734
09/28/2013  16:32:00     -275.799     -137.682       -2.545      181.960      173.012       84.196    33109.440    29933.229     7089.036        8.257        3.507      308.256       88.996        0.083      345.167       22.499      861.755
09/28/2013  16:33:00     -345.567     -204.455       -0.834      207.760      207.817       89.102    43164.362    43187.848     7939.158       12.774        4.715      401.520      102.100        0.065      344.963       22.151      861.755
09/28/2013  16:34:00     -252.430     -149.496       16.953      200.666      141.873       95.433    40266.899    20128.030     9107.469        7.792        3.475      293.377      112.639        0.147      345.066       22.327      861.718
09/28/2013  16:35:00     -542.260     -165.519      -23.962      220.992      161.593       92.167    48837.625    26112.403     8494.763       20.271        4.172      566.959      113.987        0.040      345.026       22.259      861.722
09/28/2013  16:36:00     -458.656     -288.182      -39.168      234.736      233.481      103.867    55101.002    54513.493    10788.279       20.765        6.020      541.677      107.626        0.039      345.029       22.264      861.700
09/28/2013  16:37:00     -300.555     -177.392       12.312      173.565      158.914       89.418    30124.946    25253.736     7995.575        9.265        3.169      349.001       92.092        0.070      345.184       22.529      861.699
09/28/2013  16:38:00     -409.376     -191.110       -1.607      211.181      171.792       97.797    44597.301    29512.342     9564.330       14.388        4.184      451.787      100.412        0.049      345.062       22.321      861.692
09/28/2013  16:39:00     -330.520     -180.303        2.371      219.462      146.576       84.309    48163.639    21484.388     7107.938       10.924        3.838      376.501       99.978        0.071      345.089       22.367      861.679
09/28/2013  16:40:00     -444.099      -76.714      -21.632      231.144      173.656       98.850    53427.597    30156.348     9771.272       14.845        4.668      450.676      103.717        0.053      344.979       22.179      861.656
09/28/2013  16:41:00     -166.830     -139.070       19.287      127.263      149.159       61.759    16195.852    22248.412     3814.215        4.489        2.113      217.192       62.963        0.084      345.076       22.345      861.675
09/28/2013  16:42:00     -194.388     -165.238        3.234      135.986      111.586       78.529    18492.168    12451.485     6166.791        5.110        1.856      255.128       80.434        0.099      345.085       22.361      861.648
09/28/2013  16:43:00     -245.197      -95.940        3.515      172.166      127.832       63.553    29640.990    16340.900     4039.038        5.967        2.501      263.299       68.648        0.068      344.995       22.209      861.628
09/28/2013  16:44:00     -162.379      -78.110       14.512      148.646       87.026       62.742    22095.521     7573.592     3936.520        3.314        1.680      180.189       59.704        0.110      345.073       22.341      861.620
09/28/2013  16:45:00     -358.588     -180.418      -20.314      271.748      172.848       87.227    73847.012    29876.328     7608.503       13.642        5.567      401.418       95.880        0.057      344.984       22.188      861.625
09/28/2013  16:46:00     -376.222     -163.587      -10.497      258.336      166.949      102.349    66737.504    27872.003    10475.361       13.673        5.254      410.248      113.113        0.076      344.845       21.949      861.606
09/28/2013  16:47:00     -431.948     -199.335      -13.983      147.220      126.908       71.463    21673.829    16105.630     5106.974       13.469        2.144      475.724       61.410        0.017      344.754       21.794      861.582
09/28/2013  16:48:00     -348.375     -115.152        1.753      201.052      190.830       94.369    40421.848    36416.275     8905.564       11.017        4.287      366.913      105.531        0.083      344.832       21.927      861.550
09/28/2013  16:49:00     -353.154      -91.386      -11.637      178.942      150.185       78.619    32020.383    22555.513     6180.891        9.697        3.038      364.786       75.951        0.043      344.839       21.939      861.548
09/28/2013  16:50:00     -332.818     -106.756        5.031      171.371      141.708       71.843    29367.870    20081.020     5161.382        8.839        2.731      349.521       77.866        0.050      344.770       21.823      861.539
09/28/2013  16:51:00     -282.941     -174.998       -3.791      142.950      132.794       77.496    20434.843    17634.165     6005.663        7.738        2.204      332.685       84.953        0.065      344.769       21.819      861.531
09/28/2013  16:52:00     -395.810     -269.662       -0.646      227.188      237.196      108.332    51614.386    56261.851    11735.862       17.447        5.981      478.940      139.544        0.085      344.757       21.799      861.521
09/28/2013  16:53:00     -240.638     -227.300       13.576      200.300      179.157       92.567    40120.021    32097.245     8568.674        9.525        4.039      331.016      112.205        0.115      344.730       21.754      861.514
09/28/2013  16:54:00     -354.945     -327.903       -2.231      214.852      196.118      109.086    46161.529    38462.183    11899.715       16.500        4.826      483.225      116.267        0.058      344.780       21.837      861.520
09/28/2013  16:55:00     -321.514     -248.982      -13.235      196.021      181.764      104.045    38424.107    33038.196    10825.351       12.390        4.114      406.648       86.351        0.045      344.751       21.789      861.538
09/28/2013  16:56:00     -438.229     -290.600      -20.901      219.161      162.199      101.258    48031.366    26308.391    10253.231       18.074        4.230      525.827      104.606        0.040      344.703       21.706      861.508
09/28/2013  16:57:00     -354.609     -230.359       -0.266      238.702      176.229       99.181    56978.713    31056.549     9836.865       13.832        4.894      422.862      107.528        0.065      344.713       21.723      861.498
09/28/2013  16:58:00     -386.168     -198.277      -14.699      209.285      168.996       94.327    43800.006    28559.674     8897.497       13.494        4.063      434.096       99.654        0.053      344.690       21.685      861.488
09/28/2013  16:59:00     -362.290     -134.828       -1.834      205.368      141.047       76.958    42176.162    19894.277     5922.507       10.870        3.400      386.566       89.196        0.053      344.678       21.663      861.489
09/28/2013  17:00:00     -376.700     -197.227      -11.310      191.460      162.095       77.543    36656.945    26274.659     6012.982       12.492        3.447      425.208       76.691        0.033      344.697       21.695      861.476
09/28/2013  17:01:00     -309.592     -154.058      -18.699      144.833      110.223       50.715    20976.714    12149.120     2572.034        7.781        1.785      345.805       60.133        0.030      344.732       21.755      861.477
09/28/2013  17:02:00     -323.310     -203.234        0.344      211.796      179.207       83.419    44857.671    32115.065     6958.664       11.487        4.197      381.881       94.447        0.061      344.726       21.746      861.487
09/28/2013  17:03:00     -411.680     -242.536       -1.179      239.003      197.246      107.169    57122.347    38905.967    11485.137       16.789        5.376      477.812      122.763        0.066      344.648       21.612      861.464
09/28/2013  17:04:00     -417.984     -298.539       -5.386      229.581      221.557      114.933    52707.401    49087.617    13209.609       18.941        5.750      513.650      130.558        0.065      344.637       21.594      861.458
09/28/2013  17:05:00     -418.703     -169.975      -12.900      243.910      143.724       86.627    59492.230    20656.564     7504.164       14.599        4.383      451.889       94.096        0.043      344.645       21.607      861.450
09/28/2013  17:06:00     -331.679     -212.244      -10.683      199.253      135.419       74.843    39701.670    18338.339     5601.438       10.939        3.182      393.774       77.519        0.039      344.678       21.662      861.436
09/28/2013  17:07:00     -288.323     -203.190       17.762      190.643      167.784       89.695    36344.784    28151.356     8045.276        9.862        3.627      352.727       96.279        0.075      344.690       21.683      861.441
09/28/2013  17:08:00     -311.897     -237.692      -26.563      172.923      171.831       84.621    29902.263    29525.925     7160.664       11.052        3.329      392.144       89.403        0.052      344.725       21.742      861.433
09/28/2013  17:09:00     -287.980     -171.249        5.933      180.578      186.835       87.006    32608.542    34907.379     7570.059        9.367        3.754      335.050       98.004        0.086      344.738       21.765      861.450
09/28/2013  17:10:00     -320.920     -195.594       -6.826      182.908      141.937       83.442    33455.222    20146.219     6962.532       10.092        3.028      375.828       91.052        0.059      344.730       21.751      861.451
09/28/2013  17:11:00     -396.631     -188.984        0.735      177.918      146.682       87.880    31654.824    21515.623     7722.978       12.695        3.045      439.353       93.676        0.045      344.685       21.674      861.445
09/28/2013  17:12:00     -306.071     -229.456        2.705      196.706      163.187       87.365    38693.076    26629.934     7632.557       10.963        3.648      382.530       95.055        0.062      344.653       21.619      861.440
09/28/2013  17:13:00     -413.802     -214.179      -22.097      230.892      180.742       97.096    53311.247    32667.761     9427.587       15.648        4.770      465.945      118.682        0.065      344.626       21.575      861.429
09/28/2013  17:14:00     -361.360     -218.051       -0.019      225.301      160.896      103.462    50760.480    25887.381    10704.423       13.272        4.368      422.051      111.209        0.069      344.627       21.576      861.438
09/28/2013  17:15:00     -409.402     -146.677      -19.931      193.175      180.805       89.809    37316.476    32690.624     8065.705       13.378        3.904      434.884       88.052        0.041      344.627       21.577      861.436
09/28/2013  17:16:00     -308.118     -124.412       10.086      166.900      193.572       89.461    27855.768    37470.038     8003.352        9.191        3.666      332.288       80.167        0.058      344.630       21.582      861.473
09/28/2013  17:17:00     -355.730     -108.917       -3.248      169.157      139.639       84.829    28614.235    19499.026     7195.875        9.685        2.765      372.031       85.323        0.053      344.652       21.619      861.463
09/28/2013  17:18:00     -319.213     -194.430       -1.407      211.529      146.824       84.367    44744.471    21557.152     7117.864       10.655        3.671      373.765       72.168        0.037      344.632       21.585      861.440
09/28/2013  17:19:00     -435.458     -215.049      -19.641      258.896      138.152       98.856    67027.282    19085.936     9772.519       16.605        4.794      485.665      117.530        0.059      344.639       21.597      861.418
09/28/2013  17:20:00     -380.932     -114.893      -23.499      204.227      164.289       88.713    41708.633    26990.762     7869.916       11.770        3.828      397.881      101.737        0.065      344.717       21.730      861.445
09/28/2013  17:21:00     -331.770     -225.805      -24.234      151.201      138.860       74.017    22861.873    19282.126     5478.577       10.463        2.381      401.322       72.814        0.033      344.701       21.702      861.440
09/28/2013  17:22:00     -286.895     -120.344        4.158      175.338      127.805       87.034    30743.389    16334.019     7574.984        7.572        2.733      311.114       94.463        0.092      344.752       21.790      861.451
09/28/2013  17:23:00     -260.014      -58.762      -16.141      160.276      137.467       69.539    25688.283    18897.137     4835.685        6.036        2.471      266.571       66.193        0.062      344.776       21.831      861.444
09/28/2013  17:24:00     -326.173     -148.076      -11.036      201.560      153.140       87.319    40626.474    23451.755     7624.604       10.006        3.585      358.212      101.824        0.081      344.705       21.710      861.439
09/28/2013  17:25:00     -363.290      -75.861        2.182      170.541      141.457       92.391    29084.300    20009.960     8536.133        9.767        2.882      371.126       95.239        0.066      344.733       21.757      861.430
09/28/2013  17:26:00     -399.403     -295.386      -11.801      240.283      189.213       97.621    57735.845    35801.440     9529.783       17.497        5.153      496.765      106.192        0.046      344.609       21.545      861.399
09/28/2013  17:27:00     -282.952     -121.519       15.432      163.399      185.536       71.534    26699.270    34423.554     5117.139        8.064        3.312      307.943       81.769        0.071      344.676       21.659      861.388
09/28/2013  17:28:00     -342.215     -121.827       -9.906      260.664      162.078       98.131    67945.909    26269.220     9629.634       11.793        5.192      363.253       96.802        0.071      344.624       21.572      861.358
09/28/2013  17:29:00     -503.511      -83.286      -10.314      275.304      181.187       93.489    75792.429    32828.626     8740.131       18.894        5.868      510.352      118.381        0.054      344.594       21.521      861.383
09/28/2013  17:30:00     -339.008     -206.509       -2.178      195.648      144.150       92.298    38278.107    20779.109     8518.907       11.256        3.379      396.954      111.719        0.079      344.643       21.604      861.385
09/28/2013  17:31:00     -434.993     -338.959        8.449      269.427      194.413      118.877    72590.808    37796.394    14131.803       21.433        6.226      551.463      137.909        0.063      344.497       21.356      861.343
09/28/2013  17:32:00     -281.568     -213.156        8.988      219.222      170.171      110.041    48058.421    28958.050    12108.981       10.694        4.456      353.152      120.710        0.117      344.552       21.448      861.358
09/28/2013  17:33:00     -261.170     -129.910       13.674      174.958      137.684       77.142    30610.307    18956.958     5950.926        7.038        2.776      291.695       87.127        0.089      344.516       21.389      861.384
09/28/2013  17:34:00     -373.245      -32.472        0.259      239.690      133.486       97.368    57451.452    17818.529     9480.518       11.254        4.238      374.655      115.957        0.096      344.477       21.318      861.390
09/28/2013  17:35:00     -362.846     -142.401       -9.185      223.077      176.970       85.461    49763.202    31318.234     7303.520       12.018        4.419      389.789       97.322        0.062      344.427       21.233      861.378
09/28/2013  17:36:00     -247.488      -70.373       26.471      175.450      137.645       90.105    30782.557    18946.077     8118.953        6.236        2.892      257.298      100.648        0.153      344.408       21.203      861.363
09/28/2013  17:37:00     -469.183     -161.592      -22.207      250.844      155.108       83.179    62922.644    24058.543     6918.759       17.030        4.695      496.230       97.642        0.039      344.385       21.163      861.312
09/28/2013  17:38:00     -469.613     -265.527      -19.187      186.559      174.799       97.445    34804.306    30554.686     9495.590       18.312        3.743      539.482       99.457        0.034      344.365       21.128      861.268
09/28/2013  17:39:00     -404.270      -83.505      -13.988      186.504      164.045       85.343    34783.576    26910.725     7283.412       11.978        3.449      412.804       94.289        0.052      344.388       21.169      861.247
09/28/2013  17:40:00     -403.962     -269.573        4.842      249.809      187.777      102.397    62404.500    35260.240    10485.060       17.199        5.407      485.649      122.454        0.064      344.324       21.058      861.235
09/28/2013  17:41:00     -393.438     -231.196      -28.370      175.545      154.873       90.615    30815.927    23985.651     8210.988       13.602        3.151      456.339       87.113        0.036      344.356       21.113      861.256
09/28/2013  17:42:00     -266.689      -93.679        3.251      202.484      116.516       91.113    40999.806    13575.936     8301.602        7.138        3.144      282.663      107.382        0.144      344.399       21.187      861.289
09/28/2013  17:43:00     -381.366     -250.696      -12.657      267.082      171.039      109.056    71332.655    29254.170    11893.248       16.044        5.624      456.387      119.067        0.068      344.335       21.077      861.289
09/28/2013  17:44:00     -468.810      -57.120      -25.717      233.948      157.329      104.946    54731.844    24752.391    11013.578       15.708        4.525      472.277       97.483        0.043      344.382       21.158      861.279
09/28/2013  17:45:00     -393.137      -86.602      -15.267      212.419      170.794       83.302    45121.835    29170.648     6939.287       12.174        4.062      402.563      100.133        0.062      344.376       21.149      861.270
09/28/2013  17:46:00     -461.286      -49.322      -15.310      183.589      143.775       83.527    33704.837    20671.148     6976.685       13.839        3.068      463.915       91.885        0.039      344.337       21.080      861.288
09/28/2013  17:47:00     -414.243      -20.055      -14.630      189.336      120.056       76.081    35848.073    14413.494     5788.351       11.412        2.802      414.729       88.691        0.046      344.361       21.123      861.292
09/28/2013  17:48:00     -183.317      -84.220       14.345      152.344      123.800       71.849    23208.580    15326.500     5162.232        4.229        2.185      201.738       72.211        0.128      344.371       21.139      861.314
09/28/2013  17:49:00     -259.724     -101.362        3.258      181.492      149.130       80.396    32939.223    22239.824     6463.470        6.968        3.082      278.803       80.010        0.082      344.359       21.119      861.284
09/28/2013  17:50:00     -279.028     -120.518       -7.187      163.127      149.552       78.057    26610.301    22365.747     6092.912        7.374        2.753      303.943       79.627        0.069      344.324       21.058      861.299
09/28/2013  17:51:00     -307.216     -162.866       -5.528      197.424      135.546       86.503    38976.189    18372.840     7482.772        9.287        3.242      347.717      104.005        0.089      344.281       20.986      861.287
09/28/2013  17:52:00     -323.291     -210.780        0.530      216.086      168.730       79.905    46692.962    28469.768     6384.774       11.523        4.077      385.934       86.502        0.050      344.263       20.956      861.273
09/28/2013  17:53:00     -396.195      -60.707      -20.539      193.893      124.187       75.115    37594.596    15422.288     5642.204       10.986        2.933      400.819       72.839        0.033      344.249       20.930      861.266
09/28/2013  17:54:00     -487.638      -41.242      -31.110      177.065      121.975       75.993    31352.149    14877.863     5774.981       14.622        2.600      489.379       76.786        0.025      344.239       20.913      861.277
09/28/2013  17:55:00     -362.462       22.831      -20.445      206.142      132.923       84.410    42494.357    17668.490     7125.037        9.979        3.364      363.181       89.867        0.061      344.206       20.856      861.272
09/28/2013  17:56:00     -289.104      -67.275       -2.643      196.114      122.151       83.797    38460.513    14920.968     7021.988        7.425        3.020      296.828       92.391        0.097      344.215       20.871      861.278
09/28/2013  17:57:00     -310.845      -13.631       -0.681      141.579      125.494       75.457    20044.634    15748.641     5693.744        6.914        2.074      311.144       78.199        0.063      344.221       20.882      861.298
09/28/2013  17:58:00     -373.858      -23.690       -7.941      164.083      138.011       90.019    26923.274    19047.036     8103.495        9.722        2.704      374.608       83.834        0.050      344.234       20.906      861.304
09/28/2013  17:59:00     -406.985      -44.086       -0.242      163.718      190.586       95.837    26803.586    36323.196     9184.700       11.993        3.616      409.366       92.849        0.051      344.236       20.908      861.312
09/28/2013  18:00:00     -307.864     -136.091       -5.432      183.938      188.385       74.923    33833.316    35488.927     5613.452        9.412        3.747      336.602       84.428        0.063      344.245       20.923      861.288
09/28/2013  18:01:00     -193.348     -104.616       -4.434      152.837      105.544       55.566    23359.067    11139.438     3087.552        4.296        1.879      219.836       55.727        0.064      344.299       21.017      861.308
09/28/2013  18:02:00     -251.654     -118.177        2.176      184.465      125.000       67.398    34027.235    15624.912     4542.539        6.574        2.710      278.020       89.509        0.104      344.270       20.967      861.325
09/28/2013  18:03:00     -181.368     -127.802       -1.980      124.780      104.915       70.599    15569.988    11007.249     4984.187        4.039        1.578      221.873       60.833        0.075      344.277       20.979      861.326
09/28/2013  18:04:00     -294.912      -67.309       -8.432      140.580      107.732       65.392    19762.797    11606.217     4276.107        6.360        1.782      302.496       58.008        0.037      344.285       20.994      861.334
09/28/2013  18:05:00     -136.702      -60.054        7.912      144.513      105.152       69.984    20884.070    11056.967     4897.718        2.959        1.842      149.312       72.532        0.236      344.258       20.947      861.312
09/28/2013  18:06:00     -498.511      -41.544      -32.673      230.583      147.878       79.895    53168.747    21867.982     6383.229       16.635        4.071      500.239       95.514        0.036      344.222       20.884      861.324
09/28/2013  18:07:00     -624.836     -103.886      -35.046      254.994      166.457      100.229    65021.819    27708.000    10045.774       25.259        5.139      633.413      112.486        0.032      344.215       20.872      861.306
09/28/2013  18:08:00     -303.470      -88.965        7.617      228.238      161.857       92.993    52092.466    26197.582     8647.630        9.349        4.347      316.242      108.472        0.118      344.205       20.856      861.337
09/28/2013  18:09:00     -338.289     -134.179       -0.285      203.682      156.150       89.104    41486.267    24382.958     7939.583       10.311        3.690      363.928       95.185        0.068      344.200       20.847      861.374
09/28/2013  18:10:00     -361.842     -183.521      -10.541      167.544      142.684       73.419    28070.988    20358.591     5390.391       10.926        2.691      405.721       80.697        0.040      344.213       20.868      861.386
09/28/2013  18:11:00     -318.481     -156.437       -0.249      231.686      158.189       96.090    53678.398    25023.695     9233.214       10.690        4.397      354.828      113.223        0.102      344.200       20.847      861.383
09/28/2013  18:12:00     -439.796     -171.040      -31.383      214.369      175.372       99.546    45954.186    30755.279     9909.419       15.512        4.331      471.885      115.833        0.060      344.165       20.786      861.410
09/28/2013  18:13:00     -404.850     -198.390      -19.921      185.390      194.522       89.720    34369.570    37838.830     8049.698       14.194        4.013      450.847       63.594        0.020      344.162       20.781      861.401
09/28/2013  18:14:00     -585.891     -332.340      -31.493      222.273      171.339       94.485    49405.388    29356.999     8927.377       27.118        4.384      673.586      101.309        0.023      344.114       20.699      861.396
09/28/2013  18:15:00     -522.719     -212.227      -20.105      244.882      205.430      109.018    59967.139    42201.600    11884.855       21.634        5.703      564.159      114.422        0.041      344.081       20.644      861.409
09/28/2013  18:16:00     -601.876     -186.152      -20.556      265.204      229.777      101.218    70333.363    52797.284    10245.137       26.533        6.669      630.006      130.303        0.043      344.064       20.615      861.400
09/28/2013  18:17:00     -514.548     -226.593      -31.361      255.125      215.158       97.113    65088.896    46293.004     9430.986       21.893        6.041      562.231      111.156        0.039      344.041       20.576      861.426
09/28/2013  18:18:00     -225.947     -164.162        8.342      181.382      151.151       92.757    32899.548    22846.737     8603.874        7.120        3.218      279.287       90.173        0.104      344.038       20.570      861.417
09/28/2013  18:19:00     -411.504     -242.925      -17.398      245.981      164.189      113.269    60506.463    26957.925    12829.858       16.445        5.015      477.858      113.174        0.056      344.015       20.533      861.420
09/28/2013  18:20:00     -413.146      -88.019      -33.620      175.976      141.896       80.506    30967.506    20134.584     6481.258       11.856        2.879      422.418       84.595        0.040      343.998       20.500      861.422
09/28/2013  18:21:00     -306.514     -167.468       -9.482      144.190      124.766       64.591    20790.819    15566.558     4171.965        8.130        2.026      349.279       51.139        0.021      343.985       20.479      861.416
09/28/2013  18:22:00     -364.163     -208.140      -10.555      237.620      151.782       90.475    56463.088    23037.700     8185.803       13.185        4.384      419.448      109.454        0.068      343.962       20.441      861.445
09/28/2013  18:23:00     -270.745     -124.362       -3.588      237.093      144.891       99.389    56213.088    20993.324     9878.247        8.792        4.354      297.941       91.718        0.095      343.949       20.417      861.436
09/28/2013  18:24:00     -521.047      -98.498      -20.963      184.844      149.271       86.416    34167.303    22281.775     7467.798       17.276        3.196      530.275       93.618        0.031      343.950       20.418      861.449
09/28/2013  18:25:00     -503.469      -88.695       -0.909      235.681      177.254      115.295    55545.496    31419.093    13293.009       18.078        5.013      511.222      123.760        0.059      343.911       20.354      861.428
09/28/2013  18:26:00     -278.832     -202.149       11.625      178.707      165.496       91.438    31936.171    27388.865     8360.944        9.320        3.384      344.401       94.530        0.075      343.896       20.327      861.450
09/28/2013  18:27:00     -324.688     -226.402      -13.451      177.019      152.527       88.507    31335.697    23264.465     7833.491       10.963        3.122      395.828       88.366        0.050      343.890       20.317      861.460
09/28/2013  18:28:00     -231.686      -88.525        9.632      116.700      112.108       70.532    13618.976    12568.154     4974.819        4.638        1.558      248.022       62.156        0.063      343.845       20.240      861.454
09/28/2013  18:29:00     -212.780      -64.360        2.020      143.917      125.267       61.847    20712.244    15691.777     3825.064        4.482        2.011      222.301       65.065        0.086      343.825       20.207      861.431
09/28/2013  18:30:00     -262.881     -105.040       20.129      193.372      155.926       89.512    37392.650    24312.955     8012.312        7.512        3.486      283.089      101.146        0.128      343.783       20.135      861.391
09/28/2013  18:31:00     -539.062     -212.680       -5.028      240.795      190.299       97.112    57982.472    36213.885     9430.769       21.972        5.181      579.500      107.578        0.034      343.818       20.193      861.367
09/28/2013  18:32:00     -329.779      -25.155      -14.025      184.646      121.995       81.722    34094.193    14882.784     6678.566        8.261        2.783      330.737       93.506        0.080      343.776       20.123      861.366
09/28/2013  18:33:00     -455.158     -142.056      -15.407      270.637      155.700       89.019    73244.555    24242.476     7924.451       16.648        5.271      476.811       92.759        0.038      343.780       20.130      861.379
09/28/2013  18:34:00     -419.309     -291.409      -15.445      199.488      128.775       82.783    39795.379    16582.970     6852.946       16.209        3.162      510.626       75.293        0.022      343.773       20.119      861.397
09/28/2013  18:35:00     -386.569     -108.311      -17.980      209.541      125.350       71.822    43907.381    15712.706     5158.439       11.312        3.239      401.456       86.320        0.046      343.752       20.083      861.389
09/28/2013  18:36:00     -188.452      -35.260       -3.394      147.506      131.564       71.017    21757.964    17309.172     5043.437        4.043        2.206      191.723       70.434        0.135      343.669       19.941      861.386
09/28/2013  18:37:00     -319.221       -6.146        3.709      237.277      153.542       94.575    56300.203    23575.009     8944.525        9.537        4.441      319.280      112.157        0.123      343.642       19.895      861.396
09/28/2013  18:38:00     -387.255      -70.802      -19.308      145.207      137.407       61.180    21085.045    18880.677     3742.992        9.952        2.185      393.674       64.129        0.027      343.660       19.924      861.443
09/28/2013  18:39:00     -486.251     -159.193      -16.077      218.845      216.202       84.617    47893.156    46743.459     7160.079       18.190        5.090      511.647       98.970        0.037      343.686       19.967      861.394
09/28/2013  18:40:00     -376.912      -67.127      -20.418      183.346      105.500       73.037    33615.833    11130.299     5334.473        9.852        2.504      382.843       81.548        0.045      343.654       19.914      861.419
09/28/2013  18:41:00     -521.027     -153.177      -27.324      172.130      124.796       75.533    29628.785    15573.938     5705.169       17.328        2.545      543.077       72.954        0.018      343.667       19.936      861.418
09/28/2013  18:42:00     -359.108      -69.488       -5.992      222.515      213.041       80.226    49512.797    45386.571     6436.238       11.756        5.067      365.769       96.831        0.070      343.624       19.864      861.418
09/28/2013  18:43:00     -359.581     -124.004      -15.241      184.112      176.854       75.992    33897.405    31277.468     5774.718       10.791        3.547      380.363       79.159        0.043      343.640       19.890      861.400
09/28/2013  18:44:00     -349.394     -137.647      -22.712      158.365      153.509       71.879    25079.466    23564.944     5166.606        9.766        2.691      375.530       79.111        0.044      343.630       19.874      861.400
09/28/2013  18:45:00     -292.752     -131.828      -10.481      138.779      128.090       60.705    19259.607    16406.934     3685.141        7.126        1.968      321.064       58.260        0.033      343.578       19.785      861.437
09/28/2013  18:46:00     -243.020      -88.000       -6.233      146.662      101.582       63.655    21509.831    10318.894     4051.957        5.135        1.794      258.462       60.822        0.055      343.563       19.760      861.444
09/28/2013  18:47:00     -288.370      -37.252        0.138      202.400      106.745       82.639    40965.671    11394.510     6829.203        7.186        2.959      290.766      101.438        0.122      343.546       19.730      861.438
09/28/2013  18:48:00     -410.041     -104.246      -20.698      230.263      148.533       69.908    53021.066    22062.073     4887.079       12.968        3.999      423.085       75.259        0.032      343.565       19.763      861.434
09/28/2013  18:49:00     -322.663      -72.077       -5.850      149.596      105.437       54.971    22378.875    11116.898     3021.761        7.292        1.826      330.616       59.127        0.032      343.520       19.687      861.432
09/28/2013  18:50:00     -329.133      -79.626      -12.114      120.830      141.379       63.377    14600.009    19987.907     4016.699        7.670        1.930      338.628       58.361        0.030      343.535       19.712      861.419
09/28/2013  18:51:00     -446.523      -89.928      -14.048      160.025      137.887       75.848    25608.024    19012.733     5752.926       12.901        2.519      455.489       79.218        0.030      343.518       19.683      861.422
09/28/2013  18:52:00     -338.906      -24.844      -14.648      199.299      122.008       84.581    39719.941    14885.870     7153.940        8.871        3.088      339.815       82.236        0.059      343.470       19.602      861.425
09/28/2013  18:53:00     -313.193      -45.807        4.954      169.189      120.742       83.824    28624.864    14578.725     7026.507        7.521        2.512      316.525       81.885        0.067      343.429       19.531      861.440
09/28/2013  18:54:00     -457.681     -108.685      -14.103      148.583      150.334       75.832    22076.820    22600.392     5750.517       13.595        2.521      470.409       70.409        0.022      343.499       19.652      861.452
09/28/2013  18:55:00     -485.731      -49.280      -44.058      178.883      115.961       68.254    31998.967    13447.053     4658.555       14.519        2.505      488.224       84.904        0.030      343.494       19.642      861.455
09/28/2013  18:56:00     -415.002     -120.012       -6.412      148.885      135.715       66.579    22166.685    18418.504     4432.816       11.584        2.251      432.007       61.941        0.021      343.453       19.570      861.453
09/28/2013  18:57:00     -467.202      -89.988      -36.026       98.826      138.971       53.473     9766.589    19313.028     2859.311       12.980        1.597      475.789       50.940        0.011      343.473       19.605      861.434
09/28/2013  18:58:00     -370.528      -53.855      -15.697      146.668      127.058       77.181    21511.616    16143.649     5956.984        9.202        2.181      374.421       69.766        0.035      343.417       19.510      861.414
09/28/2013  18:59:00     -331.877      -72.188       -0.885      179.567      141.510       75.435    32244.159    20025.036     5690.503        8.665        2.898      339.637       74.878        0.049      343.377       19.442      861.436
09/28/2013  19:00:00     -228.594      -59.260        4.024      140.074      108.418       70.040    19620.590    11754.482     4905.642        4.602        1.814      236.150       60.498        0.066      343.383       19.452      861.461
09/28/2013  19:01:00     -301.341       -9.055      -11.744      157.536       93.660       61.302    24817.582     8772.249     3757.901        6.418        1.867      301.477       74.719        0.061      343.358       19.410      861.470
09/28/2013  19:02:00     -318.261      -83.508       -6.980      168.199      120.243       65.847    28290.794    14458.340     4335.787        7.769        2.354      329.035       70.809        0.046      343.349       19.396      861.488
09/28/2013  19:03:00     -449.266     -125.476      -30.198      181.612      115.919       77.952    32982.966    13437.267     6076.482       13.549        2.625      466.459       79.812        0.029      343.432       19.537      861.501
09/28/2013  19:04:00     -235.920      -18.797        1.575      122.555       90.524       57.814    15019.772     8194.586     3342.460        4.128        1.328      236.667       60.571        0.066      343.378       19.445      861.499
09/28/2013  19:05:00     -320.968      -43.057      -11.774      156.379      131.832       55.615    24454.370    17379.607     3092.975        7.496        2.246      323.843       65.218        0.041      343.364       19.420      861.487
09/28/2013  19:06:00     -337.987        2.346      -20.508      147.046       95.735       71.910    21622.629     9165.196     5171.057        7.530        1.798      337.996       78.859        0.054      343.330       19.363      861.473
09/28/2013  19:07:00     -229.121      -35.500       -1.942      163.059      141.988       68.645    26588.266    20160.525     4712.133        5.260        2.573      231.855       72.597        0.098      343.295       19.303      861.483
09/28/2013  19:08:00     -380.611     -206.228      -13.895      179.993      130.526       74.298    32397.628    17037.125     5520.204       12.126        2.748      432.892       77.111        0.032      343.370       19.429      861.479
09/28/2013  19:09:00     -417.485     -131.097      -43.282      107.842      129.687       55.076    11629.858    16818.715     3033.327       11.241        1.574      437.585       41.432        0.009      343.382       19.452      861.447
09/28/2013  19:10:00     -393.774     -116.106      -10.331      174.775      125.289       77.744    30546.140    15697.444     6044.134       11.046        2.614      410.535       73.948        0.032      343.307       19.322      861.395
09/28/2013  19:11:00     -340.212     -127.656      -15.298      142.239      134.482       71.733    20231.934    18085.352     5145.635        8.786        2.173      363.374       73.693        0.041      343.298       19.307      861.416
09/28/2013  19:12:00     -303.161      -93.769        4.396      139.721      109.302       60.164    19521.873    11946.995     3619.738        6.790        1.754      317.332       71.256        0.050      343.266       19.252      861.406
09/28/2013  19:13:00     -310.277      -38.316      -15.253      126.011      112.719       64.923    15878.785    12705.560     4214.970        6.538        1.640      312.634       66.769        0.046      343.255       19.233      861.406
09/28/2013  19:14:00     -408.235      -60.901      -22.989      163.824      112.598       67.251    26838.408    12678.250     4522.726       10.746        2.202      412.753       65.880        0.025      343.256       19.236      861.363
09/28/2013  19:15:00     -347.733     -117.957       -1.671      139.086      133.806       74.074    19344.815    17903.989     5486.917        8.878        2.137      367.195       64.880        0.031      343.243       19.213      861.379
09/28/2013  19:16:00     -338.226     -137.618       -0.539      144.141      128.124       70.248    20776.606    16415.808     4934.759        8.772        2.106      365.151       72.010        0.039      343.260       19.243      861.379
09/28/2013  19:17:00     -301.496     -112.087      -26.157      132.897      107.151       57.142    17661.595    11481.442     3265.189        6.827        1.620      321.658       57.794        0.032      343.265       19.250      861.352
09/28/2013  19:18:00     -412.746      -92.303       -0.478      214.744      154.706       89.017    46114.826    23933.850     7923.999       12.841        3.899      422.941      110.411        0.068      343.205       19.150      861.329
09/28/2013  19:19:00     -470.936     -101.473      -36.802      164.425      143.849       90.340    27035.625    20692.666     8161.277       14.465        2.794      481.744       93.381        0.038      343.291       19.296      861.362
09/28/2013  19:20:00     -271.468      -74.828       -4.521      138.021      145.890       76.763    19049.899    21283.973     5892.546        6.276        2.311      281.592       77.937        0.077      343.269       19.259      861.366
09/28/2013  19:21:00     -252.979      -29.208       -7.327      148.384      107.578       65.274    22017.791    11572.919     4260.687        5.137        1.893      254.660       73.484        0.083      343.198       19.137      861.362
09/28/2013  19:22:00     -315.510     -101.339        1.545      149.774      161.617       68.803    22432.301    26120.078     4733.802        8.154        2.664      331.385       67.160        0.041      343.198       19.137      861.352
09/28/2013  19:23:00     -284.571      -70.300       -6.096      133.086      111.056       69.289    17711.752    12333.336     4800.909        6.040        1.742      293.126       70.832        0.058      343.154       19.062      861.354
09/28/2013  19:24:00     -282.415      -26.963       -0.202      149.035      131.322       59.032    22211.375    17245.489     3484.733        6.170        2.147      283.699       67.323        0.056      343.144       19.046      861.365
09/28/2013  19:25:00     -395.486      -61.596       -1.091      180.836      119.481       76.071    32701.776    14275.806     5786.863       10.647        2.638      400.254       95.601        0.057      343.183       19.111      861.366
09/28/2013  19:26:00     -416.043     -206.294      -16.339      184.242      130.872       82.976    33945.156    17127.590     6885.087       13.692        2.898      464.380       95.608        0.042      343.193       19.129      861.404
09/28/2013  19:27:00     -309.307      -90.416      -10.409      125.822      121.705       64.798    15831.059    14812.072     4198.819        6.939        1.742      322.252       52.896        0.027      343.164       19.079      861.443
09/28/2013  19:28:00     -273.607      -87.814       -4.841      122.965       91.889       56.260    15120.308     8443.582     3165.155        5.466        1.336      287.354       57.906        0.041      343.163       19.077      861.480
09/28/2013  19:29:00     -243.740      -39.110        0.216      108.038      100.117       57.605    11672.257    10023.461     3318.308        4.297        1.251      246.858       57.343        0.054      343.087       18.948      861.499
09/28/2013  19:30:00     -344.734      -11.174      -12.864      125.586      114.396       57.722    15771.802    13086.486     3331.863        7.565        1.610      344.915       61.907        0.032      343.141       19.040      861.494
09/28/2013  19:31:00     -412.696     -179.342      -29.492      174.137      115.994       73.000    30323.595    13454.613     5328.945       12.622        2.455      449.979       69.273        0.024      343.107       18.982      861.509
09/28/2013  19:32:00     -444.815     -118.378      -30.795      167.923      141.104       78.724    28198.021    19910.307     6197.430       13.355        2.715      460.298       79.206        0.030      343.102       18.973      861.543
09/28/2013  19:33:00     -443.345      -71.567      -13.302      194.565      124.931       87.386    37855.450    15607.857     7636.264       13.146        3.055      449.084       99.174        0.049      343.108       18.983      861.593
09/28/2013  19:34:00     -527.435      -55.945      -26.529      208.528      133.582       81.944    43484.059    17844.024     6714.772       17.502        3.402      530.394       79.800        0.023      343.133       19.027      861.632
09/28/2013  19:35:00     -291.566      -78.793       -9.623      121.312      108.817       59.482    14716.526    11841.173     3538.077        6.070        1.505      302.025       54.604        0.033      343.144       19.043      861.662
09/28/2013  19:36:00     -408.711     -101.093      -26.060      195.940      125.450       78.109    38392.435    15737.638     6101.084       11.908        3.012      421.028       85.442        0.041      343.107       18.983      861.670
09/28/2013  19:37:00     -290.679     -109.324       -3.974      178.935      139.237       64.140    32017.794    19387.030     4113.886        7.598        2.776      310.558       76.691        0.061      343.060       18.902      861.671
09/28/2013  19:38:00     -276.021     -150.320       -9.829      148.523      142.308       76.201    22058.935    20251.633     5806.592        7.349        2.406      314.299       71.207        0.051      343.097       18.964      861.689
09/28/2013  19:39:00     -230.079      -77.133      -12.194      126.654       84.633       55.186    16041.227     7162.804     3045.448        4.264        1.312      242.664       63.165        0.068      343.014       18.824      861.706
09/28/2013  19:40:00     -389.128     -133.348      -29.277      118.241      168.152       65.775    13980.881    28275.164     4326.341       10.831        2.329      411.342       69.327        0.028      343.057       18.898      861.693
09/28/2013  19:41:00     -294.054      -35.628        4.162      146.393      144.080       78.376    21430.886    20759.096     6142.737        6.803        2.417      296.205       76.531        0.067      342.982       18.771      861.718
09/28/2013  19:42:00     -294.670     -109.729      -21.086      181.758      107.244       76.975    33035.957    11501.178     5925.079        7.488        2.523      314.438       90.958        0.084      343.004       18.806      861.716
09/28/2013  19:43:00     -325.937     -109.531       -8.732      168.145      109.846       74.603    28272.720    12066.095     5565.606        8.210        2.295      343.849       74.253        0.047      343.017       18.830      861.684
09/28/2013  19:44:00     -346.949     -131.396      -13.758      146.148      145.358       81.452    21359.247    21129.040     6634.475        9.347        2.456      370.996       81.281        0.048      343.009       18.815      861.684
09/28/2013  19:45:00     -302.563      -96.390        6.211      199.264      134.438       85.978    39705.985    18073.702     7392.179        8.301        3.259      317.545      100.931        0.101      343.028       18.848      861.688
09/28/2013  19:46:00     -227.530     -136.186       10.471      185.710      142.078       80.668    34488.121    20186.262     6507.360        6.579        3.059      265.173      103.375        0.152      342.999       18.799      861.700
09/28/2013  19:47:00     -387.023     -145.507      -18.808      143.689      137.095       67.294    20646.439    18795.086     4528.489       10.763        2.199      413.472       60.472        0.021      343.030       18.850      861.713
09/28/2013  19:48:00     -323.112      -93.553      -10.858      176.253      111.942       74.693    31064.964    12530.914     5578.981        8.121        2.459      336.383       90.823        0.073      342.993       18.789      861.704
09/28/2013  19:49:00     -403.223     -159.153       -0.168      174.160      125.454       74.028    30331.554    15738.621     5480.108       11.972        2.578      433.496       84.174        0.038      343.029       18.849      861.650
09/28/2013  19:50:00     -419.521     -121.050      -22.510      128.118      106.675       65.305    16414.189    11379.482     4264.751       11.160        1.603      436.636       57.134        0.017      343.021       18.836      861.618
09/28/2013  19:51:00     -382.034     -165.947       -5.312      233.769      142.467       97.874    54647.736    20296.793     9579.339       12.900        4.226      416.519      116.213        0.078      343.031       18.851      861.632
09/28/2013  19:52:00     -299.311     -116.717       -6.376      169.127      146.026       80.212    28604.034    21323.534     6433.956        7.979        2.818      321.263       83.521        0.068      343.011       18.820      861.624
09/28/2013  19:53:00     -369.785     -232.061      -16.556      190.218      131.216       79.542    36182.717    17217.648     6326.976       12.529        2.986      436.570       95.076        0.047      343.033       18.856      861.618
09/28/2013  19:54:00     -288.542     -206.357        3.252      171.547      132.193       84.326    29428.272    17474.989     7110.829        8.992        2.701      354.739       96.213        0.074      343.001       18.803      861.674
09/28/2013  19:55:00     -325.154     -158.758      -16.680      192.176      124.696       75.248    36931.751    15549.157     5662.229        9.466        2.907      361.841       85.396        0.056      343.017       18.830      861.690
09/28/2013  19:56:00     -266.549     -129.506        1.169      113.644      122.293       68.378    12914.854    14955.555     4675.564        6.018        1.627      296.345       69.299        0.055      343.007       18.812      861.702
09/28/2013  19:57:00     -401.772     -267.291       -8.214      173.796      129.827       82.065    30204.898    16854.983     6734.682       14.335        2.690      482.561       91.512        0.036      343.019       18.833      861.721
09/28/2013  19:58:00     -262.444     -152.450        7.044      146.101      108.624       80.388    21345.370    11799.213     6462.240        6.588        1.980      303.509       81.160        0.072      342.965       18.740      861.770
09/28/2013  19:59:00     -364.741     -179.855      -11.517      193.310      145.292       76.804    37368.882    21109.682     5898.817       11.493        3.219      406.674       86.404        0.045      342.990       18.784      861.773
09/28/2013  20:00:00     -300.942     -151.241       -0.824      206.060      180.136       71.759    42460.778    32449.026     5149.388        9.673        4.003      336.808       71.374        0.045      342.973       18.756      861.788
09/28/2013  20:01:00     -299.604     -109.835      -15.382      124.845      111.281       59.742    15586.331    12383.415     3569.160        6.679        1.577      319.102       60.699        0.036      342.954       18.721      861.846
09/28/2013  20:02:00     -263.366     -115.768       -1.787      170.546      154.647       96.032    29085.779    23915.635     9222.062        7.248        3.111      287.687      110.805        0.148      342.920       18.665      861.880
09/28/2013  20:03:00     -366.216     -103.348       -6.230      129.775      135.661       72.309    16841.613    18403.780     5228.527        9.265        2.024      380.519       64.386        0.029      342.953       18.720      861.928
09/28/2013  20:04:00     -330.050     -166.251      -12.611      134.266      148.819       67.713    18027.485    22146.991     4585.062        9.074        2.238      369.557       78.399        0.045      342.959       18.731      861.960
09/28/2013  20:05:00     -428.564     -271.149      -29.015      151.839      124.198       73.551    23055.215    15425.127     5409.772       15.095        2.195      507.138       78.022        0.024      342.974       18.757      861.981
09/28/2013  20:06:00     -146.257     -129.002       15.689      141.334      115.202       61.958    19975.214    13271.519     3838.766        3.767        1.854      195.020       77.357        0.157      342.916       18.658      862.017
09/28/2013  20:07:00     -243.434      -48.984        4.489      125.515       93.463       50.565    15754.035     8735.257     2556.786        4.436        1.352      248.313       54.651        0.048      342.893       18.619      862.042
09/28/2013  20:08:00     -305.954      -45.809       -4.815       94.433       78.790       55.642     8917.613     6207.817     3096.048        5.697        0.911      309.364       48.819        0.025      342.869       18.579      862.074
09/28/2013  20:09:00     -257.976      -78.535       -0.395      132.933      108.948       53.019    17671.196    11869.627     2810.984        5.253        1.618      269.665       62.342        0.053      342.819       18.494      862.098
09/28/2013  20:10:00     -290.808      -61.327        2.497      137.082      101.949       67.267    18791.511    10393.696     4524.795        6.102        1.686      297.205       75.443        0.064      342.832       18.513      862.118
09/28/2013  20:11:00     -309.315      -47.390       -2.111      170.932      136.011       67.365    29217.666    18499.097     4538.079        7.508        2.613      312.924       83.837        0.072      342.769       18.407      862.133
09/28/2013  20:12:00     -309.338      -84.588      -11.534      158.823      176.919       79.119    25224.726    31300.439     6259.878        8.287        3.139      320.695       86.053        0.072      342.871       18.580      862.154
09/28/2013  20:13:00     -311.871      -58.281      -17.408      133.205      134.334       72.309    17743.555    18045.709     5228.661        7.098        2.051      317.270       65.429        0.043      342.833       18.515      862.170
09/28/2013  20:14:00     -446.198     -102.893      -17.477      163.187      124.447       78.062    26629.878    15487.171     6093.657       12.909        2.411      457.908       88.793        0.038      342.896       18.622      862.164
09/28/2013  20:15:00     -343.657      -83.664       -5.785      136.685      141.940       75.969    18682.706    20147.092     5771.354        8.486        2.230      353.695       77.248        0.048      342.856       18.556      862.187
09/28/2013  20:16:00     -260.297      -38.013        7.404      131.194      106.029       62.291    17211.767    11242.155     3880.144        5.079        1.617      263.058       67.505        0.066      342.791       18.445      862.212
09/28/2013  20:17:00     -373.707     -129.778      -18.381      187.702      131.089       76.507    35231.960    17184.426     5853.275       10.754        2.913      395.600       86.129        0.047      342.880       18.596      862.223
09/28/2013  20:18:00     -360.389     -184.029       -7.190      223.937      131.695       82.378    50147.775    17343.582     6786.137       11.902        3.714      404.656       98.711        0.060      342.915       18.655      862.250
09/28/2013  20:19:00     -354.145      -80.644       -4.630      193.242      150.797       72.487    37342.320    22739.867     5254.355        9.863        3.267      363.211       85.071        0.055      342.940       18.698      862.269
09/28/2013  20:20:00     -484.006      -63.492      -15.649      199.691      125.350       85.050    39876.669    15712.635     7233.424       15.067        3.141      488.152       97.565        0.040      342.911       18.648      862.272
09/28/2013  20:21:00     -389.788     -133.168       -4.356      165.779      117.677       70.356    27482.773    13847.893     4950.035       10.797        2.314      411.908       79.523        0.037      342.910       18.647      862.285
09/28/2013  20:22:00     -356.282      -84.964      -12.483      141.363      115.105       64.719    19983.556    13249.075     4188.537        8.586        1.871      366.273       71.523        0.038      342.894       18.620      862.286
09/28/2013  20:23:00     -384.537     -109.588      -13.277      129.980      120.288       56.963    16894.760    14469.113     3244.815        9.732        1.730      399.848       56.455        0.020      342.879       18.596      862.284
09/28/2013  20:24:00     -282.055      -76.376        0.820      115.989      109.866       59.245    13453.355    12070.520     3510.026        5.721        1.452      292.213       62.357        0.046      342.829       18.509      862.312
09/28/2013  20:25:00     -342.994      -95.477       -2.007      140.260      110.108       72.903    19672.974    12123.785     5314.872        8.193        1.856      356.034       76.586        0.046      342.841       18.530      862.327
09/28/2013  20:26:00     -263.834      -33.981        9.396      144.658       89.420       66.998    20925.887     7995.884     4488.709        5.212        1.671      266.013       71.090        0.071      342.798       18.457      862.350
09/28/2013  20:27:00     -205.315      -37.331        0.680       83.018       84.678       49.119     6892.023     7170.407     2412.659        3.001        0.824      208.682       45.415        0.047      342.765       18.401      862.359
09/28/2013  20:28:00     -256.014      -32.344      -15.575      135.755       78.552       53.699    18429.360     6170.436     2883.573        4.715        1.374      258.049       65.798        0.065      342.779       18.425      862.351
09/28/2013  20:29:00     -304.176      -69.288       -1.712      129.220       86.543       53.076    16697.784     7489.728     2817.065        6.216        1.350      311.968       62.462        0.040      342.806       18.471      862.337
09/28/2013  20:30:00     -324.479      -58.643      -21.144      101.569      115.807       60.525    10316.326    13411.350     3663.276        6.828        1.370      329.736       69.327        0.044      342.816       18.487      862.331
09/28/2013  20:31:00     -335.159      -70.099       -0.127      147.455      109.408       72.708    21743.018    11970.057     5286.526        7.811        1.950      342.412       84.113        0.060      342.829       18.509      862.336
09/28/2013  20:32:00     -258.984      -91.343       -8.937      152.626      104.114       64.242    23294.737    10839.722     4127.026        5.687        1.913      274.620       57.029        0.043      342.798       18.458      862.346
09/28/2013  20:33:00     -322.996      -97.035      -11.509      118.844      127.974       65.512    14123.778    16377.366     4291.862        7.433        1.740      337.256       72.259        0.046      342.869       18.578      862.353
09/28/2013  20:34:00     -315.201      -99.229       -5.709      129.756      112.764       55.680    16836.715    12715.668     3100.224        7.094        1.633      330.451       54.832        0.028      342.792       18.446      862.376
09/28/2013  20:35:00     -280.262      -71.202      -15.475      118.609       97.550       58.655    14068.139     9515.983     3440.404        5.543        1.351      289.165       62.165        0.046      342.794       18.450      862.398
09/28/2013  20:36:00     -351.359      -82.311      -27.570      117.987      108.126       60.086    13920.911    11691.244     3610.373        8.010        1.461      360.872       63.034        0.031      342.815       18.485      862.402
09/28/2013  20:37:00     -285.963      -78.566      -10.714      118.202       99.940       53.691    13971.678     9987.917     2882.705        5.745        1.342      296.560       59.727        0.041      342.763       18.398      862.382
09/28/2013  20:38:00     -296.662      -40.854       -7.966      104.324       83.037       50.196    10883.595     6895.225     2519.689        5.502        1.015      299.462       55.212        0.034      342.784       18.430      862.360
09/28/2013  20:39:00     -334.325     -107.347      -10.140      128.821       77.430       46.420    16594.731     5995.467     2154.793        7.407        1.237      351.136       48.531        0.019      342.789       18.441      862.358
09/28/2013  20:40:00     -307.557      -89.101       -3.365      147.858      104.654       58.795    21862.021    10952.398     3456.872        6.940        1.814      320.203       71.195        0.049      342.745       18.365      862.363
09/28/2013  20:41:00     -263.297      -82.125      -12.863       98.480       97.497       50.895     9698.234     9505.739     2590.281        4.901        1.090      275.808       49.708        0.032      342.725       18.333      862.360
09/28/2013  20:42:00     -248.435      -73.998       -3.153       84.116       73.012       48.403     7075.460     5330.814     2342.806        4.097        0.737      259.221       46.264        0.032      342.699       18.290      862.349
09/28/2013  20:43:00     -244.332      -76.789       -2.236      112.064       78.167       48.828    12558.267     6110.025     2384.210        4.332        1.053      256.115       50.270        0.039      342.705       18.299      862.339
09/28/2013  20:44:00     -280.626      -75.382       -4.240       99.860       66.199       45.917     9971.949     4382.243     2108.400        5.045        0.823      290.574       50.312        0.030      342.730       18.340      862.340
09/28/2013  20:45:00     -208.848      -63.968        9.433      107.924       86.756       49.404    11647.582     7526.608     2440.717        3.470        1.081      218.425       51.975        0.057      342.682       18.260      862.334
09/28/2013  20:46:00     -232.488      -51.328        4.717      117.243       87.816       50.784    13745.821     7711.704     2579.051        4.037        1.202      238.087       53.488        0.050      342.705       18.298      862.337
09/28/2013  20:47:00     -307.301      -86.744       -8.469      121.441      108.817       56.806    14747.887    11841.193     3226.872        6.592        1.491      319.310       62.606        0.038      342.793       18.448      862.318
09/28/2013  20:48:00     -258.441      -81.381        0.398      159.749       78.282       51.176    25519.862     6128.050     2619.007        5.383        1.713      270.951       70.001        0.067      342.729       18.340      862.300
09/28/2013  20:49:00     -204.663      -38.895       -1.473       98.572       71.121       45.461     9716.499     5058.233     2066.691        3.012        0.842      208.326       51.365        0.061      342.726       18.334      862.294
09/28/2013  20:50:00     -195.760      -44.031       10.426      103.125       81.729       48.326    10634.736     6679.609     2335.368        3.001        0.982      200.651       55.244        0.076      342.690       18.273      862.289
09/28/2013  20:51:00     -151.458      -50.278        7.083       84.953       75.395       47.296     7217.092     5684.373     2236.866        2.032        0.757      159.585       47.088        0.087      342.723       18.331      862.276
09/28/2013  20:52:00     -263.014      -99.391      -14.090      117.735       99.415       52.326    13861.521     9883.389     2738.042        5.286        1.324      281.167       49.900        0.031      342.715       18.314      862.272
09/28/2013  20:53:00     -223.536      -75.204       -5.337       82.592       76.697       41.731     6821.489     5882.363     1741.517        3.505        0.722      235.847       38.353        0.026      342.681       18.258      862.282
09/28/2013  20:54:00     -226.733      -32.455       -6.748       90.753       74.514       49.246     8236.097     5552.276     2425.167        3.436        0.811      229.044       52.739        0.053      342.667       18.234      862.275
09/28/2013  20:55:00     -175.617      -38.384       -2.848      110.648       81.258       46.636    12243.005     6602.784     2174.945        2.667        1.051      179.763       48.351        0.072      342.661       18.224      862.247
09/28/2013  20:56:00     -164.692      -92.938        5.031       81.657       72.487       42.183     6667.862     5254.336     1779.375        2.474        0.685      189.106       41.767        0.049      342.713       18.312      862.225
09/28/2013  20:57:00     -255.024      -47.841       -7.304      109.450       61.960       41.942    11979.251     3838.981     1759.155        4.247        0.879      259.472       49.625        0.037      342.743       18.363      862.241
09/28/2013  20:58:00     -182.452      -29.100       -3.755       89.136       58.619       43.727     7945.218     3436.180     1912.023        2.372        0.665      184.758       49.181        0.071      342.707       18.302      862.240
09/28/2013  20:59:00     -244.185      -13.679      -16.823       92.816       64.376       42.891     8614.844     4144.227     1839.681        3.734        0.730      244.568       42.265        0.030      342.750       18.374      862.223
09/28/2013  21:00:00     -169.946      -66.811        1.596       69.677       58.588       35.440     4854.905     3432.548     1256.018        2.144        0.477      182.607       32.349        0.031      342.715       18.317      862.196
09/28/2013  21:01:00     -210.127     -122.630      -10.649       77.781       60.230       39.082     6049.807     3627.703     1527.391        3.525        0.560      243.293       32.587        0.018      342.768       18.405      862.181
09/28/2013  21:02:00     -173.678      -72.767       -4.241       76.558       84.725       38.735     5861.062     7178.405     1500.403        2.501        0.727      188.306       37.241        0.039      342.800       18.460      862.168
09/28/2013  21:03:00      -85.264      -24.628       10.635       40.556       37.128       24.589     1644.812     1378.465      604.615        0.581        0.181       88.750       21.730        0.060      342.715       18.320      862.184
09/28/2013  21:04:00     -122.675      -43.258        1.860       68.156       39.408       22.264     4645.223     1552.984      495.668        1.181        0.335      130.078       23.029        0.031      342.706       18.301      862.211
09/28/2013  21:05:00     -163.590      -57.635       -9.034       49.500       42.424       24.024     2450.294     1799.815      577.168        1.750        0.241      173.446       16.885        0.009      342.663       18.230      862.242
09/28/2013  21:06:00     -104.316      -14.660        6.033       73.968       50.670       36.078     5471.240     2567.491     1301.605        1.023        0.467      105.341       35.966        0.117      342.597       18.116      862.243
09/28/2013  21:07:00      -55.695      -65.960        3.091       73.861       48.036       37.494     5455.382     2307.505     1405.825        0.831        0.458       86.329       38.398        0.198      342.691       18.278      862.257
09/28/2013  21:08:00     -117.236      -77.563        4.382       66.972       58.728       37.501     4485.284     3448.963     1406.339        1.456        0.467      140.571       32.500        0.053      342.732       18.346      862.256
09/28/2013  21:09:00      -99.716      -71.071       -2.591       73.651       50.760       29.882     5424.543     2576.596      892.938        1.195        0.445      122.451       35.423        0.084      342.742       18.363      862.256
09/28/2013  21:10:00     -113.656      -31.871       -0.211       61.462       81.962       29.653     3777.583     6717.715      879.304        1.265        0.569      118.040       29.492        0.062      342.746       18.370      862.246
09/28/2013  21:11:00      -85.373      -11.005        0.441       56.139       41.712       24.743     3151.598     1739.914      612.193        0.646        0.275       86.080       18.516        0.046      342.659       18.225      862.239
09/28/2013  21:12:00     -111.447      -78.086        3.000       71.371       69.066       27.671     5093.794     4770.112      765.699        1.458        0.531      136.080       35.367        0.068      342.659       18.222      862.241
09/28/2013  21:13:00     -196.024      -68.267      -10.199       92.756       60.926       35.440     8603.627     3712.021     1255.976        2.838        0.679      207.571       26.278        0.016      342.741       18.359      862.227
09/28/2013  21:14:00     -145.105      -17.599        1.784       89.017       54.196       31.100     7923.965     2937.218      967.203        1.660        0.591      146.169       43.495        0.089      342.676       18.249      862.241
09/28/2013  21:15:00     -225.226      -95.216      -13.268       76.551       76.044       34.347     5860.119     5782.706     1179.734        3.639        0.641      244.526       34.658        0.020      342.714       18.313      862.248
09/28/2013  21:16:00      -99.748     -116.986       -9.711       46.425       49.350       34.754     2155.237     2435.456     1207.806        1.476        0.290      153.738       27.092        0.031      342.729       18.341      862.241
09/28/2013  21:17:00      -96.945     -125.593       -1.767       89.883       41.270       31.678     8078.937     1703.207     1003.482        1.798        0.539      158.657       40.473        0.065      342.725       18.333      862.235
09/28/2013  21:18:00      -73.782     -185.919       18.330       80.442       98.245       48.132     6470.913     9652.066     2316.693        2.939        0.922      200.025       36.920        0.034      342.714       18.314      862.258
09/28/2013  21:19:00        2.158        1.195       13.024       31.053       43.925       25.044      964.273     1929.390      627.196        0.185        0.176        2.467       14.718       35.603      342.440       17.851      862.257
09/28/2013  21:20:00      -37.195       30.315       -4.862       79.043       40.055       24.423     6247.854     1604.422      596.465        0.539        0.422       47.984       17.201        0.129      342.424       17.823      862.255
09/28/2013  21:21:00      -10.155       -0.378        4.578       37.901       19.031       29.849     1436.518      362.193      890.957        0.141        0.134       10.163       17.936        3.115      342.324       17.653      862.304
09/28/2013  21:22:00      -27.870       22.724       14.744       40.061       28.947       27.212     1604.913      837.901      740.501        0.235        0.159       35.960        9.984        0.077      342.012       17.124      862.366
09/28/2013  21:23:00      -84.156      -42.014        2.984       49.606       43.174       26.765     2460.793     1864.003      716.359        0.695        0.252       94.061       27.795        0.087      342.567       18.067      862.410
09/28/2013  21:24:00     -125.034     -125.478        4.391       79.483       67.485       44.678     6317.550     4554.270     1996.112        2.213        0.643      177.139       47.498        0.072      342.659       18.221      862.450
09/28/2013  21:25:00     -116.073     -134.519       10.697       94.871      110.840       50.091     9000.569    12285.600     2509.154        2.773        1.190      177.675       52.777        0.088      342.691       18.275      862.458
09/28/2013  21:26:00      -51.607      -15.498       15.295       52.009       41.277       30.689     2704.955     1703.790      941.788        0.424        0.268       53.883       29.872        0.307      342.575       18.081      862.465
09/28/2013  21:27:00      -18.915       -6.999       13.970       41.400       46.468       27.339     1713.946     2159.304      747.399        0.261        0.231       20.169       24.818        1.514      342.357       17.709      862.511
09/28/2013  21:28:00      -74.304      -20.395       -1.037       44.219       47.820       18.541     1955.354     2286.772      343.772        0.526        0.229       77.052       23.625        0.094      342.553       18.043      862.537
09/28/2013  21:29:00       -2.648      -10.105       13.122       35.918       32.857       25.030     1290.103     1079.603      626.521        0.164        0.150       10.447       24.882        5.673      342.431       17.835      862.568
09/28/2013  21:30:00       -5.905      -24.038        5.743       29.461       47.167       23.069      867.976     2224.680      532.190        0.213        0.181       24.752       25.420        1.055      342.557       18.051      862.605
09/28/2013  21:31:00     -112.594       16.749       -4.560       65.292       44.936       23.205     4263.086     2019.242      538.461        0.990        0.341      113.833       23.686        0.043      342.558       18.050      862.625
09/28/2013  21:32:00      -44.684      -26.289        7.128       73.291       42.127       26.052     5371.561     1774.701      678.709        0.528        0.391       51.844       37.772        0.531      342.390       17.769      862.631
09/28/2013  21:33:00      -27.274        3.226       -3.467       21.863       35.793       16.927      477.997     1281.167      286.516        0.141        0.102       27.465       10.991        0.160      342.597       18.117      862.637
09/28/2013  21:34:00      -77.552        8.254       -4.020       32.017       23.411       15.858     1025.092      548.066      251.476        0.396        0.091       77.990       14.681        0.035      342.575       18.080      862.654
09/28/2013  21:35:00     -143.966       23.437       -7.583       49.846       31.133       27.130     2484.656      969.236      736.025        1.276        0.209      145.862       15.032        0.011      342.536       18.015      862.661
09/28/2013  21:36:00     -148.709       26.749       -2.280       66.912       51.436       26.203     4477.264     2645.680      686.615        1.532        0.390      151.095       18.617        0.015      342.588       18.102      862.683
09/28/2013  21:37:00     -127.328      -13.482      -14.546       22.772       27.171       16.953      518.545      738.249      287.408        0.907        0.077      128.039       11.302        0.008      342.600       18.123      862.700
09/28/2013  21:38:00     -153.855       -1.739      -23.185       24.264       15.011       11.669      588.742      225.333      136.168        1.258        0.048      153.865       10.424        0.005      342.536       18.015      862.727
09/28/2013  21:39:00     -120.277        2.273      -18.338       41.257       39.112       20.249     1702.133     1529.733      410.033        0.922        0.182      120.299       17.761        0.022      342.467       17.897      862.769
09/28/2013  21:40:00     -181.244       -7.406      -19.034       48.799       32.962       26.646     2381.294     1086.516      709.988        1.872        0.209      181.395       25.880        0.020      342.430       17.833      862.783
09/28/2013  21:41:00     -164.741       18.257      -18.188       46.423       37.553       20.854     2155.086     1410.240      434.886        1.590        0.200      165.750       23.600        0.020      342.513       17.977      862.784
09/28/2013  21:42:00      -34.767       85.890      -10.631       31.587       35.023       24.137      997.717     1226.593      582.590        0.575        0.140       92.660       22.392        0.058      342.434       17.842      862.764
09/28/2013  21:43:00      -86.507      104.196      -15.015       72.466       67.436       39.802     5251.311     4547.645     1584.216        1.497        0.569      135.426       27.785        0.042      342.407       17.796      862.731
09/28/2013  21:44:00     -263.312        4.765      -35.624      104.204       53.560       36.439    10858.392     2868.677     1327.797        4.284        0.753      263.355       51.006        0.038      342.448       17.861      862.749
09/28/2013  21:45:00      -89.262       27.685      -15.114       40.820       62.155       31.069     1666.261     3863.202      965.299        0.773        0.325       93.457       20.284        0.047      342.309       17.627      862.798
09/28/2013  21:46:00     -141.127       21.533      -12.899       55.644       73.197       31.828     3096.296     5357.774     1013.031        1.501        0.473      142.760       26.510        0.034      342.296       17.604      862.856
09/28/2013  21:47:00     -147.105        7.485      -26.910       41.269       57.566       27.456     1703.131     3313.812      753.835        1.409        0.289      147.295       15.512        0.011      342.308       17.626      862.889
09/28/2013  21:48:00     -106.173       20.216      -15.823       66.282       40.618       31.166     4393.358     1649.817      971.289        0.947        0.351      108.081       22.778        0.044      342.283       17.584      862.908
09/28/2013  21:49:00     -166.603       92.332      -23.585       83.883       89.986       43.522     7036.316     8097.468     1894.183        2.693        0.851      190.478       44.607        0.055      342.326       17.656      862.928
09/28/2013  21:50:00     -115.750      -17.631       -7.093       56.229       42.013       26.289     3161.692     1765.059      691.116        0.969        0.281      117.085       27.688        0.056      342.278       17.576      862.926
09/28/2013  21:51:00      -60.014      -38.394      -10.345       47.883       43.790       27.768     2292.776     1917.525      771.065        0.508        0.249       71.245       22.123        0.096      342.339       17.680      862.927
09/28/2013  21:52:00       37.712      -60.346        7.538       30.116       65.240       27.934      906.958     4256.264      780.324        0.553        0.297       71.160       36.165        0.258      342.290       17.599      862.913
09/28/2013  21:53:00     -134.903      -38.541      -13.489       62.871       33.099       21.213     3952.720     1095.555      450.011        1.268        0.275      140.301       27.866        0.039      342.364       17.722      862.871
09/28/2013  21:54:00     -187.433      -60.800       -3.599       55.962       43.864       24.950     3131.713     1924.094      622.505        2.226        0.284      197.048       21.661        0.012      342.334       17.668      862.841
09/28/2013  21:55:00     -118.667      -37.292       -5.216      106.368       36.484       32.764    11314.109     1331.066     1073.457        1.461        0.686      124.389       43.865        0.124      342.442       17.853      862.753
09/28/2013  21:56:00     -184.695      -39.429       -5.582       84.950       55.640       37.266     7216.423     3095.824     1388.755        2.370        0.585      188.857       41.634        0.049      342.375       17.740      862.639
09/28/2013  21:57:00      -31.054      -80.324       -0.967       45.854       37.476       24.994     2102.580     1404.486      624.688        0.577        0.207       86.118       22.514        0.068      342.364       17.722      862.485
09/28/2013  21:58:00      -45.183      -53.327      -17.213       26.267       46.265       25.496      689.949     2140.476      650.023        0.433        0.174       69.894       29.488        0.178      342.447       17.862      862.332
09/28/2013  21:59:00      -51.766      -76.613      -14.166       37.358       64.485       21.235     1395.650     4158.259      450.940        0.738        0.300       92.463       16.516        0.032      342.459       17.884      862.266
09/28/2013  22:00:00     -117.044      -48.322       -0.751       50.260       63.922       35.206     2526.093     4086.048     1239.431        1.194        0.393      126.627       32.476        0.066      342.393       17.773      862.302
09/28/2013  22:01:00     -156.460      -33.574       -3.358       69.633       49.089       31.552     4848.700     2409.764      995.499        1.693        0.413      160.022       27.948        0.031      342.409       17.797      862.376
09/28/2013  22:02:00     -170.632      -21.392       12.954      104.733       61.865       45.963    10969.058     3827.231     2112.574        2.332        0.845      171.968       48.785        0.080      342.367       17.724      862.438
09/28/2013  22:03:00     -185.869      -82.965      -15.700       86.209       54.895       36.281     7432.002     3013.423     1316.335        2.672        0.588      203.545       44.809        0.048      342.355       17.704      862.458
09/28/2013  22:04:00     -167.197      -52.517      -13.552       53.732       53.685       30.077     2887.113     2882.041      904.629        1.878        0.334      175.251       23.379        0.018      342.326       17.656      862.422
09/28/2013  22:05:00     -181.583      -50.347      -14.146       56.731       46.416       24.349     3218.391     2154.414      592.880        2.084        0.298      188.434       20.625        0.012      342.326       17.655      862.403
09/28/2013  22:06:00     -118.834      -37.426        1.903       56.557       39.478       27.472     3198.714     1558.482      754.687        1.052        0.276      124.588       28.309        0.052      342.194       17.434      862.422
09/28/2013  22:07:00     -102.774      -52.651        2.279       58.532       36.826       24.438     3426.046     1356.141      597.208        0.936        0.269      115.476       26.048        0.051      342.264       17.552      862.437
09/28/2013  22:08:00     -126.303      -13.847        1.154       69.144       46.371       29.111     4780.882     2150.255      847.442        1.196        0.389      127.059       32.434        0.065      342.249       17.527      862.386
09/28/2013  22:09:00     -135.987      -40.640      -21.826       39.247       29.694       19.385     1540.302      881.731      375.790        1.171        0.140      141.929       13.723        0.009      342.308       17.627      862.341
09/28/2013  22:10:00     -113.503      -49.858       -3.708       43.276       32.464       22.431     1872.815     1053.925      503.128        0.941        0.171      123.971       20.686        0.028      342.265       17.555      862.320
09/28/2013  22:11:00     -111.242      -26.918       -3.372       46.359       41.338       21.707     2149.113     1708.870      471.197        0.872        0.216      114.452       21.660        0.036      342.279       17.577      862.332
09/28/2013  22:12:00     -202.356      -62.003      -10.850       59.583       45.904       29.073     3550.150     2107.148      845.231        2.571        0.325      211.642       29.053        0.019      342.256       17.535      862.392
09/28/2013  22:13:00     -204.776      -72.095        0.105       79.326       77.011       50.866     6292.571     5930.756     2587.369        3.097        0.741      217.097       43.870        0.041      342.296       17.602      862.461
09/28/2013  22:14:00     -193.821      -41.004       -7.074      109.138       66.746       40.377    11911.028     4454.989     1630.277        2.864        0.900      198.111       45.061        0.052      342.279       17.574      862.507
09/28/2013  22:15:00     -193.074      -20.230      -15.664       63.948       64.310       38.359     4089.359     4135.715     1471.404        2.381        0.485      194.131       32.135        0.027      342.270       17.559      862.536
09/28/2013  22:16:00     -192.718        1.079       -3.516       65.876       36.944       31.041     4339.623     1364.893      963.567        2.191        0.333      192.721       30.574        0.025      342.227       17.486      862.532
09/28/2013  22:17:00     -229.308      -23.600      -13.691       66.912       50.889       38.110     4477.241     2589.674     1452.409        3.092        0.426      230.519       36.002        0.024      342.295       17.601      862.571
09/28/2013  22:18:00     -126.105      -34.637        2.607       66.721       62.040       33.877     4451.730     3848.918     1147.637        1.328        0.472      130.775       38.565        0.087      342.211       17.460      862.578
09/28/2013  22:19:00     -178.249      -35.942      -13.789       81.631       73.459       46.652     6663.662     5396.226     2176.382        2.374        0.712      181.836       35.637        0.038      342.281       17.578      862.573
09/28/2013  22:20:00     -100.757        0.082        2.695      118.325       59.380       43.208    14000.906     3525.932     1866.950        1.477        0.970      100.757       60.276        0.358      342.151       17.359      862.563
09/28/2013  22:21:00      -99.291      -34.917       -5.092       84.985       48.306       33.926     7222.431     2333.513     1150.946        1.090        0.535      105.252       34.083        0.105      342.494       17.943      862.509
09/28/2013  22:22:00       -8.333      -18.249        9.990       34.871       38.597       20.406     1215.997     1489.734      416.387        0.181        0.156       20.061        7.924        0.156      342.182       17.412      862.476
09/28/2013  22:23:00      -13.416      -10.285      -23.809       24.004       30.430       13.612      576.201      925.968      185.295        0.127        0.084       16.905       11.438        0.458      342.178       17.407      862.431
09/28/2013  22:24:00      -81.101      -29.370       -3.767       39.094       25.124       14.191     1528.326      631.223      201.393        0.491        0.118       86.255       12.481        0.021      342.280       17.578      862.476
09/28/2013  22:25:00      -35.456      -25.207       -2.671       25.721       21.116       12.421      661.552      445.902      154.270        0.158        0.063       43.503       13.594        0.098      342.300       17.612      862.474
09/28/2013  22:26:00      -40.158        9.808       -3.852       23.976       45.485       16.972      574.847     2068.901      288.038        0.233        0.147       41.339       18.601        0.202      342.296       17.605      862.470
09/28/2013  22:27:00     -144.956       44.166      -11.975       52.146       26.110       19.091     2719.178      681.755      364.459        1.344        0.188      151.535       12.163        0.006      342.197       17.437      862.480
09/28/2013  22:28:00     -134.341      -12.260      -16.751       41.083       59.112       26.158     1687.785     3494.198      684.218        1.217        0.293      134.899       25.679        0.036      342.133       17.330      862.534
09/28/2013  22:29:00     -126.874      -32.418       -7.214       40.714       43.260       24.266     1657.600     1871.426      588.852        1.066        0.206      130.950       23.520        0.032      342.135       17.332      862.590
09/28/2013  22:30:00     -131.905        5.505      -13.468       39.867       24.860       15.841     1589.349      618.031      250.927        1.003        0.123      132.020       15.950        0.015      342.184       17.415      862.584
09/28/2013  22:31:00      -71.435      -12.343        7.108       66.516       62.471       29.701     4424.355     3902.576      882.164        0.726        0.460       72.493       30.100        0.172      342.076       17.232      862.564
09/28/2013  22:32:00     -106.082      -35.397       -1.538       73.592       52.766       30.664     5415.759     2784.242      940.294        1.082        0.457      111.832       37.427        0.112      342.067       17.217      862.576
09/28/2013  22:33:00      -93.991      -36.123        4.364       60.500       43.912       33.926     3660.214     1928.273     1150.956        0.845        0.337      100.693       39.525        0.154      342.017       17.133      862.575
09/28/2013  22:34:00        0.569      -50.836       16.830       33.014       41.099       25.649     1089.894     1689.166      657.878        0.315        0.172       50.839       21.680        0.182      342.001       17.107      862.533
09/28/2013  22:35:00      -10.857       12.292        6.029       13.500       18.186       15.160      182.263      330.743      229.818        0.052        0.037       16.400        9.442        0.332      341.899       16.934      862.500
09/28/2013  22:36:00      -20.831      -33.518       -9.889       23.749       22.547       13.319      563.998      508.389      177.389        0.145        0.062       39.464        8.918        0.051      341.979       17.068      862.510
09/28/2013  22:37:00     -101.957      -37.213       -3.941       24.744       29.556       18.110      612.248      873.558      327.969        0.680        0.091      108.536        6.745        0.004      341.941       17.003      862.525
09/28/2013  22:38:00      -96.865      -31.357       -1.872       38.290       40.417       22.322     1466.115     1633.526      498.254        0.698        0.180      101.814       12.956        0.016      341.971       17.055      862.542
09/28/2013  22:39:00     -130.676      -31.792       -8.425       47.311       38.526       28.672     2238.366     1484.269      822.082        1.135        0.227      134.487       20.334        0.023      342.013       17.127      862.546
09/28/2013  22:40:00     -230.213      -64.398       -9.894       57.034       52.194       35.033     3252.921     2724.253     1227.330        3.222        0.360      239.050       32.652        0.019      342.038       17.162      862.564
09/28/2013  22:41:00     -222.571      -19.075      -24.653       79.273       59.167       33.297     6284.186     3500.752     1108.685        3.070        0.545      223.387       37.082        0.028      342.071       17.222      862.576
09/28/2013  22:42:00     -256.322       20.600      -18.898       50.779       49.487       31.479     2578.462     2448.935      990.900        3.625        0.301      257.148       23.853        0.009      342.144       17.344      862.585
09/28/2013  22:43:00     -229.874      -52.151      -14.322       80.747       52.192       35.036     6520.131     2723.972     1227.519        3.312        0.524      235.716       35.821        0.023      342.127       17.315      862.605
09/28/2013  22:44:00     -190.683      -53.757      -14.130       54.462       49.012       31.633     2966.097     2402.152     1000.675        2.291        0.318      198.116       25.931        0.017      342.104       17.277      862.629
09/28/2013  22:45:00     -150.527      -47.475       -0.876       50.748       47.467       31.336     2575.376     2253.131      981.934        1.536        0.291      157.836       30.135        0.036      342.055       17.195      862.631
09/28/2013  22:46:00      -96.479       -4.299        1.141       67.425       39.707       25.916     4546.075     1576.684      671.616        0.806        0.340       96.575       33.382        0.119      342.024       17.143      862.611
09/28/2013  22:47:00      -60.231       21.524        7.186       37.850       27.389       17.620     1432.616      750.136      310.476        0.332        0.125       63.962       19.724        0.095      341.913       16.955      862.539
09/28/2013  22:48:00      -52.073       17.335       -1.371       28.283       25.467       13.577      799.955      648.582      184.332        0.232        0.082       54.883       10.901        0.039      342.014       17.128      862.466
09/28/2013  22:49:00      -10.231       21.283       -1.021       14.782       23.960       10.672      218.521      574.088      113.882        0.073        0.045       23.615        6.036        0.065      341.965       17.043      862.382
09/28/2013  22:50:00       -4.513        4.488       -1.019        6.379       13.107        9.702       40.696      171.801       94.125        0.017        0.015        6.365        3.864        0.369      341.921       16.971      862.362
09/28/2013  22:51:00        5.513        5.572       -2.370       22.980        9.786       16.775      528.102       95.761      281.387        0.049        0.045        7.838       17.700        5.099      342.096       17.267      862.350
09/28/2013  22:52:00       19.730       10.729        1.013       18.534       13.863       10.881      343.509      192.182      118.387        0.058        0.033       22.459        9.500        0.179      342.029       17.153      862.270
09/28/2013  22:53:00       15.515       -1.019        9.425        9.533       16.761       12.254       90.874      280.939      150.172        0.043        0.026       15.548       11.719        0.568      341.992       17.090      862.177
09/28/2013  22:54:00       13.180       22.484       11.010       15.074        9.870       10.066      227.239       97.426      101.333        0.061        0.021       26.062        7.272        0.078      341.825       16.808      862.149
09/28/2013  22:55:00      -23.970       -2.876       -4.616       31.584        9.447        6.094      997.556       89.242       37.136        0.086        0.056       24.141        7.251        0.090      341.883       16.905      862.158
09/28/2013  22:56:00      -46.916      -33.448       -3.321       32.352       17.854       10.422     1046.626      318.761      108.615        0.240        0.074       57.618       14.145        0.060      341.983       17.077      862.188
09/28/2013  22:57:00      -76.145      -37.365       -4.252       15.599       29.884       10.113      243.342      893.037      102.274        0.423        0.062       84.819        4.971        0.003      341.720       16.629      862.192
09/28/2013  22:58:00     -103.258      -27.946       -6.931       25.339       19.824       13.169      642.042      393.004      173.427        0.635        0.060      106.972        7.896        0.005      341.815       16.790      862.183
09/28/2013  22:59:00     -132.389      -44.520       -2.113       31.834       19.987       13.418     1013.402      399.493      180.032        1.055        0.080      139.674        7.617        0.003      341.714       16.618      862.240
09/28/2013  23:00:00     -168.568      -91.595       -1.677       48.322       40.569       30.249     2335.029     1645.817      915.003        2.085        0.245      191.846       24.277        0.016      341.642       16.494      862.327
09/28/2013  23:01:00     -158.350      -33.450       -3.015       49.386       48.716       29.400     2438.963     2373.237      864.348        1.594        0.284      161.844       27.752        0.029      341.713       16.616      862.365
09/28/2013  23:02:00     -135.990       -0.306       -9.413       55.351       31.363       23.990     3063.779      983.645      575.500        1.160        0.231      135.990       23.679        0.030      341.905       16.941      862.292
09/28/2013  23:03:00     -127.069       -9.715      -12.851       41.277       26.806       13.315     1703.803      718.542      177.278        0.950        0.130      127.440        9.351        0.005      341.971       17.054      862.204
09/28/2013  23:04:00      -63.582      -18.564       -4.752       23.210       16.351       13.542      538.686      267.363      183.392        0.270        0.049       66.237       11.724        0.031      341.850       16.850      862.203
09/28/2013  23:05:00     -101.005      -49.596       -7.785       19.093       19.179       16.538      364.560      367.840      273.521        0.686        0.050      112.525        4.315        0.001      341.868       16.880      862.210
09/28/2013  23:06:00     -106.265      -35.239       -1.431       33.122       23.236       16.349     1097.041      539.912      267.291        0.722        0.095      111.956       18.268        0.027      341.707       16.606      862.195
09/28/2013  23:07:00     -131.891      -42.397        2.828       29.186       27.580       14.595      851.838      760.649      213.009        1.051        0.091      138.538       13.375        0.009      341.727       16.640      862.185
09/28/2013  23:08:00     -124.054      -66.581       -0.077       37.879       29.152       21.769     1434.790      849.812      473.895        1.129        0.138      140.792       17.635        0.016      341.890       16.917      862.162
09/28/2013  23:09:00      -13.620      -55.835        1.913       51.722       31.274       15.135     2675.208      978.045      229.080        0.359        0.194       57.472        7.010        0.015      342.269       17.561      862.049
09/28/2013  23:10:00       37.444       29.965        4.446       35.135       18.547       15.513     1234.443      344.000      240.667        0.207        0.091       47.958        8.585        0.032      341.555       16.347      861.918
09/28/2013  23:11:00      -27.238       -6.108       -9.776       15.348       31.557        7.686      235.561      995.833       59.077        0.108        0.065       27.914        7.771        0.077      342.021       17.140      861.904
09/28/2013  23:12:00      -52.828      -51.562        5.771       49.808       45.233       31.702     2480.796     2046.035     1005.041        0.551        0.277       73.820       36.700        0.247      341.668       16.541      861.948
09/28/2013  23:13:00     -108.656     -100.832       12.097       57.361       47.995       28.332     3290.239     2303.524      802.698        1.426        0.320      148.234       26.233        0.031      341.789       16.746      861.996
09/28/2013  23:14:00     -130.577     -109.907       -6.087       67.606       40.245       29.207     4570.549     1619.683      853.032        1.810        0.352      170.675       35.880        0.044      341.851       16.849      862.022
09/28/2013  23:15:00      -89.524      -12.590       -5.333       34.011       34.719       18.953     1156.726     1205.405      359.205        0.546        0.136       90.405       17.977        0.040      341.749       16.677      861.979
09/28/2013  23:16:00      -79.576      -21.918       -1.043       32.431       21.429       14.809     1051.749      459.197      219.320        0.427        0.087       82.540        7.096        0.007      341.791       16.750      861.905
09/28/2013  23:17:00      -80.407      -66.607      -14.134       27.883       25.436       13.987      777.482      646.966      195.627        0.636        0.081      104.412       14.694        0.020      341.952       17.021      861.890
09/28/2013  23:18:00      -91.357      -37.733       -0.170       35.315       22.678       17.884     1247.165      514.307      319.827        0.593        0.104       98.843       18.804        0.036      341.898       16.930      861.901
09/28/2013  23:19:00      -67.576      -37.011        4.052       44.547       26.916       19.534     1984.409      724.466      381.560        0.452        0.155       77.047       23.021        0.089      341.716       16.621      861.904
09/28/2013  23:20:00      -21.657      -14.641        7.044       32.434       20.674       18.463     1051.938      427.418      340.901        0.128        0.091       26.142       17.663        0.457      341.609       16.441      861.890
09/28/2013  23:21:00      -23.755      -27.438        4.457       20.436       25.927       11.169      417.647      672.219      124.744        0.128        0.061       36.292        8.247        0.052      341.683       16.566      861.879
09/28/2013  23:22:00      -60.359      -53.069       -1.379       32.949       23.200       13.770     1085.661      538.245      189.623        0.414        0.091       80.371       15.470        0.037      341.671       16.545      861.937
09/28/2013  23:23:00      -40.452      -34.647       -2.698       26.248       32.544       11.415      688.976     1059.122      130.311        0.236        0.094       53.262       13.410        0.063      341.664       16.534      861.965
09/28/2013  23:24:00      -12.078       21.961        0.318       10.662       13.097        9.755      113.671      171.534       95.159        0.050        0.019       25.063        8.888        0.126      341.557       16.352      861.955
09/28/2013  23:25:00      -35.507       -7.005       -1.985       13.261       12.020        3.526      175.866      144.478       12.435        0.082        0.017       36.191        3.837        0.011      341.743       16.666      861.961
09/28/2013  23:26:00      -41.224      -34.924       -3.848       17.848        9.096        5.125      318.552       82.736       26.261        0.168        0.021       54.028        2.867        0.003      341.656       16.521      861.995
09/28/2013  23:27:00       29.273        8.459        6.012       12.272       13.279        8.290      150.597      176.331       68.719        0.068        0.020       30.471        3.253        0.011      341.583       16.396      861.981
09/28/2013  23:28:00      -15.828        3.902       -4.337       12.819        8.602        4.224      164.320       73.997       17.839        0.027        0.013       16.302        3.270        0.040      341.931       16.990      861.978
09/28/2013  23:29:00      -59.293       -9.608       -9.048       11.057       10.726        6.053      122.260      115.058       36.635        0.198        0.014       60.067        5.132        0.007      341.737       16.658      861.985
09/28/2013  23:30:00      -59.480       22.954      -10.554        8.077        9.838        7.836       65.240       96.793       61.404        0.220        0.011       63.756        5.304        0.007      341.464       16.195      861.962
09/28/2013  23:31:00      -95.089       -7.162      -11.845       16.743       28.524        8.770      280.315      813.622       76.912        0.520        0.059       95.358        7.845        0.007      341.594       16.415      861.983
09/28/2013  23:32:00     -165.315      -11.354       -8.262       34.664       54.111       17.633     1201.621     2927.981      310.909        1.598        0.222      165.704       13.237        0.006      341.079       15.542      862.039
09/28/2013  23:33:00     -191.710        2.159      -17.400       55.631       42.506       20.293     3094.779     1806.757      411.805        2.119        0.266      191.723       21.836        0.013      341.134       15.633      862.055
09/28/2013  23:34:00     -126.479       17.458       -3.491       37.430       44.831       22.315     1400.978     2009.836      497.943        1.011        0.195      127.679       12.034        0.009      341.216       15.774      862.067
09/28/2013  23:35:00      -68.776       27.272       -7.653       38.324       25.482       18.397     1468.709      649.312      338.456        0.399        0.123       73.986       16.468        0.050      341.329       15.967      862.005
09/28/2013  23:36:00      -66.467      -22.376       -3.295       37.144       31.423       17.938     1379.666      987.430      321.784        0.381        0.134       70.132       19.916        0.081      341.491       16.240      861.961
09/28/2013  23:37:00     -113.271      -69.142        6.893       54.898       45.452       34.274     3013.817     2065.913     1174.717        1.196        0.313      132.706       28.690        0.047      341.315       15.943      862.031
09/28/2013  23:38:00     -125.384      -88.706        5.742       54.088       40.581       28.186     2925.534     1646.788      794.465        1.449        0.268      153.589       30.616        0.040      341.586       16.402      862.065
09/28/2013  23:39:00      -94.397      -47.659       -3.851       41.408       30.799       20.605     1714.660      948.562      424.554        0.714        0.154      105.746       14.823        0.020      341.665       16.535      861.987
09/28/2013  23:40:00      -48.783      -12.383        1.627       18.753       30.309       13.362      351.681      918.662      178.532        0.199        0.072       50.330        9.723        0.037      341.741       16.665      861.895
09/28/2013  23:41:00      -16.783      -42.656        1.504       25.540       13.731        9.750      652.294      188.540       95.066        0.152        0.047       45.839        5.856        0.016      341.850       16.848      861.885
09/28/2013  23:42:00       39.903      -49.463       -4.361       19.671       11.521        7.949      386.957      132.745       63.180        0.232        0.029       63.552        6.410        0.010      341.509       16.271      861.904
09/28/2013  23:43:00      -23.037      -35.774       -2.413       23.596       18.706       10.361      556.786      349.923      107.344        0.141        0.051       42.549       11.556        0.074      341.621       16.459      861.953
09/28/2013  23:44:00      -70.084      -33.853        7.552       38.923       30.781       18.106     1515.014      947.455      327.820        0.445        0.140       77.832       18.413        0.056      341.568       16.370      861.969
09/28/2013  23:45:00      -43.848       -8.429        1.705       20.754       19.434       10.084      430.742      377.664      101.680        0.145        0.046       44.651        4.346        0.009      341.299       15.915      861.921
09/28/2013  23:46:00      -36.062       43.823       -1.893       18.725       19.234       12.466      350.628      369.958      155.403        0.205        0.044       56.753        8.528        0.023      341.296       15.910      861.822
09/28/2013  23:47:00      -33.507       55.633       -9.585       21.413       18.540       13.059      458.503      343.733      170.543        0.264        0.049       64.945       13.888        0.046      341.476       16.214      861.803
09/28/2013  23:48:00     -150.848      -44.927      -14.681       53.929       44.786       19.321     2908.287     2005.803      373.303        1.514        0.264      157.396       11.702        0.006      341.153       15.667      861.858
09/28/2013  23:49:00     -137.712      -70.009       -3.814       67.556       47.514       27.359     4563.773     2257.622      748.499        1.572        0.378      154.486       26.104        0.029      340.936       15.299      861.863
09/28/2013  23:50:00     -109.393       -1.620       -0.817       41.335       32.235       19.763     1708.612     1039.126      390.562        0.755        0.157      109.405       20.477        0.035      341.006       15.419      861.761
09/28/2013  23:51:00      -51.742      -16.998        1.541       27.261       19.400       12.841      743.158      376.371      164.890        0.213        0.064       54.463       12.239        0.051      341.089       15.560      861.679
09/28/2013  23:52:00      -73.503      -32.430       -8.950       19.490       21.186       10.756      379.847      448.858      115.688        0.374        0.047       80.340       10.180        0.016      341.305       15.925      861.655
09/28/2013  23:53:00      -39.349      -52.497        7.760       44.498       29.781       24.652     1980.071      886.881      607.708        0.392        0.174       65.607       26.202        0.159      341.328       15.965      861.698
09/28/2013  23:54:00      -82.791      -93.717       -5.761       38.478       36.390       19.299     1480.558     1324.267      372.445        0.942        0.159      125.049       18.838        0.023      341.824       16.806      861.744
09/28/2013  23:55:00      -65.059      -54.648        1.813       49.651       40.242       22.834     2465.217     1619.381      521.401        0.591        0.230       84.965       25.635        0.091      341.749       16.677      861.742
09/28/2013  23:56:00       43.809       15.804       44.176       75.534       88.608       45.793     5705.318     7851.449     2097.017        0.988        0.783       46.573       66.918        2.065      341.853       16.855      861.632
09/28/2013  23:57:00       38.654      -14.274       31.933       43.427       66.302       35.826     1885.901     4395.960     1283.504        0.514        0.378       41.205       33.755        0.671      341.933       16.990      861.511
09/28/2013  23:58:00       -9.872      -16.299       14.945       47.146       47.664       28.179     2222.700     2271.813      794.081        0.294        0.264       19.055       20.753        1.186      341.381       16.055      861.651
09/28/2013  23:59:00      -32.759      -14.381       -4.289       18.218       22.713       19.566      331.909      515.879      382.840        0.126        0.062       35.777       18.563        0.269      341.454       16.176      861.607
